Date StartTime U_cm/s V_cm/s W_cm/s Ustd_cm/s Vstd_cm/s Wstd_cm/s Uvar_(cm/s)^2 Vvar_(cm/s)^2 Wvar_(cm/s)^2 KE_(m/s)^2 TurbulentKE_(m/s)^2 HorizWindSpeed_cm/s FrictionSpeec_cm/s DragCoef SpeedOfSound_m/s SonicTemperature_C Pressure_mb 
11/30/2013  00:00:00      -33.813      -26.741        5.749       33.923       20.267       15.314     1150.797      410.758      234.522        0.184        0.090       43.109       13.835        0.103      332.870        1.814      868.516
11/30/2013  00:01:00      -28.856      -24.835        5.324       27.966       15.414       16.004      782.094      237.582      256.129        0.138        0.064       38.072       11.988        0.099      332.805        1.707      868.509
11/30/2013  00:02:00      -57.046      -31.478        6.754       35.054       24.964       13.880     1228.772      623.185      192.652        0.317        0.102       65.154       12.264        0.035      332.846        1.774      868.503
11/30/2013  00:03:00      -67.858      -48.990        6.129       30.255       24.690       18.744      915.368      609.610      351.329        0.446        0.094       83.694       15.965        0.036      332.734        1.590      868.501
11/30/2013  00:04:00      -76.703      -50.737       -1.320       31.446       19.361       17.640      988.840      374.834      311.186        0.507        0.084       91.965       18.751        0.042      332.760        1.633      868.510
11/30/2013  00:05:00      -67.674      -42.227        0.736       30.198       26.656       16.437      911.908      710.561      270.176        0.413        0.095       79.767       16.553        0.043      332.745        1.608      868.512
11/30/2013  00:06:00     -103.177      -44.516       -3.391       12.861       10.661        9.953      165.404      113.666       99.060        0.651        0.019      112.371        3.279        0.001      332.705        1.541      868.502
11/30/2013  00:07:00      -43.373      -26.828        4.097       29.397       18.273       13.622      864.175      333.888      185.570        0.200        0.069       51.000        9.882        0.038      332.717        1.562      868.485
11/30/2013  00:08:00       -6.596       -8.412        4.180       25.172       16.201       15.682      633.650      262.463      245.939        0.064        0.057       10.690       14.154        1.753      332.729        1.581      868.476
11/30/2013  00:09:00      -27.028      -32.077        4.519       19.156       18.333       10.252      366.966      336.112      105.107        0.129        0.040       41.946        9.592        0.052      332.817        1.727      868.472
11/30/2013  00:10:00      -33.999      -22.607        2.929       16.817       11.277        8.810      282.819      127.177       77.609        0.108        0.024       40.829        6.195        0.023      332.790        1.683      868.481
11/30/2013  00:11:00      -35.021      -18.653        0.757       24.879       11.188        8.897      618.943      125.170       79.165        0.120        0.041       39.679       11.040        0.077      332.728        1.581      868.482
11/30/2013  00:12:00      -69.963      -16.363       -4.370       14.662       10.930        9.275      214.968      119.469       86.034        0.280        0.021       71.851        8.546        0.014      332.679        1.499      868.491
11/30/2013  00:13:00      -86.574       -7.942       -7.314       12.645       13.619       11.380      159.895      185.477      129.508        0.404        0.024       86.937        7.851        0.008      332.601        1.370      868.503
11/30/2013  00:14:00      -70.538      -13.663       -3.688       25.849       14.502       11.800      668.149      210.312      139.239        0.310        0.051       71.849       12.688        0.031      332.536        1.261      868.511
11/30/2013  00:15:00      -96.214      -14.425       -6.405       27.527       15.378       14.576      757.715      236.477      212.474        0.536        0.060       97.289       15.793        0.026      332.458        1.133      868.512
11/30/2013  00:16:00      -79.854      -24.751        1.697       20.270       24.683       12.086      410.885      609.233      146.072        0.408        0.058       83.602       10.807        0.017      332.402        1.042      868.501
11/30/2013  00:17:00      -73.094       -9.511       -5.094       22.889       13.720       11.490      523.921      188.248      132.014        0.315        0.042       73.710       12.360        0.028      332.335        0.929      868.478
11/30/2013  00:18:00      -99.718       -3.792       -4.960       23.056       12.650       11.188      531.567      160.027      125.177        0.540        0.041       99.790       11.297        0.013      332.346        0.948      868.457
11/30/2013  00:19:00     -112.398       -5.080       -6.923       14.398       10.534       10.378      207.298      110.971      107.703        0.657        0.021      112.513        8.098        0.005      332.355        0.963      868.445
11/30/2013  00:20:00      -67.103      -21.198        5.282       20.043       20.869       12.944      401.736      435.529      167.542        0.299        0.050       70.371       11.856        0.028      332.363        0.977      868.447
11/30/2013  00:21:00      -72.709      -18.175       -1.270       20.497       14.319       12.187      420.129      205.038      148.514        0.320        0.039       74.946       11.511        0.024      332.430        1.087      868.452
11/30/2013  00:22:00      -75.840      -25.815       -4.108       14.645       16.346        9.302      214.491      267.200       86.528        0.350        0.028       80.113        6.726        0.007      332.466        1.147      868.459
11/30/2013  00:23:00      -73.815       -3.586       -5.154       12.905        9.704        7.477      166.546       94.167       55.912        0.290        0.016       73.902        6.863        0.009      332.491        1.188      868.457
11/30/2013  00:24:00      -60.117      -20.073       -3.305       10.766       13.475        6.933      115.912      181.565       48.068        0.219        0.017       63.380        5.187        0.007      332.402        1.042      868.452
11/30/2013  00:25:00      -45.836      -14.941       -3.355        8.074        9.048        6.924       65.196       81.871       47.947        0.127        0.010       48.210        4.625        0.009      332.426        1.081      868.439
11/30/2013  00:26:00      -37.120      -15.983       -3.228        8.377        9.638        5.540       70.180       92.892       30.691        0.092        0.010       40.415        2.672        0.004      332.507        1.215      868.433
11/30/2013  00:27:00      -60.282      -29.176       -7.138       11.602       12.366        8.089      134.614      152.926       65.435        0.244        0.018       66.971        2.433        0.001      332.514        1.226      868.428
11/30/2013  00:28:00      -82.494      -25.581       -9.394       16.061       13.894        9.758      257.967      193.031       95.221        0.405        0.027       86.369        8.416        0.009      332.471        1.155      868.420
11/30/2013  00:29:00     -102.156       -3.971       -8.724       18.164       12.902       11.722      329.927      166.450      137.396        0.558        0.032      102.234       11.317        0.012      332.403        1.043      868.413
11/30/2013  00:30:00      -92.745       -4.780       -7.281       27.979       13.712       12.701      782.821      188.031      161.305        0.490        0.057       92.868        9.603        0.011      332.449        1.119      868.408
11/30/2013  00:31:00     -109.828       -7.248       -8.723       18.638       11.219       11.598      347.377      125.858      134.524        0.640        0.030      110.067        9.289        0.007      332.487        1.183      868.403
11/30/2013  00:32:00      -99.632      -18.851       -6.893       15.545       12.900       10.728      241.633      166.415      115.098        0.543        0.026      101.400        8.927        0.008      332.427        1.084      868.402
11/30/2013  00:33:00     -115.003      -15.043      -10.654       18.540       10.510        9.565      343.725      110.462       91.493        0.706        0.027      115.982        8.851        0.006      332.493        1.190      868.411
11/30/2013  00:34:00     -107.380      -12.910      -12.672       18.323       11.392       11.160      335.737      129.769      124.546        0.622        0.030      108.153        9.911        0.008      332.371        0.990      868.421
11/30/2013  00:35:00     -115.445       -9.875      -17.850        7.990        8.285        7.084       63.840       68.648       50.188        0.696        0.009      115.866        2.336        0.000      332.419        1.069      868.426
11/30/2013  00:36:00     -114.633      -12.400      -12.915       16.976       12.381        9.885      288.200      153.286       97.718        0.700        0.027      115.301        9.999        0.008      332.345        0.946      868.437
11/30/2013  00:37:00     -116.933      -14.575      -11.534       23.086       14.075       15.793      532.966      198.098      249.414        0.750        0.049      117.838       13.439        0.013      332.269        0.821      868.448
11/30/2013  00:38:00      -85.172      -34.231       -6.255       25.052       25.026       21.094      627.624      626.319      444.969        0.508        0.085       91.794       14.693        0.026      332.125        0.584      868.453
11/30/2013  00:39:00     -125.767      -16.754       -7.295       23.872       21.892       15.379      569.852      479.250      236.523        0.872        0.064      126.878       13.100        0.011      332.049        0.460      868.469
11/30/2013  00:40:00      -73.926      -13.496       -8.239       30.145       25.587       17.797      908.724      654.676      316.747        0.380        0.094       75.148       14.464        0.037      332.068        0.492      868.479
11/30/2013  00:41:00      -90.612       -9.101       -3.238       35.121       26.528       20.426     1233.457      703.726      417.238        0.533        0.118       91.068       17.829        0.038      332.098        0.540      868.490
11/30/2013  00:42:00      -52.338       -1.232       -0.205       57.047       27.297       24.060     3254.307      745.133      578.907        0.366        0.229       52.352       27.225        0.270      332.108        0.557      868.495
11/30/2013  00:43:00     -148.960      -13.230      -10.847       41.409       31.334       21.477     1714.670      981.823      461.252        1.282        0.158      149.546       22.111        0.022      332.080        0.510      868.492
11/30/2013  00:44:00     -135.333      -28.422       -7.659       50.135       51.177       23.092     2513.480     2619.123      533.248        1.242        0.283      138.286       23.734        0.029      331.991        0.364      868.488
11/30/2013  00:45:00      -94.863      -41.077        5.380       37.697       38.275       23.566     1421.098     1464.994      555.366        0.708        0.172      103.375       19.584        0.036      331.900        0.212      868.486
11/30/2013  00:46:00      -69.455      -38.683       -1.649       52.727       30.083       21.168     2780.098      904.981      448.065        0.523        0.207       79.501       13.406        0.028      331.939        0.277      868.479
11/30/2013  00:47:00      -68.892      -31.660      -13.597       31.142       27.260       17.994      969.808      743.111      323.780        0.398        0.102       75.819       14.242        0.035      331.958        0.310      868.480
11/30/2013  00:48:00      -98.192      -32.791      -20.359       25.896       25.937       18.390      670.617      672.736      338.186        0.641        0.084      103.523       17.746        0.029      332.021        0.413      868.478
11/30/2013  00:49:00      -98.077      -33.773      -15.452       13.589       21.568       12.689      184.666      465.159      161.003        0.590        0.041      103.729        8.708        0.007      332.004        0.386      868.471
11/30/2013  00:50:00      -89.975      -36.225      -12.090       19.378       18.451       12.805      375.502      340.434      163.975        0.522        0.044       96.994        3.506        0.001      331.991        0.363      868.467
11/30/2013  00:51:00     -107.772      -33.766      -10.533       12.158       12.435        8.119      147.826      154.634       65.926        0.662        0.018      112.938        3.358        0.001      332.002        0.383      868.461
11/30/2013  00:52:00     -110.557      -25.654       -9.780       16.621       16.387       12.273      276.256      268.529      150.616        0.684        0.035      113.495        9.521        0.007      332.036        0.438      868.464
11/30/2013  00:53:00     -133.933      -34.205      -18.056       11.998        9.110       11.004      143.957       82.993      121.089        0.989        0.017      138.232        3.519        0.001      332.121        0.578      868.457
11/30/2013  00:54:00     -126.414      -35.751      -14.329       11.278       13.052       12.197      127.191      170.356      148.771        0.896        0.022      131.372        6.114        0.002      332.135        0.602      868.435
11/30/2013  00:55:00     -103.386      -19.982      -10.175       25.704       17.758       17.435      660.695      315.335      303.979        0.624        0.064      105.299       16.200        0.024      332.148        0.624      868.419
11/30/2013  00:56:00      -88.043      -10.956       -2.359       29.790       17.293       12.820      887.440      299.042      164.359        0.461        0.068       88.722       13.316        0.023      332.066        0.488      868.422
11/30/2013  00:57:00     -126.931       -8.730       -9.267       35.923       19.331       20.335     1290.436      373.706      413.504        0.918        0.104      127.231       19.708        0.024      331.990        0.361      868.422
11/30/2013  00:58:00     -149.060       -2.748      -12.898       31.879       15.042       13.472     1016.277      226.268      181.488        1.191        0.071      149.085       13.686        0.008      331.982        0.347      868.417
11/30/2013  00:59:00     -134.290      -16.846       -9.384       21.730       15.017       13.742      472.194      225.524      188.838        0.965        0.044      135.343       12.045        0.008      331.893        0.202      868.427
11/30/2013  01:00:00     -104.827      -19.148       -8.672       31.230       18.705       13.599      975.344      349.894      184.930        0.647        0.076      106.561       12.064        0.013      331.862        0.152      868.443
11/30/2013  01:01:00     -121.845      -26.208      -10.674       24.047       15.615       11.626      578.278      243.826      135.158        0.830        0.048      124.631       10.702        0.007      331.919        0.245      868.448
11/30/2013  01:02:00     -114.788      -24.116       -9.021       27.904       16.832       16.105      778.632      283.330      259.357        0.758        0.066      117.294       15.298        0.017      332.016        0.405      868.447
11/30/2013  01:03:00      -95.324      -35.536        2.992       27.284       21.235       15.764      744.430      450.926      248.496        0.590        0.072      101.732       14.232        0.020      331.955        0.303      868.448
11/30/2013  01:04:00      -93.195      -33.248        0.411       30.862       22.088       15.234      952.484      487.897      232.060        0.573        0.084       98.949       14.198        0.021      332.022        0.413      868.439
11/30/2013  01:05:00      -91.689      -42.682        4.510       36.101       22.101       19.499     1303.251      488.457      380.228        0.621        0.109      101.137       17.832        0.031      332.090        0.527      868.426
11/30/2013  01:06:00     -105.006      -44.737        4.047       32.101       23.383       18.266     1030.446      546.785      333.644        0.748        0.096      114.139       15.750        0.019      332.052        0.464      868.416
11/30/2013  01:07:00     -114.689      -46.474       -1.241       29.183       29.602       15.283      851.655      876.299      233.585        0.864        0.098      123.747       13.585        0.012      332.031        0.428      868.421
11/30/2013  01:08:00     -132.152      -43.206       -2.242       26.959       22.810       16.739      726.787      520.291      280.178        1.043        0.076      139.036       14.255        0.011      331.916        0.240      868.422
11/30/2013  01:09:00     -150.276      -59.872      -14.643       16.337       15.764       12.130      266.904      248.503      147.131        1.352        0.033      161.764        4.698        0.001      331.890        0.196      868.428
11/30/2013  01:10:00     -138.581      -55.447      -14.776       24.902       18.974       18.203      620.126      360.022      331.366        1.190        0.066      149.261       13.257        0.008      331.832        0.102      868.423
11/30/2013  01:11:00     -117.762       -1.930      -10.453       58.281       28.730       24.256     3396.703      825.385      588.373        0.939        0.241      117.777       26.870        0.052      331.766       -0.006      868.421
11/30/2013  01:12:00     -112.153      -26.611       -3.301       54.375       32.051       22.988     2956.595     1027.266      528.455        0.890        0.226      115.267       26.474        0.053      331.756       -0.023      868.415
11/30/2013  01:13:00      -95.355      -52.554       -9.044       46.906       48.716       21.644     2200.146     2373.224      468.442        0.849        0.252      108.878       21.310        0.038      331.759       -0.019      868.409
11/30/2013  01:14:00      -72.794      -39.109       -0.377       44.336       21.117       21.143     1965.656      445.937      447.019        0.484        0.143       82.635        7.604        0.008      331.755       -0.025      868.390
11/30/2013  01:15:00      -91.218      -48.938      -11.635       33.932       23.984       18.786     1151.384      575.219      352.931        0.646        0.104      103.517       15.112        0.021      331.779        0.014      868.380
11/30/2013  01:16:00      -85.699      -47.108       -9.794       33.714       24.219       14.772     1136.634      586.552      218.204        0.580        0.097       97.793        9.593        0.010      331.821        0.083      868.379
11/30/2013  01:17:00     -108.872      -47.725      -14.591       14.743       11.544       12.067      217.344      133.257      145.615        0.742        0.025      118.873        8.283        0.005      331.880        0.180      868.383
11/30/2013  01:18:00     -110.564      -33.202      -10.682       14.310       17.775       13.290      204.770      315.953      176.618        0.707        0.035      115.442        9.948        0.007      331.949        0.294      868.377
11/30/2013  01:19:00     -113.980      -32.544      -13.513        9.670       11.453        9.093       93.503      131.167       82.675        0.727        0.015      118.535        4.868        0.002      331.970        0.328      868.369
11/30/2013  01:20:00     -121.906      -37.009      -14.633       16.379       13.861       11.904      268.285      192.128      141.705        0.852        0.030      127.400        5.856        0.002      331.930        0.263      868.375
11/30/2013  01:21:00     -140.530      -33.025      -23.712       16.530        9.930       11.712      273.252       98.608      137.165        1.096        0.025      144.359        9.263        0.004      331.891        0.199      868.368
11/30/2013  01:22:00     -139.743      -26.956      -15.188       24.983       16.338       19.535      624.165      266.941      381.612        1.088        0.064      142.320       15.423        0.012      331.832        0.101      868.359
11/30/2013  01:23:00     -120.602      -55.029      -12.611       16.096       13.828       11.370      259.086      191.210      129.268        0.916        0.029      132.563        4.542        0.001      331.910        0.230      868.342
11/30/2013  01:24:00     -109.094      -55.947      -15.328       22.647       19.396       12.332      512.879      376.186      152.078        0.815        0.052      122.604       12.359        0.010      331.920        0.246      868.321
11/30/2013  01:25:00     -144.553      -37.602      -16.127       16.240       12.736       12.460      263.737      162.209      155.241        1.158        0.029      149.363        8.782        0.003      331.973        0.335      868.313
11/30/2013  01:26:00     -129.200      -36.589      -15.204       16.124       17.348       13.699      259.972      300.939      187.671        0.951        0.037      134.281        6.551        0.002      332.015        0.404      868.301
11/30/2013  01:27:00     -122.476      -31.739      -13.752       12.034       14.850       13.411      144.815      220.529      179.856        0.837        0.027      126.522        6.770        0.003      331.991        0.364      868.296
11/30/2013  01:28:00     -116.006      -28.619      -11.366       31.802       17.068       13.403     1011.368      291.309      179.645        0.794        0.074      119.485       14.378        0.014      331.913        0.234      868.295
11/30/2013  01:29:00     -123.413      -46.857       -3.660       28.584       22.973       16.099      817.053      527.768      259.165        0.952        0.080      132.009       15.538        0.014      331.877        0.176      868.299
11/30/2013  01:30:00     -136.052      -63.377       -5.229       32.346       29.411       18.483     1046.285      865.000      341.616        1.240        0.113      150.090       17.460        0.014      331.913        0.234      868.294
11/30/2013  01:31:00     -135.030      -59.027      -16.172       18.158       23.818       19.260      329.695      567.316      370.936        1.162        0.063      147.368        9.693        0.004      331.790        0.034      868.287
11/30/2013  01:32:00     -149.105      -25.595      -20.978       19.651       33.054       18.068      386.159     1092.551      326.438        1.257        0.090      151.286       10.779        0.005      331.733       -0.060      868.277
11/30/2013  01:33:00     -116.367      -20.755       -5.700       51.830       29.622       24.102     2686.368      877.482      580.903        0.907        0.207      118.203       28.062        0.056      331.674       -0.159      868.278
11/30/2013  01:34:00      -91.321      -15.204       -1.400       44.613       35.974       21.785     1990.301     1294.162      474.602        0.617        0.188       92.578       22.871        0.061      331.670       -0.165      868.271
11/30/2013  01:35:00      -90.813       -1.021       -2.690       50.812       39.959       25.395     2581.874     1596.753      644.918        0.654        0.241       90.819       21.468        0.056      331.669       -0.166      868.261
11/30/2013  01:36:00     -143.194       14.367      -12.529       40.210       35.624       27.697     1616.849     1269.059      767.131        1.226        0.183      143.913       22.946        0.025      331.740       -0.050      868.260
11/30/2013  01:37:00     -150.207       -5.569      -11.351       38.445       47.802       30.870     1478.037     2285.070      952.977        1.372        0.236      150.311       22.704        0.023      331.760       -0.017      868.278
11/30/2013  01:38:00     -148.695      -10.900      -12.964       52.917       49.109       31.100     2800.217     2411.652      967.197        1.429        0.309      149.094       32.191        0.047      331.796        0.041      868.303
11/30/2013  01:39:00     -152.860      -14.333      -22.217       43.918       45.512       22.989     1928.795     2071.343      528.502        1.430        0.226      153.531       18.196        0.014      331.786        0.026      868.309
11/30/2013  01:40:00     -108.327      -12.136      -14.355       37.803       43.044       26.306     1429.030     1852.761      692.003        0.803        0.199      109.005       21.710        0.040      331.838        0.110      868.308
11/30/2013  01:41:00      -70.460      -42.710        1.364       46.174       39.590       26.918     2132.054     1567.344      724.603        0.561        0.221       82.394       23.912        0.084      331.817        0.077      868.301
11/30/2013  01:42:00     -107.505      -71.726       -1.294       54.637       40.394       26.755     2985.206     1631.699      715.811        1.102        0.267      129.236       27.319        0.045      331.799        0.047      868.295
11/30/2013  01:43:00     -115.527      -25.068       -3.455       43.329       33.073       26.283     1877.379     1093.831      690.800        0.882        0.183      118.216       23.673        0.040      331.743       -0.045      868.291
11/30/2013  01:44:00     -150.075       -8.891      -12.194       58.714       42.228       25.001     3447.336     1783.198      625.049        1.430        0.293      150.338       28.964        0.037      331.771        0.001      868.297
11/30/2013  01:45:00     -134.447      -25.648      -17.711       41.047       43.149       26.259     1684.829     1861.843      689.523        1.164        0.212      136.871       24.193        0.031      331.817        0.077      868.317
11/30/2013  01:46:00     -139.386      -39.418      -17.991       48.093       32.510       19.246     2312.976     1056.931      370.428        1.252        0.187      144.852       13.261        0.008      331.824        0.088      868.332
11/30/2013  01:47:00     -143.335      -39.672      -10.051       41.301       38.616       23.103     1705.786     1491.187      533.752        1.297        0.187      148.724       19.268        0.017      331.865        0.157      868.340
11/30/2013  01:48:00     -181.677      -17.934      -19.172       31.477       37.753       17.603      990.832     1425.315      309.871        1.821        0.136      182.560       15.472        0.007      331.948        0.292      868.355
11/30/2013  01:49:00      -79.003      -27.604        4.515       65.638       52.708       21.972     4308.315     2778.136      482.760        0.730        0.378       83.687       21.295        0.065      331.894        0.204      868.361
11/30/2013  01:50:00      -79.442      -16.063        1.550       42.783       30.166       22.930     1830.416      910.003      525.775        0.492        0.163       81.050       24.859        0.094      331.892        0.201      868.365
11/30/2013  01:51:00      -88.771      -31.910       -7.158       24.398       22.508       15.253      595.267      506.630      232.657        0.514        0.067       94.332       10.143        0.012      331.988        0.358      868.367
11/30/2013  01:52:00      -95.693      -42.838       -2.114       26.104       27.101       15.171      681.433      734.438      230.164        0.632        0.082      104.844       15.746        0.023      332.014        0.401      868.377
11/30/2013  01:53:00      -57.292      -41.577        0.270       30.197       26.138       17.858      911.866      683.172      318.895        0.346        0.096       70.788       16.999        0.058      332.057        0.472      868.380
11/30/2013  01:54:00      -93.645      -61.843       -3.446       32.045       31.138       19.435     1026.913      969.599      377.735        0.749        0.119      112.222        9.496        0.007      332.104        0.549      868.386
11/30/2013  01:55:00      -96.501      -71.465       -4.190       42.743       39.473       22.863     1826.976     1558.120      522.718        0.917        0.195      120.082       22.127        0.034      332.188        0.689      868.392
11/30/2013  01:56:00     -102.599      -50.725        0.684       52.951       25.130       21.496     2803.827      631.541      462.066        0.850        0.195      114.454       20.336        0.032      332.235        0.767      868.405
11/30/2013  01:57:00     -110.113      -60.285        3.927       33.169       24.216       18.249     1100.174      586.409      333.044        0.890        0.101      125.536       11.049        0.008      332.108        0.557      868.398
11/30/2013  01:58:00     -101.570      -41.823       -5.083       16.810       12.249       10.363      282.559      150.030      107.399        0.632        0.027      109.844        4.966        0.002      332.014        0.399      868.390
11/30/2013  01:59:00      -93.687      -26.457       -9.084       17.211       17.411       13.830      296.232      303.146      191.263        0.518        0.040       97.351       11.186        0.013      331.981        0.346      868.388
11/30/2013  02:00:00      -99.105      -40.536       -8.387       15.972       16.590       12.162      255.097      275.233      147.923        0.611        0.034      107.075        7.704        0.005      331.968        0.325      868.394
11/30/2013  02:01:00      -96.082      -45.524       -9.395        8.656       14.087        8.675       74.919      198.453       75.257        0.587        0.017      106.321        7.250        0.005      331.962        0.312      868.399
11/30/2013  02:02:00      -93.188      -34.577       -7.034       12.106       11.444       10.523      146.565      130.967      110.732        0.516        0.019       99.396        6.708        0.005      331.975        0.337      868.399
11/30/2013  02:03:00      -80.105      -29.722       -7.655       13.608       15.165        9.779      185.164      229.978       95.621        0.393        0.026       85.441        6.362        0.006      331.924        0.253      868.399
11/30/2013  02:04:00      -82.911      -36.959       -2.588       17.906       15.375        9.046      320.617      236.404       81.836        0.444        0.032       90.776        4.582        0.003      331.915        0.236      868.399
11/30/2013  02:05:00      -89.654      -35.265       -9.118        8.388        9.003        6.895       70.360       81.060       47.545        0.478        0.010       96.341        1.663        0.000      331.965        0.320      868.404
11/30/2013  02:06:00      -83.535      -25.043      -15.219        8.892       11.093        7.067       79.061      123.048       49.937        0.404        0.013       87.208        3.395        0.002      331.975        0.335      868.416
11/30/2013  02:07:00      -94.607      -12.728      -16.379       10.724        7.982        9.057      114.995       63.711       82.027        0.482        0.013       95.459        7.338        0.006      331.990        0.362      868.407
11/30/2013  02:08:00     -100.324       -7.060      -19.432        6.197        5.743        5.223       38.408       32.984       27.276        0.530        0.005      100.572        2.464        0.001      332.048        0.458      868.395
11/30/2013  02:09:00      -89.730       -7.394      -14.250        4.822        7.469       10.826       23.256       55.787      117.210        0.425        0.010       90.034        3.402        0.001      332.037        0.440      868.382
11/30/2013  02:10:00      -72.205      -20.444      -10.984       12.842       11.742        7.830      164.918      137.879       61.308        0.306        0.018       75.043        5.044        0.005      331.962        0.315      868.374
11/30/2013  02:11:00      -66.945      -16.598      -11.862        8.304        6.497        6.482       68.951       42.208       42.014        0.253        0.008       68.972        3.322        0.002      331.990        0.362      868.368
11/30/2013  02:12:00      -62.896      -15.768       -7.221       11.815       10.272        8.316      139.596      105.516       69.151        0.229        0.016       64.843        6.877        0.011      332.007        0.390      868.368
11/30/2013  02:13:00      -53.149      -15.910       -6.749        9.963       11.135        8.221       99.265      123.988       67.584        0.171        0.015       55.480        5.222        0.009      331.954        0.302      868.381
11/30/2013  02:14:00      -50.227       -9.477       -6.558       10.498        7.595        8.690      110.203       57.687       75.518        0.145        0.012       51.113        5.957        0.014      331.924        0.252      868.391
11/30/2013  02:15:00      -33.158       -4.399       -2.994        7.938       10.968        5.627       63.018      120.303       31.662        0.067        0.011       33.448        3.487        0.011      331.891        0.198      868.396
11/30/2013  02:16:00      -34.367        0.292       -2.727       10.408        5.282        7.094      108.326       27.901       50.330        0.069        0.009       34.369        2.826        0.007      331.869        0.163      868.408
11/30/2013  02:17:00      -44.890        1.030       -3.314        6.792        5.011        5.979       46.136       25.112       35.744        0.107        0.005       44.902        2.105        0.002      331.910        0.229      868.413
11/30/2013  02:18:00      -39.426      -13.568       -4.870       16.506        6.964        5.629      272.436       48.497       31.687        0.106        0.018       41.695        6.125        0.022      331.924        0.252      868.411
11/30/2013  02:19:00      -48.950       -4.578       -3.445       10.626        7.237        8.671      112.919       52.380       75.190        0.133        0.012       49.163        3.669        0.006      331.873        0.170      868.404
11/30/2013  02:20:00      -29.215        0.835       -6.599       10.533        5.060        5.378      110.951       25.605       28.919        0.053        0.008       29.227        4.396        0.023      331.836        0.109      868.403
11/30/2013  02:21:00      -42.768       -0.600       -6.011       13.693        6.162        7.024      187.512       37.968       49.340        0.107        0.014       42.772        7.017        0.027      331.829        0.097      868.404
11/30/2013  02:22:00      -54.823        3.148       -8.760        9.204        7.632        7.954       84.708       58.242       63.273        0.165        0.010       54.914        3.608        0.004      331.838        0.110      868.413
11/30/2013  02:23:00      -52.636        3.834       -6.709       13.398       11.191        8.092      179.514      125.242       65.479        0.160        0.019       52.775        6.162        0.014      331.815        0.071      868.425
11/30/2013  02:24:00      -58.467        0.273       -9.087        9.810       11.240        9.641       96.231      126.337       92.942        0.191        0.016       58.468        5.501        0.009      331.792        0.034      868.434
11/30/2013  02:25:00      -61.492      -11.989       -8.269       12.656       12.312       10.471      160.173      151.589      109.646        0.221        0.021       62.649        7.452        0.014      331.743       -0.046      868.443
11/30/2013  02:26:00      -74.158      -28.176      -14.035        9.236       15.335        9.983       85.299      235.159       99.664        0.346        0.021       79.330        6.828        0.007      331.690       -0.131      868.446
11/30/2013  02:27:00      -65.780      -28.592      -15.732       27.640       17.033       12.443      763.982      290.115      154.824        0.330        0.060       71.725        8.725        0.015      331.563       -0.342      868.444
11/30/2013  02:28:00      -65.671      -36.109       -5.514       28.765       21.607       16.512      827.435      466.876      272.661        0.361        0.078       74.943       15.192        0.041      331.517       -0.416      868.443
11/30/2013  02:29:00      -79.315      -21.399       -0.893       28.401       29.764       21.451      806.596      885.903      460.129        0.445        0.108       82.151       17.964        0.048      331.463       -0.506      868.432
11/30/2013  02:30:00      -57.676      -28.488        2.606       20.636       19.948       12.976      425.849      397.925      168.367        0.257        0.050       64.328        9.317        0.021      331.436       -0.551      868.414
11/30/2013  02:31:00      -61.326       -3.420       -0.705       25.908       24.303       14.633      671.237      590.628      214.133        0.262        0.074       61.421       10.483        0.029      331.473       -0.491      868.397
11/30/2013  02:32:00      -31.958       15.855       -2.937       14.290       13.508        8.235      204.201      182.461       67.812        0.087        0.023       35.675        3.995        0.013      331.551       -0.360      868.385
11/30/2013  02:33:00      -14.842        0.217       -5.093       10.013        4.755        7.258      100.257       22.607       52.672        0.021        0.009       14.843        2.578        0.030      331.615       -0.256      868.379
11/30/2013  02:34:00      -18.646        1.263       -7.179        5.776        4.735        5.632       33.361       22.421       31.721        0.024        0.004       18.688        1.955        0.011      331.674       -0.158      868.378
11/30/2013  02:35:00      -34.886      -11.843       -7.259       17.203       12.327        8.468      295.928      151.952       71.710        0.096        0.026       36.841        6.272        0.029      331.673       -0.158      868.371
11/30/2013  02:36:00      -58.088       -6.242       -8.232       17.995       11.210       10.824      323.821      125.656      117.170        0.202        0.028       58.423        4.248        0.005      331.655       -0.189      868.354
11/30/2013  02:37:00      -68.802       -7.953      -13.054        9.933        7.965        5.956       98.672       63.436       35.470        0.258        0.010       69.261        2.784        0.002      331.537       -0.385      868.344
11/30/2013  02:38:00      -69.859       -9.444      -11.390       11.276        7.753        7.983      127.138       60.116       63.730        0.268        0.013       70.494        4.416        0.004      331.494       -0.456      868.338
11/30/2013  02:39:00      -57.150       -3.337       -6.715        7.488        5.135        6.277       56.065       26.365       39.401        0.172        0.006       57.247        2.893        0.003      331.551       -0.361      868.338
11/30/2013  02:40:00      -48.743       -9.760      -11.127        6.698        8.312        7.502       44.861       69.087       56.276        0.138        0.009       49.711        2.840        0.003      331.637       -0.220      868.342
11/30/2013  02:41:00      -53.478      -19.580       -7.004        8.614       10.536        9.042       74.197      111.007       81.763        0.178        0.013       56.950        4.090        0.005      331.505       -0.439      868.340
11/30/2013  02:42:00      -48.191      -15.975       -9.148        7.352        7.683        6.177       54.050       59.036       38.151        0.141        0.008       50.770        2.542        0.003      331.538       -0.384      868.336
11/30/2013  02:43:00      -51.124       -6.884      -11.744        8.883       12.996       10.413       78.904      168.888      108.426        0.158        0.018       51.585        7.062        0.019      331.713       -0.093      868.336
11/30/2013  02:44:00      -57.720       -8.167      -18.495       15.304       11.929        8.934      234.204      142.296       79.811        0.210        0.023       58.295        9.170        0.025      331.756       -0.023      868.333
11/30/2013  02:45:00      -41.844      -16.993       -7.611        8.688       14.747        9.317       75.488      217.481       86.815        0.124        0.019       45.163        5.971        0.017      331.861        0.150      868.333
11/30/2013  02:46:00      -36.479      -20.279       -7.772        7.743        9.713       10.949       59.961       94.344      119.880        0.104        0.014       41.737        6.753        0.026      331.874        0.171      868.334
11/30/2013  02:47:00      -12.811      -20.360        3.382        9.195       15.396        9.005       84.553      237.051       81.095        0.050        0.020       24.056        9.716        0.163      331.747       -0.039      868.351
11/30/2013  02:48:00       -8.851      -14.159       -0.279        8.161        7.660        8.475       66.595       58.677       71.834        0.024        0.010       16.698        4.368        0.068      331.703       -0.110      868.364
11/30/2013  02:49:00      -14.340      -24.696       -2.669        8.011        9.940        8.307       64.171       98.807       69.013        0.053        0.012       28.557        5.372        0.035      331.734       -0.060      868.380
11/30/2013  02:50:00      -14.685       -9.989        0.775       12.845        9.536       11.264      164.999       90.928      126.885        0.035        0.019       17.761        8.239        0.215      331.625       -0.239      868.397
11/30/2013  02:51:00      -18.049      -14.022        2.775       20.268       11.417        9.686      410.787      130.357       93.827        0.058        0.032       22.856       10.634        0.216      331.536       -0.387      868.411
11/30/2013  02:52:00      -20.307      -24.753      -14.838       12.955        9.282        6.563      167.829       86.156       43.072        0.077        0.015       32.017        2.784        0.008      331.716       -0.089      868.415
11/30/2013  02:53:00      -17.101      -15.327       -0.012        7.355        9.509       10.795       54.091       90.419      116.537        0.039        0.013       22.964        6.617        0.083      332.081        0.511      868.412
11/30/2013  02:54:00      -51.116      -17.393      -10.076       18.362        6.468        5.754      337.149       41.841       33.111        0.171        0.021       53.994        3.018        0.003      331.677       -0.153      868.398
11/30/2013  02:55:00      -70.874      -34.158       -6.308       13.654        9.084        8.894      186.434       82.526       79.096        0.329        0.017       78.676        1.927        0.001      331.543       -0.375      868.400
11/30/2013  02:56:00      -93.701      -28.030      -12.644       11.717       13.144       10.301      137.295      172.774      106.103        0.507        0.021       97.803        6.050        0.004      331.530       -0.395      868.391
11/30/2013  02:57:00      -93.179      -17.276      -10.633       13.295       16.955       11.029      176.765      287.463      121.647        0.484        0.029       94.767        7.490        0.006      331.492       -0.459      868.382
11/30/2013  02:58:00      -87.369      -40.593       -5.686       16.675       15.940       11.139      278.046      254.080      124.082        0.498        0.033       96.339        8.478        0.008      331.549       -0.364      868.371
11/30/2013  02:59:00      -46.123      -30.486       -2.537       12.262       12.000        8.600      150.362      143.997       73.961        0.172        0.018       55.288        3.500        0.004      331.615       -0.255      868.355
11/30/2013  03:00:00      -46.721      -17.993       -5.378        9.609        8.546        5.205       92.342       73.036       27.094        0.136        0.010       50.066        3.010        0.004      331.722       -0.079      868.338
11/30/2013  03:01:00      -44.477      -15.487       -6.576        6.578        8.003        4.691       43.268       64.052       22.002        0.120        0.006       47.096        3.279        0.005      331.834        0.105      868.327
11/30/2013  03:02:00      -55.467      -15.014      -14.264       16.375       11.229        5.965      268.132      126.083       35.577        0.197        0.021       57.463        3.434        0.004      331.805        0.055      868.328
11/30/2013  03:03:00      -75.490      -19.375      -14.633       10.998       10.467        9.245      120.955      109.551       85.474        0.330        0.016       77.937        5.370        0.005      331.763       -0.011      868.335
11/30/2013  03:04:00      -65.776      -21.690       -8.040        8.227        9.960        8.422       67.680       99.208       70.935        0.255        0.012       69.260        3.001        0.002      331.710       -0.097      868.342
11/30/2013  03:05:00      -55.377      -25.279       -7.983        6.224        7.782        5.177       38.742       60.562       26.804        0.195        0.006       60.874        2.649        0.002      331.755       -0.025      868.348
11/30/2013  03:06:00      -61.039      -20.450       -8.876        9.070        8.186        7.888       82.271       67.016       62.220        0.222        0.011       64.374        4.580        0.005      331.780        0.015      868.355
11/30/2013  03:07:00      -74.264      -38.045      -10.743       10.370       15.676        6.606      107.535      245.741       43.638        0.374        0.020       83.442        4.850        0.003      331.808        0.062      868.359
11/30/2013  03:08:00      -88.841      -27.893      -14.556       11.392       15.056        8.832      129.781      226.669       77.999        0.466        0.022       93.117        6.849        0.005      331.778        0.011      868.362
11/30/2013  03:09:00     -126.012      -27.327       -7.676       28.074       23.262       17.316      788.176      541.128      299.834        0.916        0.081      128.941       13.891        0.012      331.612       -0.260      868.375
11/30/2013  03:10:00     -111.265      -24.055       -1.450       23.154       22.272       16.267      536.092      496.053      264.601        0.713        0.065      113.836       12.033        0.011      331.467       -0.500      868.389
11/30/2013  03:11:00      -88.574      -25.212        5.190       36.738       19.249       16.992     1349.682      370.531      288.714        0.526        0.100       92.093       18.629        0.041      331.506       -0.435      868.402
11/30/2013  03:12:00      -79.123      -35.792       -0.506       31.876       18.888       14.575     1016.065      356.757      212.416        0.456        0.079       86.842       15.142        0.030      331.593       -0.292      868.422
11/30/2013  03:13:00      -97.100      -36.739       -5.270       22.778       22.145       13.288      518.856      490.411      176.563        0.600        0.059      103.818       15.447        0.022      331.566       -0.335      868.432
11/30/2013  03:14:00     -107.215      -37.134       -6.473       15.062       18.029       13.283      226.857      325.048      176.430        0.682        0.036      113.463        9.989        0.008      331.600       -0.279      868.434
11/30/2013  03:15:00      -77.477      -28.816       -6.687       10.882        8.751        8.199      118.426       76.585       67.226        0.357        0.013       82.662        4.900        0.004      331.700       -0.113      868.423
11/30/2013  03:16:00      -84.645      -39.502       -3.527       12.190       10.133        9.824      148.589      102.668       96.505        0.454        0.017       93.409        7.476        0.006      331.689       -0.131      868.416
11/30/2013  03:17:00      -89.943      -26.208       -1.580       23.319       23.412       15.453      543.790      548.127      238.801        0.505        0.067       93.683       14.794        0.025      331.632       -0.227      868.418
11/30/2013  03:18:00      -82.181      -20.392       -8.657       14.689       14.145       13.525      215.757      200.092      182.919        0.392        0.030       84.674        9.535        0.013      331.608       -0.266      868.429
11/30/2013  03:19:00      -73.687      -51.976      -12.076       21.028       16.623       13.921      442.191      276.334      193.803        0.459        0.046       90.174       11.876        0.017      331.545       -0.372      868.446
11/30/2013  03:20:00      -74.607      -54.710       -5.902       23.613       16.554       16.484      557.584      274.022      271.718        0.485        0.055       92.517       13.112        0.020      331.498       -0.449      868.460
11/30/2013  03:21:00      -98.949      -42.234      -11.527       18.985       14.617       13.123      360.431      213.648      172.225        0.623        0.037      107.585        9.844        0.008      331.559       -0.348      868.462
11/30/2013  03:22:00     -109.027      -35.686      -13.560       16.214       18.191        8.088      262.896      330.915       65.411        0.700        0.033      114.718        2.596        0.001      331.580       -0.316      868.456
11/30/2013  03:23:00     -109.374      -27.866       -9.102       17.650       20.500       10.238      311.513      420.251      104.807        0.683        0.042      112.868        8.747        0.006      331.599       -0.282      868.444
11/30/2013  03:24:00      -79.158      -27.832       -7.847       20.812       19.956       10.942      433.128      398.246      119.728        0.403        0.048       83.909        4.970        0.004      331.547       -0.367      868.444
11/30/2013  03:25:00      -59.424      -10.429       -7.856       13.504       15.133       10.091      182.347      228.994      101.823        0.211        0.026       60.332        7.815        0.017      331.501       -0.443      868.439
11/30/2013  03:26:00      -58.590      -28.683       -6.342       18.396       11.402        7.403      338.425      130.005       54.802        0.241        0.026       65.234        6.908        0.011      331.529       -0.397      868.440
11/30/2013  03:27:00      -55.780      -26.434       -0.638       35.736       13.557       11.662     1277.058      183.788      135.995        0.270        0.080       61.727       15.029        0.059      331.572       -0.326      868.453
11/30/2013  03:28:00      -74.419      -12.471       -9.189       17.086       14.385       11.803      291.939      206.934      139.319        0.321        0.032       75.457        9.705        0.017      331.586       -0.303      868.454
11/30/2013  03:29:00      -99.131      -17.930      -16.151        6.919       11.639        7.412       47.870      135.459       54.939        0.532        0.012      100.740        4.088        0.002      331.635       -0.223      868.454
11/30/2013  03:30:00     -112.208      -34.878      -14.064        9.753       13.122        6.324       95.128      172.190       39.992        0.716        0.015      117.504        5.186        0.002      331.642       -0.208      868.451
11/30/2013  03:31:00     -125.953      -49.745      -10.962       10.431        9.489        7.261      108.801       90.040       52.716        0.936        0.013      135.420        3.065        0.001      331.644       -0.209      868.456
11/30/2013  03:32:00     -114.950      -51.005       -3.748       19.994       14.848       14.906      399.760      220.468      222.201        0.834        0.042      125.758       14.597        0.013      331.598       -0.284      868.450
11/30/2013  03:33:00      -88.659      -17.823       -7.703       31.492       22.011       13.504      991.716      484.487      182.364        0.495        0.083       90.432       13.332        0.022      331.606       -0.270      868.455
11/30/2013  03:34:00     -119.517        0.262      -15.899       13.901       13.753       10.773      193.250      189.152      116.067        0.752        0.025      119.517        5.719        0.002      331.542       -0.376      868.463
11/30/2013  03:35:00     -126.365        3.999      -17.353       20.357       16.750       13.471      414.419      280.570      181.459        0.858        0.044      126.428       11.185        0.008      331.526       -0.403      868.466
11/30/2013  03:36:00      -81.310       -8.635      -12.807       18.798       18.406       11.581      353.382      338.790      134.118        0.384        0.041       81.767        8.508        0.011      331.453       -0.524      868.464
11/30/2013  03:37:00      -91.510      -17.670      -12.086       15.953       18.148       14.918      254.502      329.350      222.547        0.482        0.040       93.200        8.547        0.008      331.379       -0.645      868.463
11/30/2013  03:38:00      -73.135       -3.296       -4.709       38.042       28.743       17.092     1447.168      826.182      292.139        0.397        0.128       73.209       13.694        0.035      331.316       -0.747      868.459
11/30/2013  03:39:00      -66.219       14.442      -10.440       22.633       19.443       14.643      512.265      378.049      214.414        0.290        0.055       67.775        6.884        0.010      331.387       -0.631      868.449
11/30/2013  03:40:00      -27.363       -1.557       -3.251        7.503        4.949        8.892       56.289       24.492       79.061        0.046        0.008       27.408        6.594        0.058      331.602       -0.278      868.435
11/30/2013  03:41:00       -7.351        0.997       -2.901        6.703        8.439        4.559       44.925       71.210       20.788        0.010        0.007        7.418        3.629        0.239      331.773        0.003      868.424
11/30/2013  03:42:00        5.948       18.775       -5.793        8.445       17.545        9.575       71.325      307.837       91.681        0.045        0.024       19.695        3.101        0.025      332.095        0.535      868.413
11/30/2013  03:43:00       31.348       16.685        9.315       10.703       13.526        7.716      114.547      182.963       59.530        0.085        0.018       35.512        6.373        0.032      332.134        0.600      868.411
11/30/2013  03:44:00       34.338        9.851        7.038       11.980        7.451        5.313      143.521       55.521       28.233        0.078        0.011       35.723        2.573        0.005      332.089        0.524      868.405
11/30/2013  03:45:00       20.070        2.744        5.359       10.757        5.170        3.845      115.703       26.727       14.781        0.030        0.008       20.257        3.471        0.029      332.195        0.701      868.412
11/30/2013  03:46:00      -10.448      -13.069        1.709       11.173       13.459        6.703      124.831      181.150       44.936        0.032        0.018       16.732        2.478        0.022      331.983        0.350      868.414
11/30/2013  03:47:00       -4.143        2.214        3.580        7.971        7.149        6.089       63.529       51.113       37.078        0.009        0.008        4.697        5.193        1.222      331.797        0.042      868.424
11/30/2013  03:48:00      -28.431        0.531       -1.986       16.145        5.291        5.855      260.669       27.996       34.275        0.057        0.016       28.436        7.048        0.061      331.848        0.128      868.445
11/30/2013  03:49:00      -52.037       -0.655       -5.211       10.880        9.249        8.869      118.369       85.541       78.657        0.151        0.014       52.041        5.523        0.011      331.578       -0.317      868.468
11/30/2013  03:50:00      -61.637       -5.269      -13.007        9.155        8.679        8.191       83.817       75.320       67.094        0.211        0.011       61.862        7.205        0.014      331.620       -0.248      868.483
11/30/2013  03:51:00      -55.403      -17.671      -10.424       12.545        8.421        8.653      157.367       70.907       74.874        0.190        0.015       58.153        3.836        0.004      331.675       -0.155      868.498
11/30/2013  03:52:00      -17.263      -16.060       -1.017       11.343        8.111        6.860      128.675       65.785       47.057        0.040        0.012       23.578        5.882        0.062      331.652       -0.194      868.508
11/30/2013  03:53:00      -41.056      -19.938       -9.155       11.521        5.064        4.706      132.741       25.640       22.145        0.117        0.009       45.642        5.438        0.014      331.767       -0.006      868.520
11/30/2013  03:54:00      -52.744      -14.371       -8.238        7.969        8.215        4.569       63.497       67.489       20.875        0.160        0.008       54.667        2.669        0.002      331.741       -0.047      868.543
11/30/2013  03:55:00      -47.653       -7.686       -2.449       10.425        7.919        6.424      108.677       62.718       41.263        0.127        0.011       48.268        4.297        0.008      331.671       -0.163      868.562
11/30/2013  03:56:00      -40.507       -5.637       -9.216       16.192        6.916        8.422      262.178       47.833       70.925        0.107        0.019       40.898        5.793        0.020      331.852        0.134      868.582
11/30/2013  03:57:00      -26.548        3.767       -2.418        8.606        8.365        4.151       74.060       69.973       17.228        0.044        0.008       26.814        2.670        0.010      331.926        0.257      868.601
11/30/2013  03:58:00      -42.863       -5.564       -3.158       10.309        8.941        7.132      106.282       79.937       50.863        0.106        0.012       43.223        4.144        0.009      331.703       -0.113      868.613
11/30/2013  03:59:00      -54.446      -15.573       -6.759       12.262       10.556        9.512      150.365      111.433       90.484        0.180        0.018       56.630        6.058        0.011      331.708       -0.104      868.625
11/30/2013  04:00:00      -68.372      -18.002       -7.927       11.293       13.044        8.311      127.537      170.157       69.079        0.271        0.018       70.702        4.153        0.003      331.570       -0.331      868.625
11/30/2013  04:01:00      -48.125        0.189       -6.812       12.382       14.332        8.364      153.304      205.399       69.952        0.140        0.021       48.126        6.971        0.021      331.539       -0.382      868.619
11/30/2013  04:02:00      -52.151        4.853      -10.706       13.447       11.684        7.952      180.819      136.524       63.241        0.162        0.019       52.376        4.654        0.008      331.590       -0.298      868.613
11/30/2013  04:03:00      -44.677       -3.014       -5.171       23.643       14.672        9.184      558.979      215.260       84.342        0.145        0.043       44.778        5.824        0.017      331.613       -0.259      868.611
11/30/2013  04:04:00      -48.822      -10.509       -7.914       25.555       11.537        8.678      653.063      133.106       75.311        0.171        0.043       49.941        4.899        0.010      331.502       -0.443      868.616
11/30/2013  04:05:00      -53.499       -7.476       -8.186       12.388       19.509        9.187      153.451      380.589       84.398        0.180        0.031       54.019        3.956        0.005      331.485       -0.470      868.631
11/30/2013  04:06:00      -40.140        2.672       -3.725       13.232        8.729        7.488      175.081       76.202       56.078        0.097        0.015       40.229        4.986        0.015      331.453       -0.523      868.644
11/30/2013  04:07:00      -21.582        0.358       -0.678        8.352        7.956        4.895       69.758       63.303       23.965        0.031        0.008       21.585        3.407        0.025      331.372       -0.655      868.660
11/30/2013  04:08:00      -44.160        9.229       -5.665        8.954        8.625        5.354       80.182       74.394       28.668        0.113        0.009       45.114        3.937        0.008      331.374       -0.652      868.665
11/30/2013  04:09:00      -51.085        6.238        3.713       14.842       18.217       11.403      220.283      331.867      130.032        0.167        0.034       51.464       10.224        0.039      331.443       -0.539      868.679
11/30/2013  04:10:00      -34.873       -7.353        2.124       18.570       10.888       10.365      344.858      118.538      107.433        0.092        0.029       35.640        9.188        0.066      331.375       -0.651      868.695
11/30/2013  04:11:00      -69.013      -29.768        7.061       23.265       26.783       12.453      541.264      717.334      155.068        0.356        0.071       75.159        9.693        0.017      331.377       -0.647      868.704
11/30/2013  04:12:00      -91.659      -36.907        2.401       30.253       23.261       16.416      915.251      541.086      269.485        0.575        0.086       98.811       16.963        0.029      331.367       -0.664      868.721
11/30/2013  04:13:00     -120.828      -65.691       -0.393       41.899       36.851       24.065     1755.543     1357.966      579.129        1.130        0.185      137.531       14.878        0.012      331.438       -0.548      868.735
11/30/2013  04:14:00      -77.755      -33.198        4.690       40.697       26.219       22.652     1656.267      687.443      513.136        0.501        0.143       84.545       21.524        0.065      331.311       -0.755      868.748
11/30/2013  04:15:00      -57.808      -33.981        2.788       40.490       31.648       18.936     1639.454     1001.569      358.576        0.375        0.150       67.056       20.093        0.090      331.392       -0.622      868.760
11/30/2013  04:16:00      -41.609      -31.891        2.485       30.267       22.659       13.236      916.121      513.433      175.191        0.218        0.080       52.425        8.897        0.029      331.424       -0.570      868.763
11/30/2013  04:17:00      -16.954       -7.243       -8.823       21.250       18.898       13.596      451.553      357.145      184.854        0.071        0.050       18.436        8.355        0.205      331.455       -0.520      868.762
11/30/2013  04:18:00      -50.196       -0.085       -2.946       11.591        8.744        8.008      134.343       76.460       64.135        0.140        0.014       50.196        7.253        0.021      331.436       -0.550      868.761
11/30/2013  04:19:00      -75.854       -6.481       -7.921       24.169       12.361       11.454      584.122      152.788      131.199        0.336        0.043       76.131       12.935        0.029      331.400       -0.610      868.764
11/30/2013  04:20:00      -75.377      -15.015        0.379       20.889       18.747       11.936      436.371      351.453      142.470        0.342        0.047       76.858        9.450        0.015      331.311       -0.756      868.771
11/30/2013  04:21:00      -70.345      -23.143        2.669       34.528       22.384       14.659     1192.155      501.031      214.878        0.370        0.095       74.055       13.929        0.035      331.240       -0.872      868.783
11/30/2013  04:22:00      -99.160      -37.927       -0.628       28.395       20.777       16.186      806.273      431.682      261.991        0.639        0.075      106.165       15.365        0.021      331.144       -1.031      868.786
11/30/2013  04:23:00     -126.487      -30.012       -7.613       20.374       17.846       13.567      415.104      318.484      184.055        0.894        0.046      129.999        9.757        0.006      331.090       -1.120      868.779
11/30/2013  04:24:00     -109.223      -14.641       -9.396       33.709       20.072       17.975     1136.302      402.881      323.099        0.705        0.093      110.200       20.036        0.033      331.060       -1.170      868.769
11/30/2013  04:25:00      -69.943      -20.715        2.013       30.362       23.882       17.259      921.866      570.332      297.869        0.356        0.090       72.946       17.600        0.058      331.118       -1.072      868.750
11/30/2013  04:26:00      -35.206      -15.020        4.436       22.019       19.295       13.673      484.823      372.300      186.960        0.126        0.052       38.277       11.823        0.095      331.181       -0.969      868.737
11/30/2013  04:27:00      -60.088      -12.585        4.032       26.606       20.612       12.623      707.873      424.844      159.337        0.254        0.065       61.392       14.132        0.053      331.224       -0.898      868.734
11/30/2013  04:28:00      -54.276      -14.002        1.495       28.724       24.671       14.673      825.063      608.661      215.294        0.240        0.082       56.053       12.007        0.046      331.205       -0.931      868.739
11/30/2013  04:29:00      -99.172      -19.934       -2.336       26.908       17.921       13.949      724.016      321.148      194.578        0.574        0.062      101.156       14.206        0.020      331.201       -0.937      868.758
11/30/2013  04:30:00      -83.114      -10.900       -0.408       40.566       29.826       20.727     1645.582      889.602      429.610        0.500        0.148       83.826       22.553        0.072      331.076       -1.144      868.774
11/30/2013  04:31:00      -97.118      -23.761       -0.066       30.840       17.711       16.635      951.104      313.690      276.707        0.577        0.077       99.983       14.411        0.021      331.072       -1.149      868.780
11/30/2013  04:32:00      -47.008        7.837       -2.055       38.289       22.409       15.098     1466.070      502.184      227.953        0.224        0.110       47.657       13.762        0.083      331.076       -1.142      868.778
11/30/2013  04:33:00      -53.387       -0.450       -7.551       19.470       14.262       10.738      379.096      203.414      115.308        0.180        0.035       53.389        9.569        0.032      331.141       -1.036      868.772
11/30/2013  04:34:00      -50.346       -0.651      -15.033       15.321       13.078        9.398      234.743      171.046       88.323        0.163        0.025       50.350        6.144        0.015      331.166       -0.994      868.771
11/30/2013  04:35:00      -30.650       10.667      -16.071       21.675       22.823       12.405      469.796      520.893      153.879        0.123        0.057       32.453        8.511        0.069      331.284       -0.799      868.759
11/30/2013  04:36:00      -42.381       16.148      -10.778       36.502       25.877       17.697     1332.414      669.604      313.171        0.224        0.116       45.353       16.413        0.131      331.366       -0.664      868.741
11/30/2013  04:37:00      -64.302       -3.313       -6.383       46.966       33.045       23.317     2205.835     1091.968      543.667        0.401        0.192       64.388       24.068        0.140      331.342       -0.703      868.730
11/30/2013  04:38:00      -94.840       -6.390      -12.704       44.662       31.281       17.710     1994.673      978.471      313.654        0.624        0.164       95.055       18.880        0.039      331.276       -0.814      868.726
11/30/2013  04:39:00     -110.147       11.764      -12.708       41.498       36.917       20.980     1722.056     1362.856      440.144        0.798        0.176      110.774       14.137        0.016      331.200       -0.938      868.734
11/30/2013  04:40:00     -101.757        3.072      -15.810       34.433       33.608       20.350     1185.649     1129.528      414.142        0.667        0.136      101.803       16.721        0.027      331.166       -0.994      868.751
11/30/2013  04:41:00     -113.072        0.033       -2.690       39.657       38.870       20.114     1572.715     1510.913      404.565        0.814        0.174      113.072       18.147        0.026      331.200       -0.940      868.766
11/30/2013  04:42:00     -105.653      -21.820      -12.852       37.721       36.145       23.381     1422.894     1306.428      546.682        0.754        0.164      107.882       13.952        0.017      331.086       -1.126      868.777
11/30/2013  04:43:00     -132.217      -38.232      -27.995       45.389       25.189       26.920     2060.179      634.465      724.707        1.157        0.171      137.633       20.204        0.022      331.030       -1.218      868.775
11/30/2013  04:44:00     -152.688      -14.373      -14.453       30.499       27.624       15.599      930.196      763.099      243.329        1.283        0.097      153.363       13.742        0.008      331.073       -1.147      868.768
11/30/2013  04:45:00     -104.511        2.686      -13.070       35.472       22.503       15.043     1258.272      506.392      226.300        0.655        0.100      104.545       18.165        0.030      331.133       -1.049      868.767
11/30/2013  04:46:00     -116.911       18.878      -19.795       27.243       39.611       17.254      742.159     1569.028      297.712        0.851        0.130      118.426       17.046        0.021      331.194       -0.946      868.763
11/30/2013  04:47:00     -109.951      -16.646       -4.689       33.076       29.519       19.599     1094.004      871.346      384.130        0.737        0.117      111.204       16.956        0.023      331.189       -0.956      868.751
11/30/2013  04:48:00      -93.594      -12.585      -13.818       27.088       36.719       16.112      733.743     1348.248      259.582        0.572        0.117       94.437        9.144        0.009      331.224       -0.897      868.743
11/30/2013  04:49:00      -87.881      -11.590      -10.956       34.723       40.337       20.964     1205.695     1627.070      439.497        0.562        0.164       88.642       18.113        0.042      331.232       -0.884      868.735
11/30/2013  04:50:00     -107.247       22.812       -4.925       36.889       35.533       17.854     1360.787     1262.566      318.780        0.749        0.147      109.646       15.782        0.021      331.273       -0.818      868.739
11/30/2013  04:51:00     -102.317       29.926       -9.148       40.091       32.882       21.806     1607.263     1081.240      475.506        0.731        0.158      106.603       17.611        0.027      331.562       -0.344      868.739
11/30/2013  04:52:00      -84.755       33.371       -8.961       37.912       32.343       18.849     1437.316     1046.052      355.297        0.561        0.142       91.088       14.451        0.025      331.644       -0.208      868.734
11/30/2013  04:53:00      -78.448       21.200      -13.580       29.995       34.715       20.708      899.687     1205.117      428.824        0.466        0.127       81.262       21.492        0.070      331.556       -0.353      868.723
11/30/2013  04:54:00      -68.662      -38.951      -17.440       15.953       15.763       17.394      254.483      248.457      302.534        0.367        0.040       78.941       10.971        0.019      331.417       -0.581      868.724
11/30/2013  04:55:00     -100.273      -30.228      -19.608       19.808       15.635       13.906      392.348      244.453      193.383        0.609        0.042      104.730        4.635        0.002      331.159       -1.006      868.736
11/30/2013  04:56:00     -105.971      -47.475       -7.541       23.138       30.025       15.475      535.373      901.510      239.470        0.761        0.084      116.119        9.445        0.007      331.138       -1.040      868.735
11/30/2013  04:57:00     -125.347       11.690      -13.799       28.734       32.898       18.965      825.633     1082.285      359.664        0.915        0.113      125.891       13.520        0.012      331.294       -0.782      868.726
11/30/2013  04:58:00      -81.459        8.020       -6.187       39.067       24.680       16.925     1526.194      609.096      286.459        0.458        0.121       81.853       11.414        0.019      331.269       -0.823      868.720
11/30/2013  04:59:00      -91.730      -14.084      -18.764       38.176       25.727       16.182     1457.409      661.894      261.846        0.567        0.119       92.804       14.699        0.025      331.285       -0.797      868.712
11/30/2013  05:00:00     -106.957      -32.424       -0.871       29.658       35.762       20.008      879.582     1278.954      400.331        0.752        0.128      111.764       15.167        0.018      331.199       -0.940      868.700
11/30/2013  05:01:00      -99.180      -19.674       -5.200       57.363       34.745       21.379     3290.482     1207.193      457.061        0.760        0.248      101.112       25.013        0.061      331.206       -0.929      868.690
11/30/2013  05:02:00      -72.464        6.713       -4.406       60.161       31.302       22.543     3619.310      979.796      508.174        0.521        0.255       72.774       24.111        0.110      331.216       -0.912      868.685
11/30/2013  05:03:00      -89.643        1.365       -4.345       41.591       37.716       22.309     1729.838     1422.531      497.670        0.585        0.183       89.654       20.301        0.051      331.234       -0.881      868.678
11/30/2013  05:04:00     -127.450       -0.691      -11.330       28.097       27.276       13.637      789.424      743.953      185.976        0.905        0.086      127.452       11.173        0.008      331.319       -0.742      868.683
11/30/2013  05:05:00     -108.855       -5.364       -8.961       39.986       24.772       18.383     1598.880      613.640      337.937        0.725        0.128      108.988       18.398        0.028      331.270       -0.822      868.687
11/30/2013  05:06:00     -110.585      -24.432      -11.001       25.034       21.996       19.875      626.681      483.805      395.000        0.723        0.075      113.252       18.188        0.026      331.263       -0.834      868.703
11/30/2013  05:07:00      -89.961      -11.984       -4.295       24.688       21.409       17.201      609.501      458.341      295.870        0.481        0.068       90.755       12.623        0.019      331.293       -0.784      868.721
11/30/2013  05:08:00      -98.796      -30.408      -11.297       23.049       15.380       13.129      531.269      236.557      172.374        0.588        0.047      103.370       10.140        0.010      331.328       -0.726      868.730
11/30/2013  05:09:00      -68.129      -28.667       -6.023       20.949       15.531       11.386      438.878      241.200      129.646        0.315        0.040       73.915        8.685        0.014      331.421       -0.575      868.736
11/30/2013  05:10:00      -94.915      -14.880      -13.781       14.893       17.830       12.642      221.801      317.896      159.826        0.506        0.035       96.074        7.380        0.006      331.386       -0.633      868.737
11/30/2013  05:11:00      -75.487      -16.529       -9.229       16.632       16.378       14.129      276.611      268.224      199.616        0.340        0.037       77.275       10.347        0.018      331.405       -0.602      868.740
11/30/2013  05:12:00      -78.043      -35.705       -6.405       15.988       14.951        9.429      255.629      223.530       88.911        0.399        0.028       85.823        7.358        0.007      331.333       -0.719      868.739
11/30/2013  05:13:00      -82.741      -28.976      -10.858       19.968       13.032        9.292      398.726      169.825       86.335        0.423        0.033       87.668        6.931        0.006      331.394       -0.620      868.730
11/30/2013  05:14:00      -58.514      -33.507       -4.604       13.983       13.259        8.197      195.514      175.812       67.196        0.250        0.022       67.428        2.018        0.001      331.425       -0.569      868.722
11/30/2013  05:15:00      -79.273      -17.322      -10.086       12.484       15.939        8.659      155.839      254.049       74.982        0.359        0.024       81.144        4.844        0.004      331.486       -0.469      868.722
11/30/2013  05:16:00      -75.043       -6.373      -11.328       18.822        8.770       11.507      354.250       76.916      132.404        0.318        0.028       75.313       10.163        0.018      331.504       -0.437      868.726
11/30/2013  05:17:00     -105.711       -0.498      -12.267       14.151        9.772        8.857      200.253       95.485       78.455        0.585        0.019      105.713        6.078        0.003      331.515       -0.421      868.725
11/30/2013  05:18:00     -105.932        3.347      -12.268       15.122       13.411       10.693      228.690      179.857      114.332        0.595        0.026      105.985        2.746        0.001      331.497       -0.449      868.728
11/30/2013  05:19:00      -91.400      -15.184       -5.906       33.597       19.026       13.281     1128.771      361.981      176.377        0.514        0.083       92.653       13.328        0.021      331.484       -0.473      868.723
11/30/2013  05:20:00      -64.112      -43.718       -0.543       33.289       27.017       15.437     1108.166      729.935      238.311        0.405        0.104       77.599       14.542        0.035      331.536       -0.385      868.727
11/30/2013  05:21:00      -65.989      -35.489       -0.294       26.225       23.778       15.214      687.751      565.383      231.474        0.355        0.074       74.927       12.249        0.027      331.521       -0.412      868.727
11/30/2013  05:22:00      -51.031      -25.670       -9.404       27.603       13.609        9.610      761.921      185.205       92.359        0.220        0.052       57.123        8.268        0.021      331.471       -0.492      868.721
11/30/2013  05:23:00      -83.066      -22.024       -5.358       12.957       16.125        9.828      167.895      260.030       96.595        0.397        0.026       85.936        6.257        0.005      331.513       -0.424      868.715
11/30/2013  05:24:00      -89.020      -23.467       -7.005       13.581       12.478       11.633      184.431      155.704      135.329        0.450        0.024       92.061        4.261        0.002      331.534       -0.390      868.713
11/30/2013  05:25:00      -78.274      -25.658       -1.740       17.117       14.859       12.881      292.978      220.800      165.929        0.373        0.034       82.372       10.773        0.017      331.547       -0.370      868.707
11/30/2013  05:26:00      -92.031      -22.069       -6.817       19.732       11.766       10.209      389.341      138.439      104.224        0.482        0.032       94.640        7.819        0.007      331.556       -0.352      868.710
11/30/2013  05:27:00      -86.891      -15.468       -4.881       17.997       12.885        9.782      323.902      166.035       95.693        0.420        0.029       88.257        8.105        0.008      331.472       -0.493      868.705
11/30/2013  05:28:00      -75.443       -7.271       -5.288       22.809       13.863       11.566      520.269      192.172      133.778        0.331        0.042       75.793       13.168        0.030      331.382       -0.639      868.708
11/30/2013  05:29:00      -83.016       -5.280       -6.707       23.757       11.513       14.211      564.417      132.539      201.942        0.393        0.045       83.184       14.828        0.032      331.365       -0.666      868.710
11/30/2013  05:30:00      -94.154       -4.764       -4.294       27.293       12.585       15.220      744.928      158.382      231.651        0.502        0.057       94.275       15.968        0.029      331.373       -0.652      868.727
11/30/2013  05:31:00     -121.529       -0.351      -13.811       15.017       12.631       10.857      225.512      159.530      117.872        0.773        0.025      121.530        4.404        0.001      331.379       -0.643      868.742
11/30/2013  05:32:00     -114.764      -15.411      -15.677       16.489       16.662       12.267      271.900      277.606      150.485        0.718        0.035      115.794        7.181        0.004      331.368       -0.661      868.751
11/30/2013  05:33:00     -116.876      -13.364      -15.737       18.318       12.606       10.348      335.534      158.919      107.089        0.734        0.030      117.638        9.828        0.007      331.359       -0.676      868.755
11/30/2013  05:34:00      -88.129      -18.179      -11.037       37.788       15.211       16.465     1427.942      231.388      271.095        0.507        0.097       89.984       19.280        0.046      331.329       -0.725      868.758
11/30/2013  05:35:00      -88.808      -10.987      -12.410       20.060       12.531       11.448      402.389      157.019      131.060        0.443        0.035       89.485        8.950        0.010      331.364       -0.668      868.753
11/30/2013  05:36:00      -81.112       -1.839       -7.043       23.917       14.288       11.765      572.035      204.144      138.412        0.377        0.046       81.133       10.018        0.015      331.382       -0.640      868.746
11/30/2013  05:37:00      -66.191        4.011       -5.201       19.214       19.187       14.106      369.169      368.153      198.981        0.268        0.047       66.312       11.482        0.030      331.405       -0.602      868.731
11/30/2013  05:38:00      -77.880        3.533      -10.001       14.021       13.028       11.110      196.584      169.732      123.440        0.333        0.024       77.960        6.425        0.007      331.470       -0.495      868.724
11/30/2013  05:39:00      -60.635       -7.817       -3.134       19.495       12.696        8.707      380.061      161.185       75.814        0.218        0.031       61.137        7.883        0.017      331.479       -0.480      868.717
11/30/2013  05:40:00      -56.411      -13.692       -8.276       13.606        9.515        7.852      185.121       90.539       61.646        0.189        0.017       58.049        5.695        0.010      331.452       -0.525      868.715
11/30/2013  05:41:00      -48.691       -4.592       -2.291       12.129        9.703        6.817      147.123       94.149       46.473        0.134        0.014       48.907        6.110        0.016      331.483       -0.474      868.724
11/30/2013  05:42:00      -30.512       -2.752       -8.873       10.115        4.262        4.384      102.309       18.163       19.223        0.058        0.007       30.636        3.540        0.013      331.461       -0.512      868.735
11/30/2013  05:43:00      -16.159       -3.477       -2.962        6.215        3.881        4.251       38.625       15.062       18.074        0.018        0.004       16.529        3.866        0.055      331.478       -0.486      868.737
11/30/2013  05:44:00      -24.746       -1.396       -4.561       11.125        2.860        4.250      123.762        8.178       18.060        0.039        0.008       24.786        4.987        0.040      331.460       -0.512      868.738
11/30/2013  05:45:00      -47.254       -2.227       -7.600        9.575        3.777        5.207       91.673       14.268       27.115        0.121        0.007       47.306        3.613        0.006      331.463       -0.505      868.741
11/30/2013  05:46:00      -48.666      -16.939       -3.614       10.826       10.930        7.133      117.210      119.456       50.876        0.148        0.014       51.530        4.234        0.007      331.451       -0.526      868.735
11/30/2013  05:47:00      -43.102      -18.397       -4.662       16.671       11.400        9.948      277.935      129.963       98.971        0.136        0.025       46.864        8.579        0.034      331.405       -0.601      868.739
11/30/2013  05:48:00      -64.442      -15.581       -2.938       13.908       10.549        6.153      193.438      111.282       37.857        0.237        0.017       66.299        4.201        0.004      331.397       -0.615      868.744
11/30/2013  05:49:00      -65.958      -11.180       -1.508       21.016       15.086       11.604      441.665      227.597      134.653        0.264        0.040       66.899       10.620        0.025      331.382       -0.640      868.739
11/30/2013  05:50:00      -89.619      -10.773       -5.536       20.770       15.894       13.912      431.404      252.634      193.552        0.453        0.044       90.264       11.818        0.017      331.308       -0.761      868.745
11/30/2013  05:51:00      -70.702      -24.646        1.149       25.005       26.458       15.748      625.248      700.009      248.014        0.359        0.079       74.875       14.464        0.037      331.299       -0.774      868.749
11/30/2013  05:52:00      -78.944      -53.019        4.448       39.565       31.233       17.730     1565.376      975.472      314.355        0.596        0.143       95.096       19.101        0.040      331.380       -0.643      868.746
11/30/2013  05:53:00      -93.348      -64.900        3.281       23.247       23.175       15.256      540.430      537.079      232.759        0.712        0.066      113.692       12.516        0.012      331.410       -0.593      868.751
11/30/2013  05:54:00     -100.358      -36.825       -1.949       20.909       16.754       15.783      437.207      280.707      249.096        0.620        0.048      106.901       10.462        0.010      331.424       -0.569      868.752
11/30/2013  05:55:00      -61.737      -16.160        2.469       22.756       18.047       13.211      517.854      325.710      174.525        0.255        0.051       63.817        6.307        0.010      331.425       -0.568      868.751
11/30/2013  05:56:00      -20.194      -14.066        1.742       24.525       15.692        8.715      601.489      246.233       75.952        0.077        0.046       24.610        8.843        0.129      331.397       -0.614      868.757
11/30/2013  05:57:00      -69.934      -36.198       -6.627       14.560       17.391        9.019      212.003      302.444       81.335        0.342        0.030       78.747        4.236        0.003      331.496       -0.452      868.772
11/30/2013  05:58:00      -99.438      -27.554       -9.666       15.307       13.091        8.739      234.311      171.382       76.373        0.561        0.024      103.185        6.127        0.004      331.432       -0.557      868.782
11/30/2013  05:59:00      -80.933      -18.785       -5.884       16.256       11.763        9.250      264.254      138.364       85.566        0.371        0.024       83.085        7.212        0.008      331.438       -0.547      868.789
11/30/2013  06:00:00      -79.268      -22.506       -5.977       16.162       17.882       11.595      261.199      319.771      134.438        0.377        0.036       82.401        9.211        0.012      331.375       -0.650      868.805
11/30/2013  06:01:00      -89.278      -34.697       -3.602       17.263       17.670       10.937      298.005      312.225      119.621        0.496        0.036       95.783        8.159        0.007      331.420       -0.578      868.826
11/30/2013  06:02:00      -67.585      -19.121       -9.082       16.630       16.064       13.410      276.571      258.044      179.831        0.287        0.036       70.238       10.729        0.023      331.394       -0.620      868.844
11/30/2013  06:03:00      -74.319       -7.984      -11.446        9.226        9.564       10.006       85.118       91.479      100.118        0.300        0.014       74.746        2.858        0.001      331.343       -0.702      868.853
11/30/2013  06:04:00      -93.600       -6.034      -11.388       15.591       11.280        8.879      243.089      127.244       78.843        0.469        0.022       93.794        4.609        0.002      331.302       -0.770      868.864
11/30/2013  06:05:00     -121.182      -10.149      -19.932       14.232       12.870        9.847      202.544      165.626       96.964        0.783        0.023      121.607        1.595        0.000      331.235       -0.881      868.881
11/30/2013  06:06:00      -98.035        1.816       -8.722       27.026       17.608       16.841      730.391      310.030      283.615        0.551        0.066       98.052       14.956        0.023      331.176       -0.978      868.902
11/30/2013  06:07:00      -61.862       -8.834       -4.161       53.115       22.296       18.422     2821.209      497.100      339.367        0.379        0.183       62.489       27.404        0.192      331.152       -1.018      868.917
11/30/2013  06:08:00       -6.102      -13.248        4.670       18.449       18.100       10.182      340.367      327.603      103.669        0.050        0.039       14.586        8.590        0.347      331.137       -1.042      868.922
11/30/2013  06:09:00        3.538       -3.105        0.972       12.110       14.113       15.811      146.650      199.191      249.983        0.031        0.030        4.707        8.690        3.408      331.229       -0.889      868.929
11/30/2013  06:10:00      -20.144      -11.400        1.832       15.050       12.986        8.912      226.514      168.640       79.422        0.051        0.024       23.146        3.762        0.026      331.262       -0.835      868.935
11/30/2013  06:11:00      -28.394      -14.322       -1.109       12.173        9.888        6.848      148.192       97.779       46.890        0.065        0.015       31.801        4.972        0.024      331.339       -0.709      868.949
11/30/2013  06:12:00      -42.530       18.992       -4.213       25.826       17.928        9.967      666.983      321.399       99.344        0.164        0.054       46.578        7.333        0.025      331.473       -0.489      868.976
11/30/2013  06:13:00      -65.720        0.810       -5.057       14.785       15.270        8.809      218.594      233.185       77.595        0.244        0.026       65.725        3.684        0.003      331.391       -0.624      869.000
11/30/2013  06:14:00      -50.915       -7.078       -8.261       14.081       10.159        9.626      198.286      103.198       92.665        0.155        0.020       51.405        9.197        0.032      331.359       -0.676      869.016
11/30/2013  06:15:00      -39.840       -6.798       -7.589       12.154       11.704       14.469      147.721      136.989      209.352        0.109        0.025       40.415        9.031        0.050      331.450       -0.528      869.030
11/30/2013  06:16:00      -38.336       -5.920      -10.799       15.676       13.179        9.712      245.745      173.695       94.329        0.107        0.026       38.790        5.508        0.020      331.511       -0.427      869.037
11/30/2013  06:17:00      -31.411      -15.214        1.138       13.119        9.969        8.736      172.101       99.390       76.316        0.078        0.017       34.901        5.427        0.024      331.453       -0.524      869.055
11/30/2013  06:18:00      -57.305      -22.978      -13.378       11.297       12.119        9.250      127.627      146.861       85.569        0.218        0.018       61.740        6.923        0.013      331.457       -0.516      869.069
11/30/2013  06:19:00      -67.439      -26.539      -14.536       14.191       13.113        9.097      201.379      171.962       82.747        0.296        0.023       72.473        5.939        0.007      331.294       -0.782      869.094
11/30/2013  06:20:00      -69.686      -23.337       -9.778       11.882       12.414        7.548      141.177      154.114       56.972        0.292        0.018       73.490        4.601        0.004      331.219       -0.906      869.121
11/30/2013  06:21:00      -37.832      -18.637       -3.583       14.602        4.844        6.036      213.223       23.465       36.438        0.103        0.014       42.173        5.558        0.017      331.325       -0.733      869.148
11/30/2013  06:22:00       -4.109      -14.503       -4.266       14.779        8.809        7.741      218.430       77.592       59.927        0.030        0.018       15.073        4.948        0.108      331.498       -0.449      869.159
11/30/2013  06:23:00      -13.225       -8.231       -4.203        7.228        5.937        6.608       52.243       35.248       43.669        0.020        0.007       15.578        3.048        0.038      331.605       -0.272      869.170
11/30/2013  06:24:00       -3.573      -11.806       -3.604        5.387        8.951        4.246       29.019       80.120       18.028        0.015        0.006       12.335        3.088        0.063      331.564       -0.340      869.181
11/30/2013  06:25:00      -41.676      -20.475      -10.716       14.067        9.025        8.917      197.869       81.451       79.519        0.131        0.018       46.434        4.777        0.011      331.414       -0.587      869.193
11/30/2013  06:26:00      -72.965      -12.504       -6.830       12.689        9.961        6.505      161.018       99.218       42.315        0.291        0.015       74.028        5.070        0.005      331.283       -0.800      869.214
11/30/2013  06:27:00      -63.327      -17.992      -13.745       13.707        8.730        7.141      187.876       76.208       50.998        0.242        0.016       65.833        5.567        0.007      331.249       -0.856      869.229
11/30/2013  06:28:00      -79.378      -16.054       -9.631        9.281       12.062        8.152       86.128      145.486       66.459        0.347        0.015       80.985        3.087        0.001      331.173       -0.982      869.247
11/30/2013  06:29:00      -75.288      -13.405       -7.599        8.981        8.507        6.176       80.651       72.372       38.143        0.305        0.010       76.472        0.983        0.000      331.201       -0.936      869.264
11/30/2013  06:30:00      -65.551       -8.903       -4.747       10.548       10.604        9.519      111.262      112.452       90.618        0.236        0.016       66.153        6.379        0.009      331.208       -0.925      869.270
11/30/2013  06:31:00      -62.932       -7.242       -8.539        7.629        6.914        6.606       58.203       47.808       43.641        0.212        0.007       63.348        3.462        0.003      331.270       -0.823      869.291
11/30/2013  06:32:00      -48.487       -0.204       -7.639       10.187        9.802        9.142      103.771       96.085       83.569        0.135        0.014       48.487        6.911        0.020      331.280       -0.805      869.306
11/30/2013  06:33:00      -41.100      -15.218       -4.650        7.882        7.525        6.293       62.130       56.626       39.604        0.105        0.008       43.827        3.041        0.005      331.297       -0.777      869.325
11/30/2013  06:34:00      -34.117      -11.635       -5.022        7.543        9.592        5.349       56.895       92.012       28.609        0.075        0.009       36.047        1.444        0.002      331.331       -0.722      869.348
11/30/2013  06:35:00      -42.649        4.401       -7.138       12.544        6.431        5.573      157.359       41.353       31.060        0.106        0.011       42.876        2.453        0.003      331.320       -0.741      869.383
11/30/2013  06:36:00      -69.131      -17.302      -10.719        9.020        8.982        5.398       81.363       80.683       29.136        0.269        0.010       71.263        3.138        0.002      331.263       -0.833      869.410
11/30/2013  06:37:00      -67.348      -14.983       -8.681        9.454        8.947        6.657       89.386       80.040       44.312        0.252        0.011       68.995        2.917        0.002      331.188       -0.959      869.417
11/30/2013  06:38:00      -59.797       -3.982       -3.573       16.994       12.502        9.748      288.787      156.303       95.028        0.207        0.027       59.929        9.370        0.024      331.130       -1.054      869.425
11/30/2013  06:39:00      -54.725        0.269       -4.136       19.284       12.274        9.302      371.882      150.652       86.521        0.181        0.030       54.726        7.281        0.018      331.043       -1.197      869.427
11/30/2013  06:40:00      -34.936       -1.849       -5.897       11.660        8.046        6.304      135.946       64.737       39.746        0.075        0.012       34.985        5.659        0.026      331.071       -1.149      869.429
11/30/2013  06:41:00      -19.902       -4.256       -5.796        7.764        6.272        7.172       60.274       39.337       51.431        0.030        0.008       20.352        3.902        0.037      331.204       -0.931      869.426
11/30/2013  06:42:00       -5.816      -26.186       -1.651        9.403        9.085        8.850       88.425       82.536       78.320        0.049        0.012       26.824        7.026        0.069      331.309       -0.759      869.423
11/30/2013  06:43:00       -4.220      -18.121        3.669        9.453       11.907       10.960       89.351      141.771      120.131        0.036        0.018       18.605        4.553        0.060      331.385       -0.634      869.434
11/30/2013  06:44:00      -13.426        3.180        5.736        6.778        5.071        5.150       45.939       25.719       26.523        0.016        0.005       13.797        3.931        0.081      331.349       -0.694      869.451
11/30/2013  06:45:00        6.794       12.353        8.093       11.418        6.478        3.280      130.364       41.968       10.757        0.022        0.009       14.098        2.011        0.020      331.330       -0.723      869.469
11/30/2013  06:46:00       27.251       14.420        5.810        5.891        6.090        4.497       34.698       37.085       20.226        0.054        0.005       30.831        3.313        0.012      331.352       -0.688      869.480
11/30/2013  06:47:00        9.484        4.683        3.185       11.885       14.082        5.207      141.242      198.302       27.110        0.024        0.018       10.577        7.284        0.474      331.387       -0.629      869.485
11/30/2013  06:48:00      -20.891      -14.389       -5.968       21.188        8.342        7.327      448.950       69.582       53.681        0.063        0.029       25.367        3.604        0.020      331.411       -0.591      869.510
11/30/2013  06:49:00      -47.641      -16.644       -4.916       12.926       11.932        9.306      167.087      142.366       86.596        0.148        0.020       50.465        8.339        0.027      331.265       -0.830      869.520
11/30/2013  06:50:00      -60.716      -20.615       -5.425       12.750       10.817        7.668      162.550      117.007       58.793        0.224        0.017       64.121        4.827        0.006      331.230       -0.889      869.526
11/30/2013  06:51:00      -38.724       -8.771       -3.588       14.079       10.793        8.423      198.216      116.491       70.944        0.099        0.019       39.705        6.930        0.030      331.207       -0.926      869.525
11/30/2013  06:52:00      -38.081       -7.345       -0.317       15.123       14.769        8.626      228.714      218.111       74.408        0.101        0.026       38.782        5.986        0.024      331.197       -0.942      869.524
11/30/2013  06:53:00      -32.560      -12.351       -1.902        9.287        8.402        5.645       86.240       70.597       31.866        0.070        0.009       34.824        5.348        0.024      331.221       -0.905      869.520
11/30/2013  06:54:00      -58.414        1.249       -3.011       14.332       10.919        7.933      205.399      119.234       62.937        0.191        0.019       58.427        7.628        0.017      331.227       -0.894      869.524
11/30/2013  06:55:00      -67.432        4.733       -4.969       13.108        9.429        6.517      171.830       88.901       42.474        0.245        0.015       67.598        5.067        0.006      331.197       -0.944      869.527
11/30/2013  06:56:00      -43.025       -4.690        2.515       20.374       14.755        9.571      415.081      217.698       91.611        0.130        0.036       43.280        9.422        0.047      331.132       -1.050      869.519
11/30/2013  06:57:00       -4.596      -14.130        5.167       14.359       11.580        8.221      206.177      134.098       67.592        0.033        0.020       14.859        5.922        0.159      331.241       -0.873      869.503
11/30/2013  06:58:00       -1.301        1.533        8.973        6.522        5.816        4.346       42.538       33.825       18.883        0.009        0.005        2.010        3.466        2.972      331.272       -0.820      869.481
11/30/2013  06:59:00      -22.659        5.569       -7.786       12.628        6.469        6.420      159.471       41.853       41.211        0.042        0.012       23.333        7.352        0.099      331.362       -0.672      869.477
11/30/2013  07:00:00      -51.839       -2.714       -5.260       11.719        6.253        5.290      137.325       39.097       27.982        0.146        0.010       51.910        2.849        0.003      331.394       -0.620      869.488
11/30/2013  07:01:00      -65.935       -5.560       -6.314       11.318       15.255        7.253      128.100      232.725       52.603        0.242        0.021       66.169        3.115        0.002      331.309       -0.759      869.507
11/30/2013  07:02:00      -68.845      -13.883       -7.912       18.520       10.151       12.018      342.989      103.049      144.427        0.279        0.030       70.231       10.985        0.024      331.274       -0.814      869.506
11/30/2013  07:03:00      -63.452       -2.504       -4.843       15.004       11.126       12.190      225.133      123.786      148.598        0.228        0.025       63.502        9.690        0.023      331.223       -0.899      869.498
11/30/2013  07:04:00      -39.450       -7.431        2.073       16.948       10.214        8.413      287.232      104.317       70.779        0.104        0.023       40.143        4.837        0.015      331.232       -0.886      869.506
11/30/2013  07:05:00      -47.289      -22.256       -1.877       20.625       16.189        8.450      425.381      262.092       71.401        0.175        0.038       52.265        5.809        0.012      331.234       -0.881      869.512
11/30/2013  07:06:00      -30.018       -7.922        2.890       20.328       11.539       11.258      413.214      133.149      126.750        0.082        0.034       31.045       10.018        0.104      331.200       -0.937      869.520
11/30/2013  07:07:00      -15.789      -20.032        1.275        9.813       11.260        5.613       96.287      126.789       31.501        0.045        0.013       25.507        5.065        0.039      331.311       -0.755      869.533
11/30/2013  07:08:00       -6.672       -6.592        1.953        6.946       10.288        5.822       48.241      105.845       33.891        0.014        0.009        9.380        3.345        0.127      331.356       -0.682      869.556
11/30/2013  07:09:00      -10.974       -0.145        0.073        4.848        3.514        5.373       23.506       12.348       28.872        0.009        0.003       10.975        2.210        0.041      331.387       -0.630      869.583
11/30/2013  07:10:00       -9.118        3.431        5.321        9.847        4.296        3.975       96.969       18.458       15.801        0.013        0.007        9.742        4.782        0.241      331.369       -0.661      869.597
11/30/2013  07:11:00       18.083       19.214        5.400        6.406        9.396        9.044       41.033       88.286       81.796        0.047        0.011       26.385        8.295        0.099      331.313       -0.753      869.604
11/30/2013  07:12:00       12.810       32.918       -6.090        6.065        6.732        3.423       36.790       45.315       11.717        0.069        0.005       35.323        2.921        0.007      331.251       -0.853      869.606
11/30/2013  07:13:00        1.501       28.892       -4.303        3.327        5.887        3.231       11.071       34.657       10.437        0.046        0.003       28.931        1.902        0.004      331.306       -0.764      869.606
11/30/2013  07:14:00        8.536       22.941        1.523        5.327        8.057        3.946       28.376       64.920       15.571        0.036        0.005       24.478        2.600        0.011      331.346       -0.697      869.599
11/30/2013  07:15:00        9.610        5.038        0.818        5.438        9.888        5.529       29.574       97.779       30.565        0.014        0.008       10.850        4.829        0.198      331.372       -0.655      869.582
11/30/2013  07:16:00        7.450       -0.830        1.188        6.197        2.429        4.841       38.400        5.902       23.438        0.006        0.003        7.496        2.965        0.156      331.428       -0.562      869.560
11/30/2013  07:17:00      -15.422      -22.393       -2.024       10.931       15.966        5.948      119.486      254.898       35.381        0.058        0.020       27.190        7.099        0.068      331.434       -0.553      869.541
11/30/2013  07:18:00      -32.681       -8.959       -3.396       10.668        7.917        6.637      113.814       62.685       44.046        0.069        0.011       33.886        2.750        0.007      331.407       -0.598      869.534
11/30/2013  07:19:00      -23.283      -12.076       -1.401        9.012        6.161        4.050       81.214       37.952       16.404        0.041        0.007       26.229        3.075        0.014      331.436       -0.551      869.530
11/30/2013  07:20:00        2.833        5.253        3.591        9.742        9.730        4.690       94.898       94.669       21.999        0.013        0.011        5.968        4.615        0.598      331.565       -0.339      869.541
11/30/2013  07:21:00       21.347       19.389        7.724        8.706        9.538        9.904       75.798       90.974       98.085        0.058        0.013       28.838        8.079        0.078      331.402       -0.608      869.562
11/30/2013  07:22:00       10.303       30.385       -3.780       11.001       13.609        8.904      121.011      185.198       79.290        0.071        0.019       32.084        5.897        0.034      331.387       -0.631      869.593
11/30/2013  07:23:00        6.852       34.282       -4.000       17.807       14.818        9.882      317.072      219.582       97.657        0.094        0.032       34.960        9.491        0.074      331.336       -0.713      869.617
11/30/2013  07:24:00        3.247       10.144       -8.218        5.612        7.932        3.980       31.500       62.914       15.842        0.015        0.006       10.651        4.133        0.151      331.360       -0.674      869.621
11/30/2013  07:25:00        5.200        1.148        7.588        7.362        3.975        8.080       54.193       15.805       65.292        0.011        0.007        5.325        4.799        0.812      331.545       -0.373      869.617
11/30/2013  07:26:00       13.408       24.114        2.093        7.105       11.666        6.807       50.481      136.091       46.330        0.050        0.012       27.591        4.182        0.023      331.380       -0.640      869.621
11/30/2013  07:27:00       42.703       54.779       -6.384        9.719        8.339       11.682       94.468       69.535      136.462        0.258        0.015       69.457        5.250        0.006      331.364       -0.668      869.640
11/30/2013  07:28:00       49.308       33.492       11.023        9.557       12.716       14.762       91.345      161.709      217.912        0.207        0.024       59.607        8.709        0.021      331.398       -0.614      869.645
11/30/2013  07:29:00       24.273       19.408        3.343       10.984        5.933        7.639      120.640       35.206       58.351        0.060        0.011       31.078        7.708        0.062      331.424       -0.569      869.657
11/30/2013  07:30:00        1.349        0.380        3.615        7.575        9.857        8.862       57.375       97.165       78.534        0.012        0.012        1.401        6.178       19.435      331.640       -0.215      869.648
11/30/2013  07:31:00        0.658      -19.849       -4.357        6.677       10.733        5.814       44.584      115.198       33.808        0.030        0.010       19.860        3.252        0.027      331.644       -0.207      869.640
11/30/2013  07:32:00        7.479        7.924       10.583        9.730        8.821        8.999       94.671       77.808       80.990        0.024        0.013       10.896        4.688        0.185      331.783        0.022      869.639
11/30/2013  07:33:00       10.225       17.460       11.838       12.977       13.250       13.319      168.392      175.568      177.396        0.054        0.026       20.234        9.724        0.231      331.736       -0.055      869.655
11/30/2013  07:34:00      -10.116       27.161       -4.306        8.637       12.128       10.805       74.600      147.077      116.745        0.060        0.017       28.984        6.416        0.049      331.567       -0.335      869.689
11/30/2013  07:35:00      -34.387       30.884       -8.729       11.980       15.793        9.311      143.516      249.418       86.703        0.135        0.024       46.220        7.333        0.025      331.560       -0.345      869.708
11/30/2013  07:36:00      -39.470       36.369       -7.638       13.050       14.438        7.862      170.307      208.444       61.809        0.169        0.022       53.671        5.342        0.010      331.577       -0.318      869.732
11/30/2013  07:37:00      -36.651       43.002       -6.588       17.525       18.253       14.493      307.113      333.167      210.036        0.204        0.043       56.501       10.869        0.037      331.557       -0.350      869.725
11/30/2013  07:38:00      -36.201       13.592        1.682       13.976       14.382       12.732      195.339      206.851      162.116        0.103        0.028       38.669       11.393        0.087      331.636       -0.219      869.726
11/30/2013  07:39:00        8.306       39.477        0.802       18.109       32.036       13.854      327.930     1026.280      191.945        0.159        0.077       40.342       13.930        0.119      331.852        0.133      869.712
11/30/2013  07:40:00       15.909       49.021       -4.896       16.536       28.377       16.285      273.438      805.230      265.196        0.201        0.067       51.538       16.259        0.100      331.715       -0.091      869.710
11/30/2013  07:41:00       15.797       14.910       14.694       22.809       13.293       14.578      520.245      176.701      212.509        0.080        0.045       21.722       11.223        0.267      331.896        0.207      869.740
11/30/2013  07:42:00        0.253       60.133        0.194       13.843       47.192       13.171      191.624     2227.126      173.479        0.310        0.130       60.134       19.521        0.105      331.853        0.136      869.771
11/30/2013  07:43:00        5.423       94.197       -6.512       13.383       15.360       15.418      179.096      235.920      237.722        0.480        0.033       94.353        7.423        0.006      331.772        0.003      869.789
11/30/2013  07:44:00       18.490       43.154       -6.525       27.271       23.707       22.363      743.721      562.023      500.095        0.203        0.090       46.949       19.034        0.164      331.850        0.132      869.787
11/30/2013  07:45:00       61.315       37.689       -9.054       14.833       19.675       18.833      220.007      387.110      354.680        0.311        0.048       71.972        9.452        0.017      331.711       -0.098      869.776
11/30/2013  07:46:00       37.398       25.733       -2.448       12.907       18.264       12.887      166.580      333.579      166.071        0.137        0.033       45.396       11.347        0.062      331.844        0.121      869.773
11/30/2013  07:47:00       22.574       13.351        2.184       30.383       13.131       16.601      923.136      172.412      275.583        0.103        0.069       26.227       16.170        0.380      331.975        0.337      869.766
11/30/2013  07:48:00       -9.962       -1.142        6.187        9.575        5.713        7.199       91.680       32.639       51.823        0.016        0.009       10.027        2.990        0.089      332.162        0.646      869.769
11/30/2013  07:49:00       14.014       10.629        6.430       15.100       13.052       10.390      228.024      170.357      107.950        0.043        0.025       17.589        8.402        0.228      332.108        0.556      869.777
11/30/2013  07:50:00       31.931       23.884        1.323       13.232       17.526       17.054      175.073      307.145      290.847        0.118        0.039       39.876       10.307        0.067      331.960        0.312      869.777
11/30/2013  07:51:00       37.574       45.514       19.631       24.361       17.562       26.198      593.448      308.422      686.354        0.273        0.079       59.019       18.509        0.098      331.985        0.353      869.750
11/30/2013  07:52:00       12.042       59.397       58.241       20.972       17.707       13.255      439.812      313.523      175.690        0.400        0.046       60.606        8.491        0.020      332.066        0.486      869.717
11/30/2013  07:53:00       30.538       65.537       58.968       17.577       19.301       11.573      308.944      372.521      133.927        0.476        0.041       72.303        8.273        0.013      332.027        0.422      869.696
11/30/2013  07:54:00       50.785       32.291       22.109       14.869       19.516       21.413      221.083      380.886      458.530        0.259        0.053       60.181       17.463        0.084      331.936        0.272      869.702
11/30/2013  07:55:00       39.683       33.452       39.885       41.066       24.439       25.629     1686.429      597.245      656.828        0.361        0.147       51.901       24.388        0.221      332.222        0.745      869.702
11/30/2013  07:56:00        7.043       58.047       68.105       24.876       34.106       21.711      618.802     1163.196      471.351        0.515        0.113       58.473       16.614        0.081      332.311        0.891      869.696
11/30/2013  07:57:00        6.047       61.272       66.572       28.027       31.597       28.466      785.502      998.366      810.300        0.541        0.130       61.569       20.895        0.115      332.300        0.873      869.671
11/30/2013  07:58:00       72.256       63.567       33.578       44.483       32.723       33.938     1978.719     1070.818     1151.768        0.729        0.210       96.237       28.743        0.089      332.110        0.561      869.662
11/30/2013  07:59:00       38.847       46.407       41.809       55.741       34.992       37.019     3107.054     1224.452     1370.396        0.556        0.285       60.520       38.026        0.395      332.282        0.843      869.672
11/30/2013  08:00:00      104.695       53.725        8.018       38.118       27.570       23.508     1452.979      760.084      552.621        0.834        0.138      117.676       16.990        0.021      331.973        0.334      869.699
11/30/2013  08:01:00       57.208       33.931       -0.475       32.260       25.438       22.838     1040.711      647.092      521.554        0.332        0.110       66.513       18.123        0.074      332.175        0.668      869.724
11/30/2013  08:02:00       72.453       55.258        0.684       32.545       24.726       21.187     1059.162      611.368      448.879        0.521        0.106       91.120       14.162        0.024      332.179        0.674      869.748
11/30/2013  08:03:00       21.630       32.334       -3.706       38.229       29.729       22.998     1461.422      883.833      528.890        0.220        0.144       38.902       18.558        0.228      332.344        0.944      869.765
11/30/2013  08:04:00       43.505       23.715        6.055       32.267       18.354       20.073     1041.128      336.883      402.935        0.214        0.089       49.549       12.097        0.060      332.378        1.002      869.777
11/30/2013  08:05:00       20.685       24.342        9.676       15.628       17.182       16.226      244.243      295.213      263.290        0.096        0.040       31.943        8.845        0.077      332.351        0.956      869.788
11/30/2013  08:06:00       15.350       68.529       -3.561       23.021       27.185       19.339      529.966      739.034      374.012        0.329        0.082       70.227       14.108        0.040      332.420        1.070      869.797
11/30/2013  08:07:00      -11.679       41.182        5.196       26.063       32.717       25.834      679.274     1070.402      667.393        0.214        0.121       42.807       22.734        0.282      332.507        1.215      869.800
11/30/2013  08:08:00       -7.762       63.550        1.065       21.837       27.818       21.027      476.839      773.823      442.142        0.290        0.085       64.023       15.632        0.060      332.506        1.213      869.809
11/30/2013  08:09:00       -1.128       30.205        3.783       16.216       25.985       20.519      262.943      675.220      421.046        0.114        0.068       30.226       19.396        0.412      332.744        1.606      869.818
11/30/2013  08:10:00        4.204       36.559        0.713       20.078       29.068       17.844      403.106      844.967      318.399        0.146        0.078       36.800       17.508        0.226      332.591        1.354      869.825
11/30/2013  08:11:00       28.672       25.666        6.416       19.758       14.978       21.030      390.370      224.337      442.274        0.129        0.053       38.481       13.997        0.132      332.595        1.360      869.808
11/30/2013  08:12:00       31.466       15.528        7.312       23.823       17.956       18.956      567.521      322.436      359.317        0.127        0.062       35.089       14.532        0.172      332.597        1.365      869.791
11/30/2013  08:13:00       42.545       35.336        2.062       25.914       27.435       24.924      671.554      752.689      621.185        0.255        0.102       55.306       17.907        0.105      332.637        1.428      869.766
11/30/2013  08:14:00       30.942       13.008       -1.664       24.942       14.047       18.941      622.095      197.326      358.744        0.115        0.059       33.565       14.765        0.194      332.842        1.768      869.766
11/30/2013  08:15:00       22.170       17.790       13.556       26.569       16.438       21.721      705.938      270.201      471.819        0.122        0.072       28.425       15.938        0.314      332.947        1.939      869.772
11/30/2013  08:16:00       -2.914       41.114        3.437       16.884       33.804       14.952      285.073     1142.714      223.551        0.168        0.083       41.217       15.329        0.138      333.026        2.072      869.773
11/30/2013  08:17:00       -6.278       -1.405       16.811       25.442       11.894       16.973      647.270      141.457      288.091        0.070        0.054        6.434       13.578        4.454      333.166        2.303      869.769
11/30/2013  08:18:00      -23.811      -12.196        1.987       17.813       15.959       13.638      317.286      254.704      185.996        0.074        0.038       26.753        9.139        0.117      332.782        1.670      869.747
11/30/2013  08:19:00      -32.200      -27.810       -3.664       23.952       22.597       11.543      573.699      510.635      133.236        0.152        0.061       42.547       10.425        0.060      332.718        1.563      869.737
11/30/2013  08:20:00      -33.655       -2.182       11.837       26.336       19.463       16.835      693.591      378.808      283.430        0.132        0.068       33.726       17.122        0.258      332.884        1.838      869.742
11/30/2013  08:21:00       11.443       24.129       11.079       15.025       12.383       12.415      225.756      153.329      154.139        0.068        0.027       26.705       11.717        0.193      332.828        1.744      869.749
11/30/2013  08:22:00      -12.427      -13.428        9.719       41.605       38.046       22.834     1730.934     1447.462      521.377        0.206        0.185       18.296       20.635        1.272      332.762        1.635      869.756
11/30/2013  08:23:00      -71.153      -62.294        0.337       30.615       25.415       19.346      937.252      645.907      374.270        0.545        0.098       94.569       19.871        0.044      332.638        1.430      869.753
11/30/2013  08:24:00      -51.590      -46.832        6.833       32.063       39.189       19.124     1028.037     1535.780      365.723        0.391        0.146       69.676       20.830        0.089      332.722        1.569      869.745
11/30/2013  08:25:00      -64.567      -64.592       -0.158       19.636       36.871       13.646      385.558     1359.500      186.223        0.514        0.097       91.329       13.358        0.021      332.701        1.535      869.733
11/30/2013  08:26:00       -3.091       10.272       29.608       15.408       14.375       14.797      237.405      206.653      218.950        0.083        0.033       10.726       11.897        1.230      333.066        2.137      869.727
11/30/2013  08:27:00       -7.785       16.415       31.524       10.362       16.779        9.241      107.380      281.531       85.396        0.090        0.024       18.168        8.443        0.216      333.149        2.274      869.738
11/30/2013  08:28:00      -11.432        9.530        8.705       18.322       18.434       22.601      335.698      339.805      510.816        0.074        0.059       14.883       16.644        1.251      333.074        2.151      869.742
11/30/2013  08:29:00      -77.070      -44.227        5.679       35.026       30.322       19.243     1226.840      919.397      370.291        0.522        0.126       88.858       21.266        0.057      332.871        1.817      869.750
11/30/2013  08:30:00      -71.497      -52.588        3.037       40.261       40.249       22.223     1620.979     1619.967      493.880        0.581        0.187       88.754       18.581        0.044      332.894        1.854      869.773
11/30/2013  08:31:00     -108.176      -83.802       -9.063       18.948       24.130       14.408      359.022      582.241      207.604        0.998        0.057      136.839        7.799        0.003      332.818        1.729      869.793
11/30/2013  08:32:00      -59.600      -46.952       -5.297       43.182       27.650       16.884     1864.688      764.505      285.078        0.435        0.146       75.873       18.899        0.062      332.896        1.859      869.819
11/30/2013  08:33:00      -91.651      -66.331       -2.879       38.005       38.087       23.409     1444.378     1450.597      547.996        0.812        0.172      113.136       21.491        0.036      332.872        1.818      869.852
11/30/2013  08:34:00     -109.051      -78.851       -2.795       47.644       37.833       29.370     2269.996     1431.320      862.609        1.134        0.228      134.572       30.222        0.050      332.888        1.845      869.882
11/30/2013  08:35:00      -75.624      -65.263       -0.700       36.391       37.083       17.293     1324.283     1375.120      299.037        0.649        0.150       99.891       17.281        0.030      332.886        1.839      869.881
11/30/2013  08:36:00      -50.357      -25.731       -3.957       14.562       27.571       12.200      212.062      760.138      148.849        0.217        0.056       56.550        9.634        0.029      332.861        1.800      869.885
11/30/2013  08:37:00      -61.780      -11.900        2.846       37.054       33.940       19.621     1373.013     1151.914      384.981        0.344        0.145       62.915       17.099        0.074      332.834        1.753      869.879
11/30/2013  08:38:00      -63.309      -25.522        3.796       41.028       28.731       19.209     1683.282      825.479      369.004        0.378        0.144       68.260       22.197        0.106      332.909        1.880      869.885
11/30/2013  08:39:00      -79.088      -47.689       -5.057       23.248       21.831       16.220      540.475      476.608      263.085        0.492        0.064       92.354       12.972        0.020      332.873        1.820      869.879
11/30/2013  08:40:00      -60.746      -78.334       -2.478       31.126       25.041       18.600      968.823      627.037      345.960        0.589        0.097       99.127       15.874        0.026      332.913        1.886      869.887
11/30/2013  08:41:00      -73.136      -71.825       -3.380       35.797       25.603       24.492     1281.438      655.502      599.881        0.653        0.127      102.507       19.954        0.038      332.900        1.864      869.882
11/30/2013  08:42:00      -72.260      -67.480       -3.968       25.307       23.457       17.054      640.425      550.231      290.844        0.564        0.074       98.869       14.214        0.021      332.905        1.872      869.891
11/30/2013  08:43:00      -52.906      -57.074       -9.211       25.936       22.799       16.403      672.655      519.777      269.053        0.380        0.073       77.823       13.482        0.030      332.941        1.932      869.894
11/30/2013  08:44:00      -50.660      -59.170        1.029       24.288       26.291       16.429      589.921      691.227      269.905        0.381        0.078       77.894       15.217        0.038      332.904        1.872      869.892
11/30/2013  08:45:00      -42.604      -99.503       -8.951       24.402       18.211       13.679      595.462      331.633      187.126        0.645        0.056      108.240       13.407        0.015      332.878        1.828      869.886
11/30/2013  08:46:00       12.569      -40.642       12.283       24.223       31.162       15.531      586.768      971.077      241.203        0.188        0.090       42.542       13.147        0.095      332.980        1.996      869.879
11/30/2013  08:47:00      -21.114      -79.786        2.797       25.833       31.839       14.178      667.325     1013.697      201.020        0.435        0.094       82.532       14.478        0.031      332.982        2.000      869.869
11/30/2013  08:48:00      -62.111      -50.105       -8.755       18.435       22.680       18.381      339.842      514.367      337.864        0.382        0.060       79.802       11.404        0.020      332.958        1.960      869.858
11/30/2013  08:49:00      -15.764      -18.273       15.825       24.192       36.585       20.486      585.270     1338.478      419.661        0.159        0.117       24.134       18.721        0.602      333.108        2.206      869.850
11/30/2013  08:50:00      -49.485      -27.104        0.738       47.481       40.751       23.134     2254.407     1660.660      535.201        0.382        0.223       56.422       24.873        0.194      332.970        1.978      869.840
11/30/2013  08:51:00      -61.473      -42.145        4.497       53.791       31.502       22.372     2893.474      992.356      500.496        0.498        0.219       74.532       23.695        0.101      332.915        1.890      869.835
11/30/2013  08:52:00      -11.942       -8.268        1.080       29.391       21.600       19.131      863.823      466.539      366.003        0.095        0.085       14.525       14.563        1.005      333.019        2.059      869.834
11/30/2013  08:53:00      -22.810        2.747        4.682       20.930       21.390       17.685      438.047      457.518      312.770        0.088        0.060       22.975       12.725        0.307      333.102        2.198      869.827
11/30/2013  08:54:00       -7.564       -0.897        6.404       18.348       23.053       12.045      336.664      531.426      145.073        0.056        0.051        7.617       11.329        2.212      333.164        2.299      869.818
11/30/2013  08:55:00      -56.027      -25.478        5.999       48.031       45.183       26.706     2307.002     2041.481      713.231        0.444        0.253       61.548       30.888        0.252      333.074        2.150      869.816
11/30/2013  08:56:00      -25.682      -21.485        7.453       29.637       27.668       15.086      878.357      765.509      227.577        0.152        0.094       33.484       18.290        0.298      333.153        2.283      869.809
11/30/2013  08:57:00      -26.108      -26.611        8.716       20.599       22.261       14.957      424.319      495.568      223.719        0.130        0.057       37.280       11.124        0.089      333.196        2.352      869.806
11/30/2013  08:58:00      -30.568      -29.282        0.088       17.060       15.551       11.360      291.040      241.830      129.042        0.123        0.033       42.330        7.398        0.031      333.185        2.334      869.803
11/30/2013  08:59:00      -26.750      -24.928        1.207       23.057       12.044       11.230      531.642      145.055      126.120        0.107        0.040       36.565        8.021        0.048      333.210        2.375      869.803
11/30/2013  09:00:00      -33.895      -12.498        2.543       10.828       10.278        8.405      117.249      105.643       70.646        0.080        0.015       36.126        4.651        0.017      333.186        2.334      869.809
11/30/2013  09:01:00      -62.501      -18.446       -1.806       23.244       21.966       14.040      540.279      482.493      197.131        0.273        0.061       65.166       11.839        0.033      333.166        2.303      869.806
11/30/2013  09:02:00      -62.901       -0.771        1.385       34.073       22.563       17.681     1160.959      509.087      312.608        0.297        0.099       62.905       19.157        0.093      333.277        2.485      869.804
11/30/2013  09:03:00      -28.530       27.680       20.518       31.646       12.674       17.639     1001.451      160.625      311.138        0.174        0.074       39.751       21.041        0.280      333.310        2.541      869.797
11/30/2013  09:04:00      -13.118        3.302        6.929       24.971       13.140       22.492      623.532      172.654      505.897        0.077        0.065       13.528       19.724        2.126      333.420        2.722      869.801
11/30/2013  09:05:00      -25.664       -1.836       -3.740       12.059       15.461       12.452      145.416      239.057      155.042        0.061        0.027       25.730        8.642        0.113      333.206        2.368      869.812
11/30/2013  09:06:00      -30.314       14.050        1.074       24.387       16.291       13.170      594.704      265.388      173.449        0.108        0.052       33.412       10.162        0.092      333.334        2.580      869.821
11/30/2013  09:07:00      -57.763      -27.801        4.289       34.762       23.539       17.775     1208.403      554.101      315.955        0.310        0.104       64.106       20.017        0.097      333.201        2.361      869.833
11/30/2013  09:08:00      -44.426      -10.660        9.648       25.168       20.757       11.539      633.429      430.856      133.150        0.169        0.060       45.687       11.654        0.065      333.175        2.317      869.852
11/30/2013  09:09:00      -46.661      -31.220       -2.746       23.306       14.626       11.240      543.147      213.932      126.334        0.202        0.044       56.142        6.727        0.014      333.211        2.375      869.854
11/30/2013  09:10:00      -44.789      -35.570        4.044       25.185       25.310       16.872      634.307      640.621      284.679        0.242        0.078       57.195       18.342        0.103      333.275        2.482      869.840
11/30/2013  09:11:00       16.046       16.781       31.819       30.304       25.475       23.119      918.359      648.977      534.499        0.183        0.105       23.218       12.166        0.275      333.343        2.597      869.828
11/30/2013  09:12:00       31.484       43.213       -1.188       23.016       23.165       19.591      529.729      536.612      383.799        0.215        0.073       53.466       13.734        0.066      333.165        2.301      869.794
11/30/2013  09:13:00       54.389       58.912       29.733       30.708       21.420       22.757      942.989      458.806      517.890        0.462        0.096       80.179        5.932        0.005      333.201        2.360      869.773
11/30/2013  09:14:00       78.891       52.223       29.650       17.526       25.717       24.769      307.172      661.384      613.515        0.571        0.079       94.610       19.941        0.044      333.063        2.133      869.751
11/30/2013  09:15:00       71.879       63.972       35.415       34.680       32.177       44.192     1202.691     1035.385     1952.965        0.735        0.210       96.224       28.588        0.088      333.191        2.343      869.742
11/30/2013  09:16:00       53.944       70.466       71.958       32.380       31.179       28.236     1048.493      972.141      797.257        0.793        0.141       88.743       18.248        0.042      333.196        2.354      869.752
11/30/2013  09:17:00       91.256       28.903       25.106       36.683       40.424       33.714     1345.631     1634.113     1136.603        0.695        0.206       95.724       30.867        0.104      333.107        2.205      869.756
11/30/2013  09:18:00       27.330       74.027       52.985       23.926       31.939       21.144      572.440     1020.127      447.052        0.554        0.102       78.911       16.428        0.043      333.275        2.484      869.751
11/30/2013  09:19:00       72.774       76.331       41.352       28.669       27.174       26.527      821.925      738.400      703.694        0.755        0.113      105.463        8.165        0.006      333.362        2.626      869.736
11/30/2013  09:20:00        1.434       41.906       63.690       25.563       42.436       25.072      653.460     1800.785      628.590        0.445        0.154       41.931       27.105        0.418      333.615        3.046      869.731
11/30/2013  09:21:00       13.527       71.228       84.128       28.907       37.480       27.661      835.610     1404.760      765.111        0.767        0.150       72.501       22.098        0.093      333.551        2.939      869.727
11/30/2013  09:22:00       84.850      111.399       70.908       43.589       34.232       33.523     1900.003     1171.862     1123.809        1.442        0.210      140.033       25.508        0.033      333.253        2.448      869.728
11/30/2013  09:23:00       93.649       86.270       60.282       43.113       40.401       41.944     1858.721     1632.259     1759.331        1.255        0.263      127.329       35.041        0.076      333.342        2.594      869.741
11/30/2013  09:24:00       94.476       91.912       66.591       41.023       27.759       34.028     1682.891      770.567     1157.931        1.271        0.181      131.809       29.814        0.051      333.317        2.552      869.727
11/30/2013  09:25:00       57.384       85.514       78.257       41.028       45.590       26.911     1683.277     2078.403      724.220        1.061        0.224      102.984       20.744        0.041      333.497        2.851      869.714
11/30/2013  09:26:00       53.464       78.016       74.864       47.612       44.336       38.400     2266.876     1965.655     1474.537        1.013        0.285       94.577       34.813        0.135      333.531        2.906      869.701
11/30/2013  09:27:00       73.793       89.936       75.773       48.343       29.163       34.172     2337.018      850.477     1167.703        1.181        0.218      116.335       27.252        0.055      333.394        2.680      869.677
11/30/2013  09:28:00       85.846      100.073       70.614       55.648       35.621       40.104     3096.687     1268.858     1608.322        1.417        0.299      131.849       37.769        0.082      333.436        2.748      869.669
11/30/2013  09:29:00       65.703       83.841       65.121       59.395       59.532       55.820     3527.792     3544.111     3115.920        1.289        0.509      106.518       51.966        0.238      333.469        2.803      869.654
11/30/2013  09:30:00       94.631       65.998       51.519       52.376       51.805       33.197     2743.293     2683.798     1102.056        1.125        0.326      115.372       32.861        0.081      333.394        2.681      869.653
11/30/2013  09:31:00       49.184       35.306       58.990       32.140       42.608       30.846     1032.966     1815.435      951.458        0.547        0.190       60.544       31.302        0.267      333.546        2.931      869.663
11/30/2013  09:32:00       30.497      -34.084       25.576       41.188       46.735       30.458     1696.468     2184.139      927.677        0.378        0.240       45.736       27.078        0.351      333.666        3.131      869.661
11/30/2013  09:33:00       34.708       29.741       44.239       46.653       36.202       40.451     2176.523     1310.596     1636.251        0.458        0.256       45.707       26.898        0.346      333.679        3.151      869.674
11/30/2013  09:34:00       44.663       52.829       49.987       31.483       32.295       29.615      991.183     1042.973      877.019        0.510        0.146       69.179       20.746        0.090      333.614        3.044      869.669
11/30/2013  09:35:00       74.124       56.292       54.152       60.349       35.493       37.105     3641.972     1259.770     1376.749        0.894        0.314       93.076       37.890        0.166      333.539        2.920      869.678
11/30/2013  09:36:00       55.705       39.749       22.495       40.917       32.405       30.009     1674.218     1050.082      900.567        0.441        0.181       68.433       26.357        0.148      333.533        2.910      869.670
11/30/2013  09:37:00       18.692       22.623       11.835       44.744       16.366       15.847     2002.060      267.844      251.136        0.176        0.126       29.346       10.718        0.133      333.513        2.878      869.670
11/30/2013  09:38:00       18.764       82.278      -20.136       17.606       30.948       14.346      309.965      957.751      205.812        0.450        0.074       84.390        8.727        0.011      333.382        2.660      869.676
11/30/2013  09:39:00       13.672       65.147       -3.021       17.745       26.512       21.488      314.887      702.881      461.748        0.296        0.074       66.566       20.734        0.097      333.580        2.986      869.669
11/30/2013  09:40:00       16.808       20.469        9.932       16.749       20.742       24.281      280.524      430.213      589.577        0.105        0.065       26.486       20.376        0.592      333.883        3.490      869.675
11/30/2013  09:41:00       30.383        9.789       -8.563       27.847       25.126       20.044      775.431      631.328      401.743        0.145        0.090       31.921       18.588        0.339      333.722        3.222      869.668
11/30/2013  09:42:00       10.586       -0.996        9.343       15.239       33.846       18.983      232.241     1145.544      360.344        0.097        0.087       10.633       19.077        3.219      333.884        3.493      869.670
11/30/2013  09:43:00       16.987       22.035        6.288       36.210       15.071       19.335     1311.133      227.141      373.844        0.136        0.096       27.822       15.250        0.300      334.004        3.691      869.659
11/30/2013  09:44:00        9.516       14.574       15.414       23.535       16.292       16.651      553.900      265.415      277.254        0.082        0.055       17.405       11.661        0.449      334.215        4.041      869.653
11/30/2013  09:45:00      -36.299       -1.027       -0.216       29.349       30.353       13.172      861.382      921.292      173.503        0.164        0.098       36.313       14.309        0.155      333.753        3.276      869.640
11/30/2013  09:46:00      -32.730       -4.390      -11.014       15.797       14.211       11.112      249.549      201.962      123.479        0.089        0.029       33.023        7.838        0.056      333.797        3.347      869.616
11/30/2013  09:47:00      -43.105       -6.344       -6.708       16.803       12.934        9.694      282.335      167.292       93.964        0.124        0.027       43.569        6.394        0.022      333.834        3.411      869.594
11/30/2013  09:48:00      -27.333        2.649       -3.640       13.765        9.808        9.507      189.464       96.194       90.382        0.057        0.019       27.461        7.989        0.085      333.912        3.540      869.545
11/30/2013  09:49:00      -32.727       -8.911       -7.910        7.763       11.444        6.612       60.257      130.961       43.717        0.072        0.012       33.919        3.082        0.008      333.982        3.655      869.513
11/30/2013  09:50:00      -25.844       -5.824       -2.074       14.060       17.327        9.576      197.679      300.236       91.702        0.065        0.029       26.492        6.955        0.069      334.139        3.915      869.470
11/30/2013  09:51:00      -44.012       -9.468       -2.612       10.446       11.696        6.774      109.118      136.790       45.883        0.116        0.015       45.019        4.561        0.010      333.935        3.577      869.440
11/30/2013  09:52:00      -13.641      -17.189        2.816       14.268       17.839        8.604      203.585      318.219       74.029        0.054        0.030       21.944        7.785        0.126      334.114        3.875      869.402
11/30/2013  09:53:00      -25.879      -23.397       -3.227       16.830       15.610       13.223      283.233      243.682      174.839        0.096        0.035       34.888        8.318        0.057      334.174        3.972      869.376
11/30/2013  09:54:00      -25.631       -0.540      -13.186       12.907        9.163        9.261      166.588       83.968       85.770        0.058        0.017       25.637        5.759        0.050      334.207        4.028      869.358
11/30/2013  09:55:00      -37.119        4.940      -10.911       12.477       16.125       15.576      155.675      260.030      242.627        0.109        0.033       37.446        9.413        0.063      334.253        4.103      869.349
11/30/2013  09:56:00      -40.879       -0.412        2.169       35.761       18.819       14.203     1278.863      354.137      201.712        0.175        0.092       40.881       14.610        0.128      334.378        4.311      869.337
11/30/2013  09:57:00      -37.644      -38.780        2.199       32.459       26.440       16.512     1053.607      699.100      272.638        0.248        0.101       54.046       13.598        0.063      334.394        4.338      869.327
11/30/2013  09:58:00      -36.864      -26.430       -5.608       32.617       16.457       15.245     1063.882      270.848      232.411        0.183        0.078       45.359       17.419        0.147      334.165        3.956      869.318
11/30/2013  09:59:00      -10.569      -25.829       -1.408       19.794        9.750       13.462      391.804       95.061      181.219        0.072        0.033       27.908       11.491        0.170      334.280        4.149      869.306
11/30/2013  10:00:00      -22.695      -21.720       -0.253       19.445       12.648       10.588      378.123      159.965      112.109        0.082        0.033       31.414        7.849        0.062      334.417        4.375      869.295
11/30/2013  10:01:00      -43.356      -32.524       -3.350       29.186       29.762       14.260      851.803      885.777      203.342        0.244        0.097       54.199       13.859        0.065      334.401        4.352      869.285
11/30/2013  10:02:00      -32.159        2.928       10.411       33.259       28.164       20.240     1106.142      793.198      409.648        0.173        0.115       32.292       20.376        0.398      334.892        5.165      869.269
11/30/2013  10:03:00      -49.563       -8.081       17.346       40.607       36.473       24.282     1648.921     1330.265      589.591        0.320        0.178       50.218       22.476        0.200      334.670        4.797      869.255
11/30/2013  10:04:00      -59.446      -14.082        3.060       37.623       36.093       25.252     1415.513     1302.674      637.674        0.355        0.168       61.092       16.956        0.077      334.616        4.708      869.238
11/30/2013  10:05:00      -16.681      -10.740       24.351       34.862       23.505       21.120     1215.390      552.475      446.063        0.160        0.111       19.839       25.673        1.675      335.116        5.537      869.231
11/30/2013  10:06:00       -8.368        7.659       24.065       19.423       10.341       14.805      377.256      106.937      219.187        0.071        0.035       11.344        9.429        0.691      335.390        5.992      869.225
11/30/2013  10:07:00      -23.144       -0.549       15.251       18.192       18.413       11.700      330.946      339.021      136.883        0.079        0.040       23.150        5.441        0.055      334.899        5.176      869.230
11/30/2013  10:08:00      -11.932       16.491        7.255       35.379       29.218       19.324     1251.652      853.720      373.400        0.147        0.124       20.355       16.300        0.641      335.080        5.477      869.233
11/30/2013  10:09:00      -23.289        9.406        1.689       41.801       34.941       33.069     1747.288     1220.853     1093.556        0.235        0.203       25.117       17.130        0.465      334.986        5.322      869.234
11/30/2013  10:10:00       -9.282      -27.795        9.077       47.637       33.600       31.592     2269.244     1128.990      998.058        0.267        0.220       29.303       27.929        0.908      334.986        5.322      869.235
11/30/2013  10:11:00       -9.053       -5.220       27.407       41.514       31.494       25.440     1723.430      991.858      647.193        0.211        0.168       10.450       12.630        1.461      335.066        5.454      869.230
11/30/2013  10:12:00      -48.827      -19.076       -6.591       27.069       23.759       19.419      732.741      564.469      377.115        0.223        0.084       52.422        9.043        0.030      334.685        4.821      869.241
11/30/2013  10:13:00      -17.797      -45.659      -12.120       42.384       40.233       27.781     1796.400     1618.727      771.758        0.337        0.209       49.005        8.678        0.031      334.756        4.938      869.248
11/30/2013  10:14:00      -18.113      -65.986      -32.927       43.686       49.194       35.972     1908.457     2420.014     1293.956        0.569        0.281       68.427       31.267        0.209      334.644        4.752      869.268
11/30/2013  10:15:00      -28.204      -32.973       -4.000       46.237       31.084       21.688     2137.874      966.228      470.366        0.274        0.179       43.390       16.915        0.152      334.677        4.807      869.284
11/30/2013  10:16:00      -31.850      -12.589       12.247       38.351       34.354       23.013     1470.832     1180.194      529.610        0.225        0.159       34.247       21.838        0.407      335.019        5.377      869.279
11/30/2013  10:17:00      -77.824      -47.901        0.935       31.646       33.483       19.344     1001.498     1121.115      374.173        0.542        0.125       91.385       18.546        0.041      334.690        4.830      869.274
11/30/2013  10:18:00      -48.908      -19.123        0.266       25.936       18.753       14.842      672.676      351.661      220.290        0.200        0.062       52.513       16.741        0.102      334.783        4.984      869.255
11/30/2013  10:19:00       -5.252       18.833       33.230       10.146       18.198       25.455      102.950      331.165      647.953        0.128        0.054       19.552       10.201        0.272      335.405        6.018      869.241
11/30/2013  10:20:00       59.036       75.875       46.466       39.831       31.356       27.678     1586.545      983.194      766.053        0.737        0.167       96.137       21.965        0.052      334.879        5.144      869.243
11/30/2013  10:21:00       34.893       45.737       18.884       36.424       31.725       27.072     1326.683     1006.482      732.873        0.337        0.153       57.527        5.925        0.011      335.012        5.363      869.236
11/30/2013  10:22:00       13.173      -41.044       21.358       38.077       48.175       26.343     1449.867     2320.819      693.927        0.339        0.223       43.106       29.582        0.471      335.341        5.911      869.234
11/30/2013  10:23:00       31.280      -90.345       -9.818       32.238       40.932       25.672     1039.306     1675.405      659.071        0.630        0.169       95.607       16.079        0.028      335.038        5.407      869.229
11/30/2013  10:24:00       -9.084        2.842       49.722       19.038       48.567       40.292      362.439     2358.728     1623.419        0.345        0.217        9.518       39.614       17.323      335.531        6.227      869.221
11/30/2013  10:25:00       43.919       64.489       53.788       37.289       30.941       37.094     1390.458      957.374     1375.929        0.635        0.186       78.023       28.526        0.134      334.973        5.298      869.208
11/30/2013  10:26:00       56.492       45.029       38.209       22.302       28.396       26.218      497.377      806.342      687.408        0.433        0.100       72.242       15.632        0.047      335.115        5.536      869.185
11/30/2013  10:27:00       13.933       40.042       43.485       33.986       39.511       39.130     1155.064     1561.099     1531.127        0.397        0.212       42.397       28.746        0.460      335.496        6.168      869.163
11/30/2013  10:28:00       -5.446      -53.611       13.790       44.932       51.966       26.079     2018.866     2700.493      680.130        0.425        0.270       53.886       19.840        0.136      335.416        6.035      869.142
11/30/2013  10:29:00       60.809       -4.862       32.955       32.085       39.448       32.148     1029.475     1556.129     1033.505        0.421        0.181       61.003       27.627        0.205      335.349        5.925      869.120
11/30/2013  10:30:00       20.988       49.130       71.029       44.352       54.602       44.443     1967.058     2981.384     1975.216        0.741        0.346       53.425       45.190        0.715      335.578        6.305      869.099
11/30/2013  10:31:00       79.885       85.867       75.456       45.194       34.496       26.583     2042.514     1189.941      706.641        1.169        0.197      117.280       21.537        0.034      335.265        5.785      869.076
11/30/2013  10:32:00       95.455       70.286       38.033       41.959       33.150       44.623     1760.516     1098.935     1991.172        1.017        0.243      118.540       29.748        0.063      335.044        5.419      869.061
11/30/2013  10:33:00       48.144       35.889       36.515       41.097       41.589       23.453     1688.970     1729.665      550.049        0.445        0.198       60.049        7.038        0.014      335.409        6.025      869.054
11/30/2013  10:34:00       61.138      -85.160        8.508       38.889       27.170       28.918     1512.365      738.226      836.270        0.707        0.154      104.833       24.430        0.054      335.278        5.807      869.060
11/30/2013  10:35:00       49.084      -35.461        7.658       21.672       31.394       25.569      469.657      985.608      653.794        0.292        0.105       60.554       22.926        0.143      335.167        5.622      869.082
11/30/2013  10:36:00       26.320        1.169       37.985       39.144       28.455       25.864     1532.254      809.696      668.931        0.257        0.151       26.346       21.731        0.680      335.740        6.575      869.082
11/30/2013  10:37:00       16.751       52.052       46.701       24.784       29.117       19.444      614.239      847.778      378.078        0.351        0.092       54.681       12.279        0.050      335.652        6.428      869.079
11/30/2013  10:38:00       65.571       42.528       52.435       51.896       40.666       33.183     2693.196     1653.694     1101.131        0.715        0.272       78.155       23.094        0.087      335.463        6.114      869.058
11/30/2013  10:39:00       49.061       43.851       61.255       40.950       46.419       34.562     1676.924     2154.720     1194.530        0.655        0.251       65.802       34.564        0.276      335.479        6.140      869.036
11/30/2013  10:40:00       22.110       42.301       56.843       45.950       41.646       36.726     2111.444     1734.363     1348.796        0.535        0.260       47.731       31.525        0.436      335.726        6.552      869.011
11/30/2013  10:41:00       80.913       74.071       35.421       50.795       36.576       51.225     2580.108     1337.806     2624.049        0.991        0.327      109.698       34.327        0.098      335.300        5.843      868.998
11/30/2013  10:42:00       41.943       41.176       -7.615       16.689       14.382       19.043      278.531      206.849      362.628        0.218        0.042       58.777        5.190        0.008      335.233        5.728      868.987
11/30/2013  10:43:00       65.184       48.333       27.288       39.149       30.766       34.206     1532.609      946.557     1170.022        0.549        0.182       81.148       15.279        0.035      335.632        6.395      868.978
11/30/2013  10:44:00       76.067       89.123       64.952       45.078       42.525       47.797     2031.987     1808.347     2284.567        1.204        0.306      117.171       28.144        0.058      335.682        6.478      868.979
11/30/2013  10:45:00       60.157       55.424       56.631       30.876       23.996       28.065      953.353      575.787      787.641        0.611        0.116       81.797       14.702        0.032      335.494        6.165      868.978
11/30/2013  10:46:00       29.494       39.369       68.459       25.057       44.045       25.083      627.852     1939.923      629.138        0.515        0.160       49.192       28.680        0.340      335.998        7.006      868.976
11/30/2013  10:47:00       41.460      116.668      114.065       51.503       48.928       41.103     2652.585     2393.938     1689.417        1.754        0.337      123.816       35.635        0.083      335.978        6.971      868.963
11/30/2013  10:48:00       28.232        4.566       52.490       42.845       60.948       40.740     1835.676     3714.669     1659.770        0.539        0.361       28.599       45.354        2.515      336.033        7.063      868.972
11/30/2013  10:49:00       12.507       38.155       66.321       31.762       53.385       34.076     1008.832     2849.944     1161.196        0.551        0.251       40.152       28.178        0.492      336.168        7.289      868.974
11/30/2013  10:50:00        1.283       25.342       37.778       22.798       31.493       26.703      519.734      991.812      713.036        0.215        0.111       25.374       13.165        0.269      336.345        7.585      868.971
11/30/2013  10:51:00       31.446       48.242       52.733       49.217       51.781       51.608     2422.275     2681.311     2663.416        0.693        0.388       57.586       25.926        0.203      336.320        7.543      868.959
11/30/2013  10:52:00       46.736       86.374       88.461       53.699       58.471       50.258     2883.618     3418.886     2525.825        1.315        0.441       98.208       41.491        0.178      335.785        6.650      868.927
11/30/2013  10:53:00      139.666      148.472      113.065       81.494       56.510       65.567     6641.223     3193.394     4298.981        3.423        0.707      203.839       62.761        0.095      335.462        6.107      868.909
11/30/2013  10:54:00      107.441       97.765       64.323       89.726       43.107       43.803     8050.681     1858.196     1918.667        1.853        0.591      145.263       45.266        0.097      335.624        6.380      868.892
11/30/2013  10:55:00       43.046       92.749       84.657       41.070       51.230       41.547     1686.748     2624.480     1726.157        1.183        0.302      102.251       30.039        0.086      335.885        6.815      868.880
11/30/2013  10:56:00       67.447       26.707       16.737       36.970       26.262       22.948     1366.749      689.717      526.610        0.406        0.129       72.542       13.408        0.034      335.626        6.385      868.882
11/30/2013  10:57:00       22.404       15.677        7.415       23.306       27.648       28.473      543.158      764.416      810.731        0.146        0.106       27.344       18.357        0.451      335.904        6.849      868.869
11/30/2013  10:58:00      131.807       50.417        0.111       51.358       51.025       35.530     2637.602     2603.548     1262.355        1.321        0.325      141.121       17.067        0.015      335.762        6.611      868.869
11/30/2013  10:59:00       52.581       62.035       34.599       67.320       43.902       39.876     4531.962     1927.388     1590.088        0.793        0.402       81.321       31.251        0.148      336.264        7.447      868.854
11/30/2013  11:00:00       14.360       34.080       71.091       42.170       41.333       25.238     1778.274     1708.426      636.955        0.527        0.206       36.982       20.630        0.311      336.469        7.791      868.854
11/30/2013  11:01:00       51.543       48.184       -3.936       41.556       46.154       36.505     1726.860     2130.189     1332.602        0.509        0.259       70.558       27.024        0.147      335.973        6.964      868.842
11/30/2013  11:02:00       40.549       39.976       11.226       22.085       21.360       28.101      487.733      456.240      789.675        0.255        0.087       56.941       17.320        0.093      336.003        7.014      868.838
11/30/2013  11:03:00       78.206       55.598       16.543       34.056       30.523       29.807     1159.814      931.655      888.466        0.623        0.149       95.954       11.031        0.013      336.010        7.026      868.805
11/30/2013  11:04:00       73.439       70.591       28.544       58.206       40.171       34.679     3387.972     1613.696     1202.615        0.870        0.310      101.864       30.880        0.092      336.090        7.159      868.779
11/30/2013  11:05:00      120.888      103.323       26.337       40.974       27.863       30.932     1678.848      776.328      956.797        1.470        0.171      159.027        8.525        0.003      335.962        6.944      868.744
11/30/2013  11:06:00      118.059       81.535       44.340       37.781       30.951       38.572     1427.393      957.963     1487.774        1.321        0.194      143.478        7.438        0.003      335.837        6.736      868.721
11/30/2013  11:07:00       16.603       47.152       54.285       30.393       25.699       30.196      923.761      660.434      911.814        0.397        0.125       49.989       22.187        0.197      336.237        7.403      868.682
11/30/2013  11:08:00       62.506       67.430       36.284       31.366       33.873       37.631      983.798     1147.403     1416.066        0.666        0.177       91.945       23.433        0.065      335.949        6.924      868.656
11/30/2013  11:09:00       10.901       -4.051      -14.917       38.692       26.190       16.749     1497.104      685.919      280.528        0.141        0.123       11.629        5.345        0.211      335.902        6.845      868.634
11/30/2013  11:10:00       42.050       44.423       35.169       59.395       48.464       37.997     3527.813     2348.770     1443.747        0.615        0.366       61.168       34.910        0.326      336.120        7.208      868.605
11/30/2013  11:11:00      100.844      104.959       71.503       59.904       53.136       61.364     3588.526     2823.434     3765.551        1.824        0.509      145.554       55.075        0.143      335.992        6.993      868.597
11/30/2013  11:12:00       41.317       34.571       33.175       41.025       34.429       25.692     1683.040     1185.337      660.059        0.376        0.176       53.873       17.526        0.106      336.504        7.850      868.595
11/30/2013  11:13:00       45.914       36.117        8.031       36.374       36.640       37.080     1323.072     1342.482     1374.956        0.376        0.202       58.417       25.220        0.186      336.363        7.614      868.596
11/30/2013  11:14:00       -2.686       88.573        0.118       31.118       60.816       32.849      968.302     3698.526     1079.058        0.680        0.287       88.613       33.661        0.144      336.411        7.695      868.605
11/30/2013  11:15:00       -8.032       58.187       -2.900       20.581       36.414       23.200      423.590     1326.009      538.231        0.287        0.114       58.739       23.321        0.158      336.446        7.754      868.605
11/30/2013  11:16:00        9.881       42.315        4.419       30.741       18.246       18.688      945.008      332.918      349.223        0.177        0.081       43.453       12.821        0.087      336.616        8.040      868.593
11/30/2013  11:17:00       46.718       31.571       -9.803       37.066       42.264       25.325     1373.913     1786.272      641.340        0.354        0.190       56.385       24.840        0.194      336.642        8.081      868.582
11/30/2013  11:18:00       51.133       41.775       20.165       49.192       45.803       28.982     2419.872     2097.893      839.976        0.506        0.268       66.029       19.322        0.086      336.640        8.078      868.571
11/30/2013  11:19:00       36.200       66.733       20.384       35.085       29.222       42.525     1230.943      853.922     1808.390        0.504        0.195       75.920       27.760        0.134      336.697        8.174      868.562
11/30/2013  11:20:00       12.878       41.845       36.784       36.299       38.589       35.851     1317.602     1489.133     1285.300        0.368        0.205       43.782       26.308        0.361      336.899        8.512      868.554
11/30/2013  11:21:00       56.920       46.050        2.053       46.397       32.180       41.558     2152.642     1035.520     1727.062        0.514        0.246       73.216       25.109        0.118      336.366        7.620      868.549
11/30/2013  11:22:00       20.065       20.868       13.544       20.573       22.016       24.094      423.261      484.689      580.541        0.125        0.074       28.950       10.695        0.136      336.552        7.929      868.534
11/30/2013  11:23:00       22.745        8.256       52.028       43.552       32.766       30.220     1896.766     1073.628      913.253        0.359        0.194       24.197       27.399        1.282      336.887        8.490      868.526
11/30/2013  11:24:00       59.875       65.355       66.358       36.244       29.850       22.659     1313.652      891.016      513.439        0.749        0.136       88.636       16.036        0.033      336.619        8.043      868.514
11/30/2013  11:25:00       39.354       84.657       79.736       42.443       41.208       39.300     1801.391     1698.071     1544.508        1.006        0.252       93.357       27.056        0.084      336.590        7.994      868.503
11/30/2013  11:26:00       80.226       84.575       66.758       35.099       40.916       49.027     1231.911     1674.084     2403.612        1.168        0.265      116.572       41.380        0.126      336.238        7.405      868.509
11/30/2013  11:27:00       28.188       83.267       86.877       52.416       34.584       33.022     2747.448     1196.070     1090.485        1.015        0.252       87.908       28.573        0.106      336.607        8.023      868.505
11/30/2013  11:28:00       61.874       43.063       66.335       45.042       65.519       37.008     2028.760     4292.789     1369.561        0.889        0.385       75.385       42.238        0.314      336.494        7.834      868.506
11/30/2013  11:29:00       37.254       87.160       81.804       50.578       51.236       37.330     2558.098     2625.159     1393.530        1.113        0.329       94.788       37.000        0.152      336.641        8.080      868.488
11/30/2013  11:30:00       49.695      -49.887        7.552       55.370       72.272       44.995     3065.816     5223.206     2024.586        0.766        0.516       70.415       47.092        0.447      336.929        8.560      868.476
11/30/2013  11:31:00        5.532       35.878       84.167       30.567       73.668       38.614      934.353     5427.021     1491.062        0.813        0.393       36.302       48.167        1.761      337.068        8.794      868.449
11/30/2013  11:32:00       68.886      -85.378        3.465       56.623       53.226       33.368     3206.179     2833.057     1113.427        0.960        0.358      109.703       31.610        0.083      336.697        8.173      868.434
11/30/2013  11:33:00       73.575      -70.600        2.347       48.732       84.230       48.230     2374.795     7094.770     2326.100        1.110        0.590      101.969       59.333        0.339      336.605        8.020      868.410
11/30/2013  11:34:00      112.817      -93.344       -3.175       46.076       38.601       30.445     2122.982     1490.007      926.880        1.299        0.227      146.427       17.262        0.014      336.570        7.960      868.420
11/30/2013  11:35:00       92.860       28.050       18.735       38.257       40.493       29.877     1463.566     1639.652      892.641        0.688        0.200       97.004       20.173        0.043      336.488        7.824      868.422
11/30/2013  11:36:00       29.489       35.035        6.279       30.224       33.893       22.952      913.467     1148.769      526.808        0.236        0.129       45.793       13.415        0.086      336.917        8.540      868.418
11/30/2013  11:37:00       -7.030       55.819       88.339       39.231       71.029       49.317     1539.070     5045.054     2432.161        0.999        0.451       56.259       50.491        0.805      337.106        8.856      868.415
11/30/2013  11:38:00       81.914       77.707       59.826       76.502       52.154       57.829     5852.566     2720.092     3344.220        1.412        0.596      112.908       39.443        0.122      336.940        8.577      868.410
11/30/2013  11:39:00       45.418       88.274       86.652       44.599       40.001       29.746     1989.110     1600.108      884.843        1.092        0.224       99.273       27.119        0.075      336.781        8.313      868.411
11/30/2013  11:40:00       61.412       43.760       43.116       32.624       40.626       41.026     1064.303     1650.487     1683.133        0.597        0.220       75.408       32.129        0.182      336.768        8.292      868.405
11/30/2013  11:41:00       61.332       93.315       45.610       41.546       42.216       53.154     1726.107     1782.217     2825.303        1.044        0.317      111.666       19.237        0.030      337.027        8.722      868.411
11/30/2013  11:42:00       89.903       93.336       68.586       44.508       30.605       34.890     1980.999      936.655     1217.295        1.282        0.207      129.593       28.103        0.047      336.805        8.353      868.416
11/30/2013  11:43:00       22.803       34.526       31.389       35.556       24.833       37.911     1264.202      616.695     1437.271        0.301        0.166       41.376       25.868        0.391      336.984        8.651      868.434
11/30/2013  11:44:00       64.981       67.505       52.386       51.187       31.434       50.252     2620.142      988.120     2525.272        0.883        0.307       93.699       39.569        0.178      336.880        8.479      868.439
11/30/2013  11:45:00       59.169       30.208        0.978       14.344       12.663       17.221      205.744      160.363      296.565        0.254        0.033       66.434       13.179        0.039      336.545        7.919      868.450
11/30/2013  11:46:00      106.248        3.023       22.305       62.010       34.196       29.028     3845.283     1169.359      842.645        0.883        0.293      106.291       19.040        0.032      336.734        8.235      868.439
11/30/2013  11:47:00       53.633       32.203       60.050       68.264       62.048       53.185     4659.992     3849.985     2828.674        0.943        0.567       62.558       56.236        0.808      337.004        8.685      868.418
11/30/2013  11:48:00      125.939      102.356       80.534       55.757       46.077       34.066     3108.811     2123.060     1160.468        1.961        0.320      162.288       27.813        0.029      336.957        8.605      868.396
11/30/2013  11:49:00       39.808       73.943       77.300       50.705       49.069       38.321     2571.003     2407.760     1468.509        0.974        0.322       83.977       30.340        0.131      337.086        8.822      868.379
11/30/2013  11:50:00       73.533       87.477       31.180       31.482       29.127       36.453      991.092      848.373     1328.851        0.860        0.158      114.277       23.714        0.043      336.926        8.554      868.371
11/30/2013  11:51:00       11.419       60.866       78.901       34.935       35.767       24.039     1220.443     1279.280      577.873        0.657        0.154       61.928       20.654        0.111      337.181        8.983      868.356
11/30/2013  11:52:00       62.326      132.966      112.327       65.768       56.251       50.294     4325.397     3164.130     2529.498        2.210        0.501      146.848       35.666        0.059      337.065        8.787      868.359
11/30/2013  11:53:00      129.028      103.489       62.372       48.138       44.021       58.760     2317.292     1937.853     3452.736        1.948        0.385      165.403       42.859        0.067      336.871        8.463      868.355
11/30/2013  11:54:00       94.179       98.169       90.725       55.795       49.665       47.624     3113.114     2466.581     2268.057        1.729        0.392      136.040       45.001        0.109      336.957        8.608      868.355
11/30/2013  11:55:00       69.290       79.954       65.496       66.525       58.456       43.524     4425.608     3417.108     1894.346        1.261        0.487      105.801       30.962        0.086      337.167        8.958      868.348
11/30/2013  11:56:00       25.681      -23.875       17.172       51.801       78.979       34.077     2683.303     6237.740     1161.216        0.580        0.504       35.065       27.133        0.599      337.454        9.438      868.337
11/30/2013  11:57:00       52.206       80.394       73.880       79.642       46.167       45.524     6342.856     2131.350     2072.441        1.259        0.527       95.857       48.081        0.252      337.469        9.463      868.338
11/30/2013  11:58:00      144.462      128.974       92.128       75.922       75.639       63.840     5764.180     5721.196     4075.548        3.077        0.778      193.658       59.015        0.093      337.106        8.854      868.330
11/30/2013  11:59:00      127.561      126.921       82.084       83.655       56.606       64.411     6998.210     3204.274     4148.766        2.673        0.718      179.946       56.617        0.099      337.101        8.846      868.323
11/30/2013  12:00:00      113.656       97.952       74.699       55.834       48.556       55.772     3117.425     2357.690     3110.495        1.834        0.429      150.041       42.592        0.081      337.124        8.886      868.339
11/30/2013  12:01:00       87.838      103.139       77.597       55.086       53.811       52.496     3034.494     2895.668     2755.843        1.653        0.434      135.474       33.733        0.062      337.240        9.080      868.359
11/30/2013  12:02:00      105.037       86.128       74.239       79.511       49.690       55.421     6321.988     2469.126     3071.443        1.791        0.593      135.834       52.987        0.152      337.365        9.289      868.367
11/30/2013  12:03:00       96.788       88.837       60.190       82.519       57.327       71.793     6809.305     3286.335     5154.174        1.806        0.762      131.378       62.661        0.227      337.406        9.358      868.361
11/30/2013  12:04:00       91.283      102.288       91.466       62.462       60.466       52.994     3901.460     3656.156     2808.353        1.876        0.518      137.096       44.560        0.106      337.222        9.049      868.361
11/30/2013  12:05:00      109.278       52.368       22.803       68.478       53.515       44.077     4689.302     2863.851     1942.772        1.235        0.475      121.178       27.609        0.052      337.414        9.371      868.338
11/30/2013  12:06:00       52.096       29.885       46.311       42.589       38.541       43.242     1813.784     1485.439     1869.856        0.546        0.258       60.060       24.841        0.171      337.745        9.927      868.312
11/30/2013  12:07:00       47.807       49.465       87.229       55.602       47.694       36.860     3091.563     2274.716     1358.667        0.953        0.336       68.792       33.773        0.241      337.601        9.686      868.300
11/30/2013  12:08:00      166.940      101.494       79.694       93.359       77.815       63.329     8715.893     6055.208     4010.512        3.165        0.939      195.372       45.410        0.054      337.379        9.311      868.273
11/30/2013  12:09:00      191.166      119.622       18.028       89.164       56.915       55.560     7950.172     3239.296     3086.879        3.272        0.714      225.508       33.772        0.022      337.383        9.317      868.269
11/30/2013  12:10:00       48.482       56.295       53.245       72.015       41.297       43.362     5186.099     1705.441     1880.278        0.856        0.439       74.295       41.038        0.305      337.751        9.935      868.262
11/30/2013  12:11:00       15.175       78.051      107.429       77.268       73.251       65.495     5970.275     5365.638     4289.654        1.674        0.781       79.513       59.345        0.557      337.935       10.245      868.247
11/30/2013  12:12:00      106.841       80.915       13.588       56.570       44.631       35.418     3200.131     1991.951     1254.417        1.230        0.322      134.024       28.496        0.045      337.394        9.337      868.267
11/30/2013  12:13:00       43.494        8.782        1.045       30.540       35.398       27.433      932.701     1253.032      752.580        0.245        0.147       44.372       21.181        0.228      337.677        9.812      868.271
11/30/2013  12:14:00       24.328        8.716       39.117       56.267       61.342       39.940     3165.971     3762.884     1595.170        0.536        0.426       25.842       40.573        2.465      337.727        9.896      868.261
11/30/2013  12:15:00      101.222       65.156       21.003       65.787       43.852       56.301     4327.882     1922.982     3169.755        1.217        0.471      120.379       28.594        0.056      337.618        9.714      868.276
11/30/2013  12:16:00       48.209       32.310       -5.879       59.913       26.225       22.662     3589.566      687.730      513.549        0.410        0.240       58.035       19.546        0.113      337.796       10.012      868.289
11/30/2013  12:17:00       80.923       57.547       20.011       56.609       54.222       39.189     3204.635     2940.004     1535.792        0.897        0.384       99.298       28.763        0.084      337.939       10.252      868.290
11/30/2013  12:18:00       91.138       60.861        8.410       58.624       36.604       36.101     3436.739     1339.861     1303.255        0.908        0.304      109.591       23.639        0.047      337.667        9.796      868.275
11/30/2013  12:19:00      102.988       75.734       50.233       67.541       58.161       40.505     4561.774     3382.667     1640.636        1.422        0.479      127.836       28.185        0.049      338.014       10.376      868.252
11/30/2013  12:20:00       89.355       73.337       44.150       69.040       44.837       40.972     4766.568     2010.331     1678.710        1.188        0.423      115.597       24.340        0.044      337.858       10.116      868.240
11/30/2013  12:21:00       92.761      -65.287        9.681       57.166       67.282       38.808     3267.943     4526.932     1506.082        1.113        0.465      113.433       37.350        0.108      337.646        9.761      868.229
11/30/2013  12:22:00       43.378       -9.694       32.588       40.177       82.961       42.563     1614.190     6882.582     1811.636        0.667        0.515       44.448       49.915        1.261      337.716        9.878      868.212
11/30/2013  12:23:00       44.873       16.234        4.609       45.292       43.155       26.911     2051.367     1862.381      724.223        0.347        0.232       47.719       21.775        0.208      337.694        9.840      868.196
11/30/2013  12:24:00       45.901       41.030       25.523       43.890       19.236       18.038     1926.343      370.006      325.371        0.353        0.131       61.566       11.278        0.034      337.752        9.937      868.178
11/30/2013  12:25:00       49.509       38.375       23.546       24.774       20.505       23.986      613.742      420.448      575.316        0.304        0.080       62.640        9.784        0.024      337.855       10.111      868.181
11/30/2013  12:26:00       98.394      102.153       59.285       65.456       38.156       49.933     4284.516     1455.871     2493.327        1.593        0.412      141.833       41.487        0.086      337.903       10.191      868.169
11/30/2013  12:27:00       79.420       65.528       72.952       61.421       49.737       52.118     3772.533     2473.801     2716.335        1.244        0.448      102.963       37.392        0.132      337.922       10.223      868.140
11/30/2013  12:28:00       84.879      125.354       97.358       66.135       54.915       50.788     4373.827     3015.640     2579.435        2.118        0.498      151.387       31.430        0.043      337.860       10.118      868.130
11/30/2013  12:29:00      192.116      145.125       77.977       80.796       46.976       58.838     6527.953     2206.784     3461.880        3.812        0.610      240.769       53.177        0.049      337.864       10.122      868.119
11/30/2013  12:30:00      193.847      152.457       11.813       91.780       56.869       52.946     8423.608     3234.072     2803.266        3.771        0.723      246.617       33.601        0.019      337.682        9.817      868.119
11/30/2013  12:31:00      136.462       66.209       14.292       47.468       51.121       41.248     2253.204     2613.406     1701.397        1.489        0.328      151.675       20.318        0.018      337.772        9.971      868.103
11/30/2013  12:32:00       91.024       39.434       71.034       82.655       78.272       67.013     6831.860     6126.508     4490.744        1.616        0.872       99.199       69.410        0.490      337.917       10.216      868.078
11/30/2013  12:33:00      132.422      106.586       57.628       55.696       65.148       55.149     3101.994     4244.241     3041.443        2.130        0.519      169.988       35.068        0.043      337.840       10.085      868.071
11/30/2013  12:34:00       68.573       83.500       86.842       77.969       55.859       49.870     6079.205     3120.232     2487.042        1.545        0.584      108.048       37.621        0.121      337.988       10.334      868.059
11/30/2013  12:35:00       42.722       33.056       19.551       58.012       71.763       32.743     3365.349     5149.869     1072.086        0.644        0.479       54.017       30.526        0.319      338.038       10.419      868.062
11/30/2013  12:36:00       30.100      -31.554        6.766       43.636       99.874       42.123     1904.100     9974.846     1774.323        0.780        0.683       43.608       57.563        1.742      338.259       10.789      868.054
11/30/2013  12:37:00       39.331       71.847       60.163       53.779       44.836       29.894     2892.156     2010.242      893.675        0.806        0.290       81.908       23.478        0.082      338.533       11.248      868.054
11/30/2013  12:38:00      126.615      104.257       56.106       94.922       59.596       59.666     9010.182     3551.704     3560.034        2.308        0.806      164.014       54.223        0.109      338.463       11.131      868.067
11/30/2013  12:39:00      126.411       47.835       33.896       78.739       52.097       50.854     6199.811     2714.074     2586.173        1.546        0.575      135.159       32.939        0.059      338.258       10.786      868.079
11/30/2013  12:40:00      105.568       96.533       36.046       53.977       50.378       56.088     2913.540     2537.964     3145.908        1.518        0.430      143.050       36.486        0.065      338.330       10.907      868.076
11/30/2013  12:41:00       59.035       77.547       63.456       71.440       57.935       45.344     5103.611     3356.441     2056.086        1.202        0.526       97.461       39.054        0.161      338.344       10.931      868.061
11/30/2013  12:42:00       56.702       42.221       46.764       75.400       47.661       46.426     5685.181     2271.547     2155.386        0.865        0.506       70.695       49.853        0.497      338.357       10.955      868.051
11/30/2013  12:43:00       77.995       65.877       43.235       49.653       37.538       42.876     2465.423     1409.105     1838.333        0.900        0.286      102.093       34.122        0.112      338.338       10.922      868.041
11/30/2013  12:44:00       69.932      105.134      110.342       63.189       65.359       50.850     3992.787     4271.824     2585.713        1.948        0.543      126.269       26.008        0.042      338.389       11.005      868.013
11/30/2013  12:45:00       16.699       -7.702       43.760       46.033       71.420       39.746     2119.078     5100.829     1579.709        0.552        0.440       18.389       26.224        2.034      338.528       11.240      867.985
11/30/2013  12:46:00       50.756       29.631       78.608       68.641      119.547       78.879     4711.600    14291.382     6221.935        1.742        1.261       58.772       75.238        1.639      338.531       11.245      867.967
11/30/2013  12:47:00      125.150      108.106       99.310       84.300       83.899       56.481     7106.471     7039.080     3190.155        2.727        0.867      165.377       47.307        0.082      338.363       10.962      867.969
11/30/2013  12:48:00      138.542       66.987       91.765       94.130       84.082       70.254     8860.448     7069.717     4935.662        2.648        1.043      153.887       52.855        0.118      338.104       10.526      867.968
11/30/2013  12:49:00      167.444       97.189       49.896       93.531       78.100       77.018     8748.114     6099.567     5931.714        3.037        1.039      193.606       60.663        0.098      338.064       10.459      867.943
11/30/2013  12:50:00       68.969       95.830      108.877       84.445       79.805       62.806     7130.947     6368.839     3944.560        2.162        0.872      118.069       61.612        0.272      338.310       10.873      867.934
11/30/2013  12:51:00       28.530       68.376       96.695       47.028       71.798       48.873     2211.613     5154.885     2388.569        1.230        0.488       74.090       49.170        0.440      338.619       11.393      867.923
11/30/2013  12:52:00       96.224      137.214      116.735       75.566       69.982       68.198     5710.292     4897.465     4650.974        2.848        0.763      167.591       58.207        0.121      338.141       10.590      867.920
11/30/2013  12:53:00      142.382       90.275       86.507       67.225       73.937       62.219     4519.209     5466.672     3871.181        2.488        0.693      168.589       49.543        0.086      338.036       10.414      867.900
11/30/2013  12:54:00       84.036      -19.911       65.193       90.090      143.075       83.592     8116.182    20470.423     6987.637        2.363        1.779       86.363      105.837        1.502      338.228       10.734      867.877
11/30/2013  12:55:00       42.057       19.913       77.782       68.133      109.078       63.163     4642.167    11898.066     3989.518        1.437        1.026       46.533       68.864        2.190      338.360       10.957      867.886
11/30/2013  12:56:00       66.012       65.677       73.142       91.111       51.845       57.481     8301.235     2687.873     3304.040        1.415        0.715       93.119       26.988        0.084      338.288       10.837      867.889
11/30/2013  12:57:00       52.996      -56.375       35.429       84.718       92.251       60.346     7177.100     8510.190     3641.695        1.328        0.966       77.374       59.967        0.601      338.343       10.929      867.891
11/30/2013  12:58:00       84.487      -57.132       30.265       48.636       82.705       39.447     2365.425     6840.129     1556.044        1.104        0.538      101.990       43.595        0.183      338.349       10.939      867.885
11/30/2013  12:59:00       28.952       92.988      108.284       53.909       62.234       46.770     2906.170     3873.080     2187.449        1.509        0.448       97.391       44.797        0.212      338.550       11.277      867.871
11/30/2013  13:00:00       42.433       92.168       97.180       60.022       52.759       33.128     3602.684     2783.460     1097.484        1.361        0.374      101.466       22.666        0.050      338.489       11.175      867.859
11/30/2013  13:01:00       95.134       72.326       41.248       46.216       37.680       42.624     2135.925     1419.789     1816.768        1.068        0.269      119.505       31.877        0.071      338.195       10.681      867.859
11/30/2013  13:02:00       31.362       58.709       62.934       35.544       57.414       52.497     1263.385     3296.402     2755.973        0.785        0.366       66.561       49.226        0.547      338.457       11.121      867.832
11/30/2013  13:03:00      132.151      171.676      127.946       98.159       60.991       68.423     9635.217     3719.886     4681.664        4.067        0.902      216.649       66.743        0.095      338.111       10.538      867.812
11/30/2013  13:04:00      102.104       98.365       76.888       56.709       54.124       53.043     3215.901     2929.461     2813.532        1.748        0.448      141.777       37.332        0.069      338.278       10.819      867.822
11/30/2013  13:05:00       50.279       50.649       47.904       30.878       31.864       20.353      953.431     1015.319      414.237        0.489        0.119       71.367       11.801        0.027      338.317       10.887      867.836
11/30/2013  13:06:00       -1.782       25.223       64.355       35.878       52.148       29.790     1287.226     2719.368      887.465        0.484        0.245       25.286       24.701        0.954      338.923       11.903      867.826
11/30/2013  13:07:00       31.328       65.974       79.289       54.431       65.592       48.499     2962.779     4302.303     2352.128        1.062        0.481       73.034       46.101        0.398      338.549       11.275      867.827
11/30/2013  13:08:00       43.904      -42.921       11.302       35.134       48.416       23.672     1234.367     2344.148      560.348        0.402        0.207       61.398       27.559        0.201      338.550       11.278      867.804
11/30/2013  13:09:00       50.500     -120.614       -3.015       58.101       51.976       32.166     3375.731     2701.472     1034.666        1.211        0.356      130.759       26.583        0.041      338.526       11.237      867.776
11/30/2013  13:10:00       67.916      -14.180       28.112       69.668       59.258       54.175     4853.661     3511.551     2934.923        0.845        0.565       69.381       43.898        0.400      338.663       11.467      867.763
11/30/2013  13:11:00       69.500        4.728       34.654       53.339       76.694       43.272     2845.011     5881.960     1872.462        0.832        0.530       69.661       45.767        0.432      338.572       11.315      867.759
11/30/2013  13:12:00      120.089       86.255       80.453       66.196       51.427       56.074     4381.857     2644.781     3144.297        1.925        0.509      147.856       48.048        0.106      338.448       11.107      867.765
11/30/2013  13:13:00       79.416       36.837       19.624       60.718       52.823       38.012     3686.732     2790.321     1444.915        0.798        0.396       87.544       28.787        0.108      338.612       11.380      867.745
11/30/2013  13:14:00       37.055       29.799       76.435       71.618      104.869       72.967     5129.154    10997.476     5324.180        1.477        1.073       47.551       67.760        2.031      338.781       11.666      867.732
11/30/2013  13:15:00       43.797        6.590       84.754       68.744      109.199       55.699     4725.777    11924.322     3102.338        1.444        0.988       44.290       69.759        2.481      338.593       11.350      867.723
11/30/2013  13:16:00       93.270     -141.931       -5.073       50.199       77.490       46.500     2519.915     6004.774     2162.228        1.978        0.534      169.835       47.293        0.078      338.416       11.050      867.708
11/30/2013  13:17:00       77.309     -115.285      -13.091       44.811       47.677       28.476     2008.045     2273.093      810.905        1.226        0.255      138.807       14.231        0.011      338.285       10.832      867.699
11/30/2013  13:18:00       38.865      -96.194        1.490       43.923       41.700       34.073     1929.244     1738.893     1160.948        0.780        0.241      103.748       25.475        0.060      338.520       11.227      867.671
11/30/2013  13:19:00       33.084      -69.300       -2.502       39.099       39.654       28.520     1528.764     1572.448      813.408        0.491        0.196       76.792       19.020        0.061      338.737       11.591      867.637
11/30/2013  13:20:00       -8.954      -28.882       28.625       46.514       33.332       32.591     2163.570     1111.028     1062.165        0.303        0.217       30.238       21.805        0.520      338.905       11.874      867.627
11/30/2013  13:21:00       60.505      -26.662       34.258       69.195       59.341       40.964     4787.984     3521.405     1678.085        0.776        0.499       66.119       46.388        0.492      338.861       11.800      867.614
11/30/2013  13:22:00       55.974      -13.116       40.272       66.595       92.387       71.221     4434.828     8535.450     5072.385        1.148        0.902       57.490       72.830        1.605      338.841       11.767      867.600
11/30/2013  13:23:00       -1.118       29.003       61.362       30.148       68.870       50.873      908.892     4743.097     2588.044        0.642        0.412       29.024       51.796        3.185      339.170       12.320      867.597
11/30/2013  13:24:00       11.912        6.755       30.464       55.990       23.849       31.659     3134.855      568.783     1002.265        0.291        0.235       13.694       23.467        2.937      339.078       12.166      867.591
11/30/2013  13:25:00       26.897      -17.814       29.267       51.717       67.618       38.867     2674.647     4572.145     1510.671        0.533        0.438       32.261       41.880        1.685      338.899       11.863      867.578
11/30/2013  13:26:00       41.343     -106.347        2.523       66.838       76.475       74.557     4467.336     5848.382     5558.736        1.445        0.794      114.100       50.686        0.197      338.701       11.531      867.553
11/30/2013  13:27:00        4.832       80.623      113.608       39.084       78.807       49.361     1527.534     6210.604     2436.548        1.480        0.509       80.767       53.029        0.431      338.790       11.679      867.526
11/30/2013  13:28:00      -57.671      -43.527       16.652       63.414       71.038       33.764     4021.385     5046.390     1140.034        0.785        0.510       72.253       32.305        0.200      338.845       11.773      867.525
11/30/2013  13:29:00      -83.183      -60.775       -5.299       54.095       40.498       25.613     2926.261     1640.094      656.003        0.793        0.261      103.019       16.424        0.025      338.641       11.430      867.508
11/30/2013  13:30:00      -30.800       12.803       48.711       51.582       38.158       39.851     2660.710     1456.019     1588.098        0.459        0.285       33.355       33.183        0.990      338.870       11.815      867.499
11/30/2013  13:31:00       61.137      -60.986       37.033       80.057      119.003       56.724     6409.044    14161.760     3217.619        1.630        1.189       86.354       63.442        0.540      338.747       11.607      867.479
11/30/2013  13:32:00      105.395      -60.914       35.809       73.407      145.095       81.736     5388.642    21052.449     6680.822        2.460        1.656      121.732      106.608        0.767      338.608       11.373      867.457
11/30/2013  13:33:00       31.757        6.580       69.477       53.136       87.044       55.785     2823.432     7576.721     3112.020        0.969        0.676       32.432       60.118        3.436      338.934       11.924      867.440
11/30/2013  13:34:00       36.346        7.945       46.471       43.150       34.621       36.139     1861.894     1198.602     1306.020        0.395        0.218       37.204       31.125        0.700      339.032       12.088      867.423
11/30/2013  13:35:00       26.774      -84.810       16.680       53.588       86.848       38.770     2871.689     7542.594     1503.140        1.005        0.596       88.936       42.865        0.232      339.014       12.058      867.414
11/30/2013  13:36:00       90.850     -166.132      -26.822       72.725       76.103       56.261     5288.977     5791.639     3165.271        2.541        0.712      189.350       42.312        0.050      338.660       11.460      867.386
11/30/2013  13:37:00      -39.098     -114.273       -0.615       67.528       57.874       32.975     4560.086     3349.414     1087.359        1.179        0.450      120.776       24.886        0.042      338.826       11.741      867.374
11/30/2013  13:38:00        1.495        4.423       24.341       27.444       19.207       24.766      753.160      368.902      613.335        0.117        0.087        4.669       15.422       10.912      339.241       12.438      867.383
11/30/2013  13:39:00        7.553       -9.514       26.845       32.488       44.682       29.151     1055.452     1996.438      849.804        0.238        0.195       12.147       29.725        5.988      339.067       12.147      867.386
11/30/2013  13:40:00       -1.626      -34.073       17.019       41.581       58.323       31.462     1728.947     3401.599      989.846        0.379        0.306       34.112       38.765        1.291      339.149       12.286      867.392
11/30/2013  13:41:00       23.183        1.623       36.625       56.527       58.901       43.623     3195.247     3469.372     1902.981        0.522        0.428       23.239       52.657        5.134      338.964       11.973      867.379
11/30/2013  13:42:00       -6.875      -38.978        9.471       34.339       40.974       28.589     1179.133     1678.887      817.342        0.267        0.184       39.580       25.900        0.428      339.185       12.345      867.368
11/30/2013  13:43:00        7.071      -39.826       11.052       42.180       56.108       31.084     1779.161     3148.149      966.196        0.382        0.295       40.449       34.980        0.748      339.137       12.264      867.365
11/30/2013  13:44:00      -40.379      -42.714       -7.459       31.566       36.600       22.959      996.400     1339.591      527.120        0.319        0.143       58.779       20.109        0.117      339.117       12.231      867.372
11/30/2013  13:45:00       -3.929      -30.569        9.573       23.215       34.593       24.402      538.922     1196.689      595.468        0.169        0.117       30.820       20.363        0.437      339.204       12.378      867.383
11/30/2013  13:46:00       21.974      -27.505       38.679       52.711       43.800       35.244     2778.404     1918.454     1242.149        0.434        0.297       35.204       24.310        0.477      339.133       12.258      867.384
11/30/2013  13:47:00       15.139       35.669       63.973       35.801       37.087       21.717     1281.746     1375.474      471.611        0.436        0.156       38.749       20.612        0.283      339.071       12.153      867.395
11/30/2013  13:48:00       24.980       20.703       33.209       26.930       33.966       17.175      725.240     1153.675      294.978        0.216        0.109       32.444       14.017        0.187      338.927       11.911      867.410
11/30/2013  13:49:00       16.509       17.927       36.551       32.401       25.054       27.244     1049.840      627.698      742.219        0.217        0.121       24.370       25.989        1.137      339.201       12.372      867.425
11/30/2013  13:50:00       11.655        5.348       19.653       25.097       24.308       18.430      629.837      590.891      339.682        0.106        0.078       12.823       11.811        0.848      339.389       12.689      867.419
11/30/2013  13:51:00       31.451       25.108       58.102       56.605       55.040       47.641     3204.170     3029.447     2269.638        0.675        0.425       40.244       36.894        0.840      339.145       12.278      867.415
11/30/2013  13:52:00       48.066      -72.819        1.864       35.464       43.115       31.318     1257.720     1858.933      980.842        0.586        0.205       87.252       27.370        0.098      339.009       12.049      867.407
11/30/2013  13:53:00       66.376       52.042       37.114       45.572       39.447       33.675     2076.827     1556.079     1133.975        0.663        0.238       84.346       22.079        0.069      338.970       11.983      867.402
11/30/2013  13:54:00        3.567      -28.611       21.712       42.238       37.236       28.475     1784.046     1386.525      810.838        0.264        0.199       28.833       23.469        0.663      339.246       12.449      867.380
11/30/2013  13:55:00        4.969       17.353       24.582       43.329       36.904       29.669     1877.401     1361.913      880.245        0.252        0.206       18.050       16.396        0.825      339.283       12.510      867.350
11/30/2013  13:56:00       41.435      -45.287       34.009       55.718       69.067       39.919     3104.447     4770.280     1593.551        0.719        0.473       61.382       44.046        0.515      339.227       12.414      867.331
11/30/2013  13:57:00       12.415      -67.088       35.936       53.775       91.764       43.016     2891.699     8420.651     1850.362        0.955        0.658       68.227       54.606        0.641      339.249       12.453      867.315
11/30/2013  13:58:00       72.837      -88.218       -2.742       54.882       58.865       38.811     3012.042     3465.116     1506.292        1.054        0.399      114.401       36.659        0.103      338.939       11.932      867.278
11/30/2013  13:59:00       60.259      -23.508       32.300       58.320       93.284       45.216     3401.198     8701.892     2044.489        0.968        0.707       64.682       56.132        0.753      338.987       12.011      867.249
11/30/2013  14:00:00       70.648      -51.748       25.423       49.914       50.974       32.344     2491.422     2598.390     1046.113        0.722        0.307       87.573       30.068        0.118      339.031       12.085      867.205
11/30/2013  14:01:00      100.561      -44.264       10.830       60.471       63.249       39.516     3656.791     4000.424     1561.498        1.070        0.461      109.872       42.804        0.152      338.911       11.884      867.136
11/30/2013  14:02:00        5.635       45.890       68.770       39.835       40.823       34.666     1586.822     1666.535     1201.741        0.566        0.223       46.235       23.237        0.253      339.283       12.511      867.081
11/30/2013  14:03:00       33.354       16.232      103.597       80.563      121.957       68.681     6490.415    14873.544     4717.099        1.909        1.304       37.094       78.176        4.442      339.104       12.208      867.032
11/30/2013  14:04:00       63.196       27.498       74.370       69.009       63.885       50.879     4762.214     4081.325     2588.681        1.085        0.572       68.919       50.994        0.547      339.083       12.175      867.016
11/30/2013  14:05:00      101.240     -102.131        2.875       64.864       85.835       54.089     4207.308     7367.729     2925.644        1.759        0.725      143.807       61.536        0.183      338.968       11.978      867.009
11/30/2013  14:06:00       28.121      -28.423       24.653       59.880       40.240       38.460     3585.565     1619.255     1479.199        0.444        0.334       39.984       39.329        0.968      339.191       12.356      867.005
11/30/2013  14:07:00       51.780      -25.211       47.459       90.054       96.237       46.771     8109.759     9261.490     2187.504        1.256        0.978       57.591       68.592        1.419      339.269       12.488      867.026
11/30/2013  14:08:00       59.310      -39.777       33.209       59.283       67.724       33.902     3514.448     4586.584     1149.350        0.772        0.463       71.414       39.976        0.313      339.118       12.232      867.048
11/30/2013  14:09:00       21.685       28.320       65.848       57.299       37.985       30.447     3283.220     1442.840      927.017        0.563        0.283       35.669       25.989        0.531      339.354       12.629      867.060
11/30/2013  14:10:00       28.661      -22.620       23.932       33.984       78.414       36.290     1154.897     6148.727     1316.941        0.526        0.431       36.512       45.677        1.565      339.260       12.472      867.053
11/30/2013  14:11:00      146.624       86.647       32.365       67.336       54.694       45.721     4534.094     2991.433     2090.419        1.983        0.481      170.313       34.654        0.041      339.060       12.134      867.037
11/30/2013  14:12:00       97.034       54.193       22.153       71.239       58.159       41.453     5074.959     3382.514     1718.349        1.151        0.509      111.142       28.928        0.068      339.084       12.175      867.009
11/30/2013  14:13:00      125.772       56.288       41.041       95.503       72.294       64.828     9120.803     5226.390     4202.688        1.961        0.927      137.794       48.305        0.123      339.049       12.115      866.974
11/30/2013  14:14:00      148.864       80.785       51.857       60.980       47.364       57.866     3718.601     2243.385     3348.472        2.034        0.466      169.372       37.554        0.049      338.959       11.963      866.939
11/30/2013  14:15:00       78.526       35.258       34.487       53.840       33.448       38.828     2898.769     1118.792     1507.647        0.706        0.276       86.079       26.746        0.097      339.012       12.055      866.914
11/30/2013  14:16:00      104.315       78.534       12.259       31.805       27.498       24.821     1011.586      756.135      616.096        0.979        0.119      130.573       16.712        0.016      338.911       11.884      866.908
11/30/2013  14:17:00       71.389       11.931       -0.129       46.056       43.257       16.179     2121.169     1871.161      261.749        0.475        0.213       72.379       11.213        0.024      338.978       11.998      866.901
11/30/2013  14:18:00        9.730       -7.813       12.363       22.001       33.786       22.149      484.052     1141.500      490.564        0.121        0.106       12.479       12.436        0.993      339.237       12.432      866.894
11/30/2013  14:19:00       66.903       23.070       36.186       63.865       59.848       34.280     4078.711     3581.805     1175.112        0.757        0.442       70.769       41.824        0.349      339.204       12.378      866.892
11/30/2013  14:20:00      104.239      -38.344       29.434       77.771       63.179       45.479     6048.297     3991.583     2068.324        1.265        0.605      111.067       42.527        0.147      339.173       12.325      866.868
11/30/2013  14:21:00       45.449       19.855       49.657       55.477       47.655       36.456     3077.745     2270.984     1329.075        0.580        0.334       49.596       33.753        0.463      339.179       12.335      866.872
11/30/2013  14:22:00       67.831      -27.002       46.427       63.506       87.957       52.696     4033.075     7736.381     2776.871        1.101        0.727       73.007       69.781        0.914      339.361       12.640      866.864
11/30/2013  14:23:00       72.631       59.719       49.473       51.373       50.856       33.967     2639.208     2586.329     1153.730        0.883        0.319       94.031       24.665        0.069      339.127       12.247      866.880
11/30/2013  14:24:00       91.740       60.043       45.041       48.329       30.455       41.963     2335.648      927.489     1760.874        0.954        0.251      109.642       20.667        0.036      339.013       12.055      866.886
11/30/2013  14:25:00       61.070       73.074       70.455       50.785       45.385       44.598     2579.158     2059.830     1989.002        1.033        0.331       95.234       38.285        0.162      339.251       12.456      866.876
11/30/2013  14:26:00       96.321       77.490       81.861       64.172       57.137       65.051     4118.052     3264.634     4231.632        1.680        0.581      123.622       51.148        0.171      339.017       12.064      866.869
11/30/2013  14:27:00       80.790       70.317       75.740       46.446       58.429       36.148     2157.188     3413.958     1306.691        1.204        0.344      107.105       30.121        0.079      339.214       12.393      866.866
11/30/2013  14:28:00       87.133       73.981       74.880       53.411       42.593       39.736     2852.767     1814.161     1578.924        1.246        0.312      114.303       35.535        0.097      339.045       12.109      866.875
11/30/2013  14:29:00      119.580       50.540       39.941       45.232       46.528       34.431     2045.978     2164.901     1185.470        1.192        0.270      129.822       26.798        0.043      338.992       12.021      866.892
11/30/2013  14:30:00       79.995       98.445       74.741       68.283       46.338       47.279     4662.623     2147.249     2235.315        1.536        0.452      126.848       40.564        0.102      339.201       12.372      866.911
11/30/2013  14:31:00      144.351       88.592       40.282       36.947       46.318       44.482     1365.048     2145.371     1978.662        1.790        0.274      169.369       34.424        0.041      339.010       12.050      866.936
11/30/2013  14:32:00      133.527       77.864       45.374       78.246       58.264       57.465     6122.359     3394.656     3302.172        1.938        0.641      154.572       55.240        0.128      339.053       12.121      866.938
11/30/2013  14:33:00       73.314       69.841       64.293       58.474       40.816       39.793     3419.211     1665.918     1583.497        1.053        0.333      101.256       28.774        0.081      339.158       12.300      866.945
11/30/2013  14:34:00       49.825      -24.452        6.491       27.345       23.334       24.775      747.735      544.454      613.806        0.251        0.095       55.501       18.955        0.117      339.111       12.220      866.955
11/30/2013  14:35:00       52.447       30.967       21.850       34.117       34.468       21.707     1163.960     1188.062      471.199        0.350        0.141       60.907       17.710        0.085      339.199       12.368      866.946
11/30/2013  14:36:00       16.041      -18.455        6.977       22.605       28.846       19.520      511.000      832.115      381.021        0.119        0.086       24.452       12.072        0.244      339.428       12.754      866.945
11/30/2013  14:37:00       51.727      -14.294        7.079       41.881       35.194       26.686     1754.051     1238.605      712.119        0.332        0.185       53.666       16.533        0.095      339.291       12.522      866.946
11/30/2013  14:38:00       37.574       68.878       69.849       56.872       45.721       42.255     3234.480     2090.410     1785.443        0.907        0.356       78.460       40.342        0.264      339.233       12.426      866.943
11/30/2013  14:39:00      108.253      130.818      102.796       53.754       43.971       39.280     2889.522     1933.443     1542.956        2.288        0.318      169.800       29.397        0.030      339.065       12.141      866.919
11/30/2013  14:40:00       89.855       99.239       72.621       57.869       50.099       47.393     3348.788     2509.892     2246.122        1.565        0.405      133.874       40.207        0.090      339.170       12.320      866.905
11/30/2013  14:41:00       43.187       83.241      102.240       75.181       58.856       54.530     5652.189     3464.057     2973.557        1.567        0.604       93.777       51.193        0.298      339.165       12.310      866.880
11/30/2013  14:42:00       79.419       68.703       69.238       62.511       45.427       39.211     3907.643     2063.634     1537.521        1.166        0.375      105.012       34.895        0.110      339.193       12.359      866.869
11/30/2013  14:43:00       47.671       45.925       55.151       41.298       35.796       27.136     1705.491     1281.355      736.374        0.557        0.186       66.194       11.529        0.030      339.399       12.704      866.860
11/30/2013  14:44:00      100.118       57.215        7.648       34.256       34.183       28.314     1173.494     1168.453      801.659        0.825        0.157      115.313       11.150        0.009      339.324       12.579      866.860
11/30/2013  14:45:00       99.202       72.570        4.948       44.759       41.946       33.881     2003.344     1759.500     1147.902        1.002        0.246      122.912       29.814        0.059      339.233       12.425      866.876
11/30/2013  14:46:00       46.194      -20.881        8.281       58.041       70.470       27.942     3368.711     4966.043      780.745        0.588        0.456       50.694       27.647        0.297      339.389       12.690      866.870
11/30/2013  14:47:00       38.710       20.412       45.447       36.141       38.771       25.389     1306.136     1503.218      644.613        0.372        0.173       43.762       21.665        0.245      339.345       12.614      866.886
11/30/2013  14:48:00       60.240       20.076       28.280       46.245       40.068       32.353     2138.616     1605.406     1046.734        0.481        0.240       63.497       23.322        0.135      339.197       12.365      866.896
11/30/2013  14:49:00       64.457       43.157       46.771       45.398       33.476       37.679     2060.988     1120.623     1419.731        0.640        0.230       77.571       23.641        0.093      339.287       12.518      866.891
11/30/2013  14:50:00       82.394       70.089       62.183       55.969       46.220       47.071     3132.514     2136.268     2215.665        1.152        0.374      108.173       40.125        0.138      339.305       12.546      866.898
11/30/2013  14:51:00       67.374       63.519       93.322       65.692       41.509       35.437     4315.402     1722.991     1255.806        1.229        0.365       92.595       29.590        0.102      339.274       12.496      866.913
11/30/2013  14:52:00      134.790       83.894       62.262       78.587       73.168       49.623     6175.971     5353.606     2462.398        2.153        0.700      158.766       40.514        0.065      339.195       12.360      866.923
11/30/2013  14:53:00       81.205       73.164       59.301       62.546       43.953       37.604     3911.978     1931.837     1414.051        1.136        0.363      109.303       34.747        0.101      339.282       12.508      866.921
11/30/2013  14:54:00       56.612       82.531       97.181       61.036       58.544       46.136     3725.389     3427.445     2128.498        1.437        0.464      100.081       45.633        0.208      339.334       12.596      866.920
11/30/2013  14:55:00       66.305       88.434       83.273       81.846       52.610       45.818     6698.761     2767.785     2099.243        1.536        0.578      110.530       49.417        0.200      339.300       12.537      866.926
11/30/2013  14:56:00       64.538       58.367       69.342       59.324       56.835       41.111     3519.393     3230.228     1690.124        1.041        0.422       87.016       44.704        0.264      339.236       12.431      866.934
11/30/2013  14:57:00       74.494       68.606       61.826       48.063       52.830       36.194     2310.093     2791.052     1309.993        1.024        0.321      101.273       27.453        0.073      339.252       12.458      866.941
11/30/2013  14:58:00       71.826       73.570       17.729       46.627       39.821       40.617     2174.085     1585.737     1649.763        0.815        0.270      102.818       19.732        0.037      339.347       12.617      866.940
11/30/2013  14:59:00       69.828       53.894       16.547       37.370       29.684       25.583     1396.498      881.168      654.474        0.549        0.147       88.207       19.134        0.047      339.300       12.540      866.944
11/30/2013  15:00:00       14.113       32.981       34.471       24.413       37.095       28.194      596.016     1376.023      794.897        0.262        0.138       35.874       11.075        0.095      339.466       12.819      866.935
11/30/2013  15:01:00       -4.572       42.154       59.394       16.637       39.187       26.083      276.803     1535.620      680.305        0.391        0.125       42.401       22.310        0.277      339.541       12.944      866.936
11/30/2013  15:02:00       43.603       42.830       55.378       58.701       48.355       41.754     3445.752     2338.213     1743.420        0.716        0.376       61.120       30.605        0.251      339.426       12.750      866.929
11/30/2013  15:03:00        5.755       32.947       45.537       40.857       31.144       33.340     1669.254      969.942     1111.562        0.347        0.188       33.446       28.355        0.719      339.518       12.906      866.943
11/30/2013  15:04:00       10.631       56.215        6.445       35.400       40.127       23.071     1253.164     1610.165      532.263        0.335        0.170       57.212       17.348        0.092      339.404       12.713      866.966
11/30/2013  15:05:00        0.078       24.004       38.546       27.236       36.681       19.630      741.801     1345.526      385.329        0.227        0.124       24.004       13.549        0.319      339.509       12.891      866.978
11/30/2013  15:06:00       10.008       28.682        2.856       28.097       29.956       20.710      789.427      897.384      428.891        0.152        0.106       30.378       15.789        0.270      339.463       12.814      867.008
11/30/2013  15:07:00      107.080       42.917       15.179       66.571       43.771       40.524     4431.665     1915.935     1642.220        1.076        0.399      115.360       34.218        0.088      339.324       12.578      867.037
11/30/2013  15:08:00      157.513      110.215       36.762       39.120       37.247       35.295     1530.340     1387.351     1245.749        2.124        0.208      192.244       19.651        0.010      339.269       12.485      867.050
11/30/2013  15:09:00      105.695      103.862        2.824       50.540       52.740       35.969     2554.246     2781.497     1293.777        1.430        0.331      148.185       26.575        0.032      339.229       12.419      867.071
11/30/2013  15:10:00      100.978       71.493       28.929       43.127       40.351       45.262     1859.943     1628.221     2048.662        1.084        0.277      123.725       23.768        0.037      339.264       12.479      867.077
11/30/2013  15:11:00       93.018       71.246       55.879       68.581       51.011       50.352     4703.339     2602.086     2535.299        1.334        0.492      117.168       44.762        0.146      339.309       12.553      867.087
11/30/2013  15:12:00       98.396       61.383       28.979       39.981       39.236       35.148     1598.516     1539.464     1235.370        0.933        0.219      115.973       21.500        0.034      339.231       12.423      867.099
11/30/2013  15:13:00       52.555        5.829       18.764       31.732       32.991       21.449     1006.939     1088.435      460.056        0.285        0.128       52.877       18.255        0.119      339.274       12.495      867.100
11/30/2013  15:14:00       58.028       73.824       71.379       56.306       45.813       44.264     3170.319     2098.837     1959.311        1.057        0.361       93.900       39.352        0.176      339.307       12.551      867.097
11/30/2013  15:15:00       47.996      107.518      120.280       48.752       51.946       30.620     2376.784     2698.358      937.581        1.717        0.301      117.745       32.410        0.076      339.333       12.595      867.096
11/30/2013  15:16:00      100.906       61.465       51.450       58.195       44.658       48.338     3386.679     1994.313     2336.555        1.216        0.386      118.153       38.998        0.109      339.226       12.414      867.106
11/30/2013  15:17:00       52.637       38.624       47.608       52.713       64.451       29.040     2778.657     4153.900      843.294        0.715        0.389       65.288       32.933        0.254      339.351       12.626      867.111
11/30/2013  15:18:00       44.529       -5.023       40.796       45.702       98.387       44.703     2088.638     9679.975     1998.345        0.872        0.688       44.812       59.101        1.739      339.401       12.708      867.119
11/30/2013  15:19:00       25.304        7.466       37.008       36.102       48.772       31.610     1303.374     2378.756      999.203        0.337        0.234       26.382       34.138        1.674      339.437       12.769      867.131
11/30/2013  15:20:00       47.696       42.885       44.225       43.463       27.868       35.309     1889.070      776.608     1246.697        0.499        0.196       64.141       26.674        0.173      339.294       12.528      867.145
11/30/2013  15:21:00       40.707       55.464       54.110       38.546       29.846       34.012     1485.829      890.776     1156.821        0.560        0.177       68.799       31.652        0.212      339.297       12.532      867.151
11/30/2013  15:22:00       51.607       91.310       81.887       46.742       34.557       28.893     2184.819     1194.196      834.798        1.096        0.211      104.884       26.566        0.064      339.317       12.568      867.146
11/30/2013  15:23:00       61.528       49.890       48.736       37.803       39.100       37.507     1429.062     1528.788     1406.777        0.651        0.218       79.213       32.537        0.169      339.394       12.697      867.145
11/30/2013  15:24:00      101.158       57.554       30.512       36.054       24.510       25.401     1299.919      600.723      645.227        0.851        0.127      116.385       18.950        0.027      339.389       12.689      867.139
11/30/2013  15:25:00      132.682       96.778        3.655       53.070       37.908       34.120     2816.410     1437.033     1164.184        1.620        0.271      164.227       22.583        0.019      339.319       12.569      867.131
11/30/2013  15:26:00       50.843       78.768       -5.528       44.440       40.466       22.999     1974.955     1637.498      528.941        0.648        0.207       93.752       16.760        0.032      339.267       12.483      867.136
11/30/2013  15:27:00        3.664      120.853      -24.831       15.179       21.512        9.063      230.395      462.775       82.131        0.801        0.039      120.909        7.040        0.003      339.282       12.508      867.137
11/30/2013  15:28:00       26.398       63.407       -4.777       22.531       30.028       20.431      507.654      901.681      417.430        0.328        0.091       68.682       16.200        0.056      339.320       12.572      867.143
11/30/2013  15:29:00       17.068       42.014       -6.603       21.576       31.948       19.879      465.518     1020.695      395.172        0.199        0.094       45.348       20.362        0.202      339.402       12.711      867.147
11/30/2013  15:30:00       62.915       42.301       -1.552       54.785       44.155       34.758     3001.443     1949.703     1208.128        0.595        0.308       75.813       28.291        0.139      339.336       12.598      867.146
11/30/2013  15:31:00       49.086       63.791        6.622       39.405       46.580       37.374     1552.720     2169.683     1396.840        0.582        0.256       80.491       33.027        0.168      339.242       12.441      867.148
11/30/2013  15:32:00       46.325       84.754       -1.376       38.344       50.935       29.671     1470.252     2594.338      880.370        0.714        0.247       96.588       25.728        0.071      339.273       12.493      867.148
11/30/2013  15:33:00       44.125      109.869      -23.979       27.093       30.934       19.517      734.012      956.925      380.925        0.833        0.104      118.399       19.105        0.026      339.275       12.496      867.150
11/30/2013  15:34:00       20.017      105.714      -19.096       18.742       25.877       14.799      351.257      669.605      219.000        0.659        0.062      107.593       15.132        0.020      339.297       12.531      867.161
11/30/2013  15:35:00        6.313       90.237      -16.702       16.845       24.995        8.345      283.755      624.746       69.642        0.472        0.049       90.457        7.323        0.007      339.324       12.574      867.168
11/30/2013  15:36:00        9.918       74.353      -11.229       14.211       33.187       12.050      201.942     1101.376      145.194        0.360        0.072       75.012       13.842        0.034      339.352       12.627      867.184
11/30/2013  15:37:00       27.986       74.959      -10.777       18.382       30.637       20.788      337.900      938.637      432.156        0.411        0.085       80.013       20.836        0.068      339.308       12.550      867.193
11/30/2013  15:38:00       88.442       49.461       22.366       30.801       20.660       23.240      948.672      426.854      540.092        0.634        0.096      101.333       16.327        0.026      339.254       12.462      867.190
11/30/2013  15:39:00       21.042       33.661       49.890       41.866       35.874       27.254     1752.721     1286.913      742.789        0.392        0.189       39.696       22.049        0.309      339.306       12.548      867.181
11/30/2013  15:40:00       -0.220       37.543       45.161       15.752       20.577       17.349      248.111      423.425      300.979        0.221        0.049       37.543       15.130        0.162      339.345       12.616      867.179
11/30/2013  15:41:00       66.971       33.907        6.054       32.492       27.211       20.002     1055.719      740.452      400.098        0.393        0.110       75.065       14.944        0.040      339.273       12.493      867.178
11/30/2013  15:42:00       95.340       61.564       14.529       33.310       34.948       21.673     1109.534     1221.335      469.716        0.795        0.140      113.490        7.928        0.005      339.204       12.377      867.170
11/30/2013  15:43:00       81.161       13.150       13.555       45.274       36.001       22.185     2049.708     1296.080      492.182        0.539        0.192       82.220       22.012        0.072      339.228       12.418      867.170
11/30/2013  15:44:00       83.331       40.397       48.501       41.662       40.909       28.786     1735.689     1673.574      828.605        0.758        0.212       92.607       22.664        0.060      339.266       12.481      867.171
11/30/2013  15:45:00      122.184       86.984       31.535       33.835       28.090       24.347     1144.800      789.057      592.785        1.301        0.126      149.984       13.888        0.009      339.253       12.459      867.178
11/30/2013  15:46:00       80.573       12.692       19.846       46.620       41.100       37.634     2173.404     1689.230     1416.316        0.616        0.264       81.567       25.301        0.096      339.264       12.478      867.172
11/30/2013  15:47:00       44.518       46.929       60.215       40.271       40.336       35.517     1621.787     1626.993     1261.482        0.616        0.226       64.685       36.445        0.317      339.252       12.458      867.169
11/30/2013  15:48:00       55.765       68.219       84.099       46.078       43.058       23.783     2123.187     1854.012      565.612        0.969        0.227       88.111       21.568        0.060      339.272       12.490      867.170
11/30/2013  15:49:00       57.967       37.194       72.482       68.513       46.539       40.728     4694.064     2165.879     1658.792        0.926        0.426       68.874       42.221        0.376      339.267       12.484      867.164
11/30/2013  15:50:00       30.126       70.351       62.749       45.265       35.281       38.111     2048.906     1244.782     1452.464        0.727        0.237       76.529       28.850        0.142      339.274       12.495      867.160
11/30/2013  15:51:00       70.220       23.393       24.164       51.992       31.997       35.283     2703.190     1023.790     1244.896        0.552        0.249       74.014       29.902        0.163      339.214       12.394      867.154
11/30/2013  15:52:00       31.335       34.960       19.406       29.996       21.388       22.827      899.742      457.439      521.072        0.223        0.094       46.947       22.249        0.225      339.186       12.346      867.152
11/30/2013  15:53:00       68.663       27.927       39.721       54.031       33.191       30.120     2919.317     1101.628      907.233        0.600        0.246       74.125       28.925        0.152      339.188       12.349      867.158
11/30/2013  15:54:00       76.329       43.219       25.422       42.719       34.692       33.330     1824.937     1203.532     1110.901        0.624        0.207       87.715       26.450        0.091      339.151       12.288      867.173
11/30/2013  15:55:00       68.590       38.806        7.467       36.793       27.631       20.969     1353.689      763.481      439.692        0.441        0.128       78.807       15.991        0.041      339.177       12.332      867.188
11/30/2013  15:56:00       34.967       -5.853        3.580       41.672       27.565       13.559     1736.519      759.847      183.837        0.197        0.134       35.454       10.653        0.090      339.267       12.484      867.206
11/30/2013  15:57:00       21.182       14.415        7.511       15.566       12.627       10.319      242.285      159.442      106.492        0.061        0.025       25.622        6.070        0.056      339.147       12.281      867.217
11/30/2013  15:58:00       50.985       29.757       16.612       14.470       20.230       20.096      209.374      409.241      403.837        0.239        0.051       59.033       10.200        0.030      339.135       12.261      867.228
11/30/2013  15:59:00       18.973       62.811       68.195       25.767       34.528       22.949      663.936     1192.153      526.653        0.567        0.119       65.614       19.049        0.084      339.269       12.486      867.227
11/30/2013  16:00:00       28.284       72.788       77.972       45.504       40.052       34.644     2070.607     1604.185     1200.196        0.853        0.244       78.090       34.313        0.193      339.329       12.586      867.224
11/30/2013  16:01:00       53.720       47.534       51.219       42.834       40.023       32.907     1834.758     1601.812     1082.889        0.614        0.226       71.731       32.749        0.208      339.180       12.337      867.222
11/30/2013  16:02:00       40.929       38.658       29.843       29.605       26.769       23.828      876.457      716.575      567.770        0.311        0.108       56.299       23.149        0.169      339.190       12.353      867.222
11/30/2013  16:03:00       52.250       34.862       19.176       25.849       24.074       18.139      668.152      579.566      329.025        0.294        0.079       62.813       11.660        0.034      339.140       12.269      867.217
11/30/2013  16:04:00       36.478       15.614       23.519       36.521       23.652       30.028     1333.809      559.428      901.697        0.246        0.140       39.679       22.984        0.336      339.126       12.245      867.216
11/30/2013  16:05:00       74.329       30.876       27.886       41.800       27.209       32.237     1747.274      740.348     1039.222        0.539        0.176       80.487       17.625        0.048      339.132       12.255      867.214
11/30/2013  16:06:00       56.037       16.669       21.369       42.062       38.276       38.676     1769.237     1465.048     1495.825        0.430        0.237       58.463       29.576        0.256      339.111       12.220      867.216
11/30/2013  16:07:00       42.814       37.229       50.990       35.615       28.657       27.868     1268.407      821.245      776.640        0.434        0.143       56.737       17.685        0.097      339.182       12.339      867.225
11/30/2013  16:08:00       45.014       41.757       36.177       37.644       24.683       27.684     1417.055      609.267      766.393        0.394        0.140       61.399       23.231        0.143      339.123       12.240      867.241
11/30/2013  16:09:00       69.792       58.088       16.468       25.391       17.175       18.837      644.711      294.987      354.822        0.491        0.065       90.803       16.316        0.032      339.106       12.213      867.269
11/30/2013  16:10:00       86.495       43.579       19.168       38.626       22.637       21.027     1491.991      512.413      442.155        0.610        0.122       96.853       16.627        0.029      339.063       12.140      867.291
11/30/2013  16:11:00      101.739       48.928       11.801       28.810       27.025       22.774      830.018      730.346      518.636        0.748        0.104      112.893       12.269        0.012      339.067       12.146      867.305
11/30/2013  16:12:00       65.303       37.750        4.112       23.122       20.685       17.019      534.645      427.882      289.658        0.348        0.063       75.429        8.105        0.012      339.018       12.065      867.319
11/30/2013  16:13:00       55.518       22.440       15.925       40.791       24.031       20.840     1663.907      577.502      434.316        0.326        0.134       59.882       17.666        0.087      338.951       11.951      867.327
11/30/2013  16:14:00       55.072       34.140       16.972       18.479       22.050       21.306      341.459      486.213      453.933        0.288        0.064       64.795       12.778        0.039      338.965       11.975      867.339
11/30/2013  16:15:00       58.882       20.362        9.305       36.193       20.379       20.304     1309.918      415.296      412.271        0.305        0.107       62.303       14.479        0.054      338.931       11.917      867.356
11/30/2013  16:16:00       66.555       27.825       17.038       39.761       27.391       21.482     1580.919      750.278      461.479        0.414        0.140       72.137        8.065        0.012      338.936       11.926      867.371
11/30/2013  16:17:00       96.438       44.331        1.082       34.582       22.515       23.057     1195.885      506.918      531.634        0.675        0.112      106.139       10.179        0.009      338.971       11.984      867.392
11/30/2013  16:18:00       89.464       39.054       11.450       30.907       27.765       17.336      955.249      770.902      300.526        0.584        0.101       97.617       13.607        0.019      338.956       11.960      867.415
11/30/2013  16:19:00       41.745        9.464        4.213       38.703       22.063       20.826     1497.934      486.756      433.738        0.213        0.121       42.804       13.658        0.102      338.888       11.845      867.433
11/30/2013  16:20:00       64.444       26.058        9.910       19.814       20.267       17.138      392.603      410.733      293.710        0.301        0.055       69.513        8.655        0.016      338.921       11.902      867.449
11/30/2013  16:21:00       99.329       54.805       21.120       34.996       24.650       15.255     1224.712      607.646      232.724        0.769        0.103      113.446        4.910        0.002      338.998       12.031      867.450
11/30/2013  16:22:00       93.226       58.890       21.874       22.157       20.086       20.885      490.954      403.448      436.183        0.698        0.067      110.269        6.903        0.004      338.977       11.994      867.456
11/30/2013  16:23:00       52.844       34.508        5.982       24.142       16.149       15.784      582.841      260.789      249.138        0.256        0.055       63.113       10.572        0.028      338.860       11.799      867.469
11/30/2013  16:24:00       80.326       52.137       10.289       18.786       14.329       14.005      352.933      205.317      196.151        0.502        0.038       95.763        9.385        0.010      338.919       11.897      867.489
11/30/2013  16:25:00       70.245       45.701       13.834       27.096       16.447       15.272      734.210      270.508      233.236        0.423        0.062       83.803       10.261        0.015      338.858       11.793      867.497
11/30/2013  16:26:00       53.607       32.666       14.949       11.668        9.104        9.655      136.150       82.879       93.220        0.224        0.016       62.776        7.155        0.013      338.758       11.627      867.512
11/30/2013  16:27:00       80.432       54.176        9.946       23.041       20.617       25.161      530.899      425.074      633.061        0.555        0.079       96.976       19.092        0.039      338.844       11.771      867.523
11/30/2013  16:28:00       66.950       50.361        1.459       25.869       16.535       15.236      669.222      273.409      232.148        0.410        0.059       83.777       11.606        0.019      338.817       11.726      867.544
11/30/2013  16:29:00       54.023       40.642        2.552       21.196       18.142       15.112      449.251      329.149      228.384        0.279        0.050       67.604        7.787        0.013      338.719       11.562      867.561
11/30/2013  16:30:00       54.032       40.000        9.977       25.139       18.920       18.747      631.990      357.981      351.452        0.298        0.067       67.227       15.208        0.051      338.799       11.695      867.569
11/30/2013  16:31:00       29.405       31.790       -1.370       18.475       17.688       13.629      341.312      312.857      185.759        0.136        0.042       43.305       12.153        0.079      338.735       11.589      867.604
11/30/2013  16:32:00       17.551       32.641       -4.329       18.649       24.911       12.874      347.772      620.565      165.736        0.126        0.057       37.061       11.751        0.101      338.686       11.506      867.625
11/30/2013  16:33:00       24.297       68.376       -9.383       16.884       21.584       13.201      285.053      465.854      174.256        0.314        0.046       72.565       12.818        0.031      338.760       11.632      867.631
11/30/2013  16:34:00       32.645       58.382      -13.245       22.177       23.895       15.657      491.813      570.967      245.136        0.298        0.065       66.889       10.227        0.023      338.712       11.551      867.653
11/30/2013  16:35:00       29.352       38.026       -1.736       26.761       26.633       18.780      716.162      709.295      352.704        0.204        0.089       48.037       14.240        0.088      338.644       11.436      867.660
11/30/2013  16:36:00       15.621       59.312       -5.374       18.742       34.942       18.838      351.269     1220.912      354.869        0.286        0.096       61.335       22.572        0.135      338.687       11.507      867.673
11/30/2013  16:37:00       19.076       93.885      -13.876       15.339       14.991        9.657      235.296      224.735       93.248        0.496        0.028       95.803        7.037        0.005      338.772       11.649      867.685
11/30/2013  16:38:00       31.617      110.776      -21.559       21.045       25.673       10.749      442.912      659.083      115.531        0.748        0.061      115.200        8.398        0.005      338.745       11.606      867.683
11/30/2013  16:39:00       31.464      105.796      -10.148       22.153       49.208       20.251      490.738     2421.420      410.092        0.780        0.166      110.375       26.660        0.058      338.665       11.471      867.696
11/30/2013  16:40:00       10.265      120.751      -19.965       16.514       17.107       11.591      272.725      292.649      134.361        0.789        0.035      121.186        7.546        0.004      338.686       11.505      867.702
11/30/2013  16:41:00       27.859      130.960      -19.628       31.937       28.760       17.464     1019.973      827.159      304.979        1.023        0.108      133.890       19.309        0.021      338.694       11.520      867.730
11/30/2013  16:42:00       20.213      117.671      -15.331       25.614       30.189       20.996      656.084      911.348      440.834        0.825        0.100      119.395       17.702        0.022      338.550       11.279      867.752
11/30/2013  16:43:00        7.677      136.231      -21.341       18.483       18.907        9.858      341.629      357.462       97.181        0.993        0.040      136.447        9.705        0.005      338.591       11.347      867.772
11/30/2013  16:44:00       -5.231      132.888      -17.605       35.326       33.243       18.384     1247.891     1105.068      337.954        1.034        0.135      132.991       14.637        0.012      338.555       11.287      867.780
11/30/2013  16:45:00      -13.996      141.176      -17.143       24.174       27.380       16.572      584.385      749.681      274.615        1.101        0.080      141.868       14.198        0.010      338.555       11.286      867.795
11/30/2013  16:46:00       13.609      131.566      -17.223       29.223       43.586       22.622      853.975     1899.777      511.767        1.053        0.163      132.268       22.609        0.029      338.428       11.072      867.810
11/30/2013  16:47:00      -16.755      106.548      -20.475       22.199       17.068       10.224      492.791      291.316      104.540        0.647        0.044      107.858        7.673        0.005      338.508       11.208      867.825
11/30/2013  16:48:00      -26.225       86.104      -12.785       26.808       33.792       15.061      718.676     1141.868      226.848        0.518        0.104       90.009       14.188        0.025      338.530       11.244      867.846
11/30/2013  16:49:00      -57.535       12.899       -8.453       13.173       14.151       14.112      173.521      200.264      199.140        0.206        0.029       58.963        7.412        0.016      338.411       11.044      867.852
11/30/2013  16:50:00      -80.458       30.555      -14.632       25.228       18.616       15.920      636.461      346.554      253.446        0.443        0.062       86.065        8.762        0.010      338.478       11.158      867.865
11/30/2013  16:51:00      -88.932       25.877      -14.970       25.419       33.507       15.997      646.151     1122.726      255.916        0.541        0.101       92.621       15.893        0.029      338.414       11.049      867.874
11/30/2013  16:52:00      -81.688       50.851      -15.420       27.808       63.292       19.403      773.257     4005.892      376.475        0.733        0.258       96.223       19.836        0.042      338.288       10.838      867.880
11/30/2013  16:53:00     -131.887        1.889      -11.244       30.494       17.666       16.043      929.878      312.089      257.385        0.951        0.075      131.901       13.873        0.011      338.133       10.578      867.891
11/30/2013  16:54:00      -97.911      -14.919       -7.499       26.521       21.168       18.716      703.348      448.083      350.306        0.568        0.075       99.041       16.943        0.029      338.113       10.545      867.907
11/30/2013  16:55:00     -118.362        1.246       -7.098       27.649       23.275       15.470      764.465      541.734      239.317        0.780        0.077      118.369       12.195        0.011      338.029       10.402      867.919
11/30/2013  16:56:00     -117.468      -10.290      -10.829       28.602       23.327       19.411      818.082      544.160      376.802        0.788        0.087      117.918       19.284        0.027      337.911       10.204      867.931
11/30/2013  16:57:00     -112.614       -5.395      -12.800       14.815       16.300       15.131      219.476      265.702      228.947        0.679        0.036      112.743        9.811        0.008      337.929       10.235      867.935
11/30/2013  16:58:00      -86.992       -2.618      -14.992       28.437       24.548       12.998      808.648      602.588      168.945        0.469        0.079       87.032       10.247        0.014      338.090       10.505      867.935
11/30/2013  16:59:00      -84.158      -19.632       -6.641       19.327       17.712       14.493      373.528      313.724      210.056        0.420        0.045       86.418       12.206        0.020      338.025       10.395      867.948
11/30/2013  17:00:00      -94.952      -13.713       -8.772       24.220       20.831       14.931      586.589      433.910      222.948        0.526        0.062       95.938       14.073        0.022      337.887       10.166      867.965
11/30/2013  17:01:00     -107.115       -4.571      -17.051       29.589       24.290       14.157      875.493      590.021      200.428        0.673        0.083      107.212       14.078        0.017      337.861       10.121      867.983
11/30/2013  17:02:00     -118.813       11.206      -12.214       24.090       23.163       14.709      580.347      536.502      216.353        0.786        0.067      119.341        7.072        0.004      337.862       10.121      867.990
11/30/2013  17:03:00     -105.354      -23.622      -12.796       17.376       16.055       10.964      301.937      257.768      120.209        0.625        0.034      107.969        9.234        0.007      337.853       10.106      867.996
11/30/2013  17:04:00      -53.926      -25.039       -0.037       22.021       15.575       12.794      484.926      242.566      163.677        0.221        0.045       59.455        8.561        0.021      337.764        9.958      868.004
11/30/2013  17:05:00      -58.111      -19.082      -11.542       15.404       21.091       10.302      237.295      444.830      106.124        0.233        0.039       61.164        6.423        0.011      337.918       10.217      868.015
11/30/2013  17:06:00      -47.592      -27.521       -5.737       10.232       10.087        9.696      104.692      101.748       94.003        0.168        0.015       54.977        4.655        0.007      337.934       10.244      868.029
11/30/2013  17:07:00      -49.658      -25.202       -7.549        9.832        7.768        7.955       96.669       60.348       63.283        0.169        0.011       55.687        4.266        0.006      337.832       10.073      868.043
11/30/2013  17:08:00      -58.538      -33.105       -5.594       10.742        9.395        8.094      115.386       88.270       65.509        0.241        0.013       67.250        5.042        0.006      337.823       10.057      868.057
11/30/2013  17:09:00      -69.508      -27.330      -10.483        7.146        9.104        6.006       51.060       82.874       36.071        0.293        0.009       74.688        3.721        0.002      337.865       10.128      868.076
11/30/2013  17:10:00      -56.669      -30.755       -8.488        5.317        5.801        4.117       28.274       33.649       16.951        0.215        0.004       64.477        1.926        0.001      337.844       10.094      868.092
11/30/2013  17:11:00      -65.266      -24.442      -13.936        6.852        6.602        6.919       46.945       43.581       47.866        0.259        0.007       69.693        2.428        0.001      337.853       10.107      868.102
11/30/2013  17:12:00      -57.228      -26.234       -6.949       10.839        8.820        5.675      117.475       77.797       32.209        0.212        0.011       62.954        5.425        0.007      337.783        9.991      868.115
11/30/2013  17:13:00      -42.466      -31.853      -10.020       12.062        8.142        6.896      145.501       66.286       47.560        0.159        0.013       53.085        4.146        0.006      337.812       10.038      868.134
11/30/2013  17:14:00      -37.282       -9.757       -5.975       14.530       12.891        6.307      211.130      166.177       39.776        0.097        0.021       38.537        7.000        0.033      337.738        9.916      868.159
11/30/2013  17:15:00      -39.721       -8.877       -5.383        8.436       10.380        5.641       71.172      107.749       31.826        0.095        0.011       40.701        4.521        0.012      337.783        9.991      868.181
11/30/2013  17:16:00      -16.059      -16.935        3.733       21.280       12.596        5.928      452.824      158.662       35.138        0.060        0.032       23.339        6.698        0.082      337.600        9.683      868.213
11/30/2013  17:17:00      -35.288      -11.512       -3.245       19.406       17.808       12.644      376.601      317.126      159.869        0.112        0.043       37.119        9.904        0.071      337.828       10.066      868.236
11/30/2013  17:18:00      -52.568      -20.275       -8.283       14.012       17.250        8.726      196.335      297.576       76.149        0.191        0.029       56.342        7.197        0.016      337.770        9.968      868.258
11/30/2013  17:19:00      -81.193      -27.523       -2.639       28.656       23.617       14.500      821.178      557.759      210.256        0.447        0.079       85.731       15.504        0.033      337.468        9.462      868.285
11/30/2013  17:20:00      -60.935      -24.164       -1.170       51.748       22.117       15.405     2677.851      489.145      237.320        0.385        0.170       65.551       17.116        0.068      337.331        9.233      868.301
11/30/2013  17:21:00      -84.720      -14.255       -9.711       61.778       36.322       22.320     3816.553     1319.268      498.190        0.655        0.282       85.911       29.179        0.115      337.461        9.451      868.318
11/30/2013  17:22:00     -118.377      -33.452       -6.592       30.399       24.229       15.343      924.097      587.036      235.421        0.846        0.087      123.013       15.510        0.016      337.387        9.328      868.337
11/30/2013  17:23:00     -128.385      -43.925      -10.058       35.285       23.386       15.135     1245.030      546.889      229.062        1.027        0.101      135.691       14.501        0.011      337.309        9.197      868.357
11/30/2013  17:24:00     -101.001      -69.413       -2.088       37.892       25.810       19.747     1435.784      666.163      389.930        0.876        0.125      122.554       17.212        0.020      337.296        9.175      868.374
11/30/2013  17:25:00     -155.177      -85.972      -12.578       38.479       47.316       28.632     1480.625     2238.818      819.776        1.808        0.227      177.401       24.055        0.018      337.311        9.200      868.392
11/30/2013  17:26:00     -195.994      -67.241       -2.104       51.446       41.498       31.543     2646.640     1722.112      994.959        2.415        0.268      207.208       31.250        0.023      337.181        8.979      868.397
11/30/2013  17:27:00     -110.558      -69.860        0.119       63.425       48.628       32.271     4022.732     2364.730     1041.408        1.226        0.371      130.780       31.522        0.058      337.152        8.934      868.404
11/30/2013  17:28:00     -116.245      -74.734        0.313       52.835       35.830       29.230     2791.584     1283.822      854.405        1.201        0.246      138.196       28.905        0.044      337.154        8.936      868.418
11/30/2013  17:29:00      -99.348      -66.683       -7.471       29.696       30.083       21.057      881.836      904.978      443.383        0.830        0.112      119.652       17.899        0.022      337.200        9.013      868.412
11/30/2013  17:30:00      -98.666      -41.116       -4.495       43.199       35.656       22.008     1866.120     1271.369      484.339        0.753        0.181      106.890       17.880        0.028      337.122        8.883      868.420
11/30/2013  17:31:00      -69.852      -35.304       -6.248       34.578       23.151       15.536     1195.659      535.970      241.357        0.407        0.099       78.266        9.349        0.014      337.044        8.752      868.437
11/30/2013  17:32:00      -66.584      -19.072       -9.825       29.312       27.900       15.796      859.217      778.405      249.498        0.339        0.094       69.262       13.138        0.036      337.031        8.731      868.454
11/30/2013  17:33:00      -92.370      -24.475       -5.248       27.535       42.252       20.460      758.186     1785.266      418.592        0.606        0.148       95.558       18.915        0.039      336.948        8.590      868.468
11/30/2013  17:34:00     -128.563      -40.352      -11.697       20.847       21.405       20.620      434.579      458.182      425.172        0.981        0.066      134.747       13.022        0.009      336.912        8.533      868.459
11/30/2013  17:35:00      -96.940      -27.512       -9.350       42.473       31.215       21.138     1803.923      974.367      446.817        0.673        0.161      100.768       20.724        0.042      336.950        8.594      868.442
11/30/2013  17:36:00      -85.393      -38.083      -13.903       32.586       17.464       12.137     1061.862      305.006      147.300        0.522        0.076       93.500        5.729        0.004      336.997        8.672      868.434
11/30/2013  17:37:00     -107.862       -1.076       -9.517       30.677       39.992       22.389      941.052     1599.386      501.278        0.738        0.152      107.867       18.346        0.029      337.148        8.927      868.425
11/30/2013  17:38:00      -75.539      -24.531       -5.558       22.997       34.115       20.712      528.840     1163.812      429.003        0.423        0.106       79.422       16.973        0.046      337.085        8.821      868.431
11/30/2013  17:39:00      -81.666       -1.704       -9.692       30.352       25.709       17.717      921.217      660.942      313.906        0.433        0.095       81.684       14.759        0.033      337.054        8.767      868.441
11/30/2013  17:40:00     -104.746        6.522      -13.790       28.042       21.779       14.356      786.362      474.338      206.108        0.634        0.073      104.949       11.910        0.013      337.219        9.044      868.455
11/30/2013  17:41:00     -142.144      -10.104      -20.535       21.185       25.694       12.441      448.793      660.184      154.775        1.100        0.063      142.503        7.520        0.003      337.103        8.851      868.470
11/30/2013  17:42:00     -136.370        5.216      -20.116       30.586       34.881       27.710      935.487     1216.701      767.817        1.097        0.146      136.470       16.720        0.015      337.069        8.794      868.496
11/30/2013  17:43:00     -132.225       60.307      -24.743       43.945       46.312       29.904     1931.207     2144.774      894.220        1.335        0.249      145.329       19.289        0.018      337.286        9.158      868.539
11/30/2013  17:44:00     -142.239       78.909      -26.604       64.823       75.606       33.957     4202.007     5716.221     1153.044        1.912        0.554      162.661       36.407        0.050      337.295        9.171      868.580
11/30/2013  17:45:00     -125.789       61.905      -11.164       62.234       41.026       35.085     3873.025     1683.150     1230.956        1.328        0.339      140.197       30.779        0.048      337.232        9.066      868.622
11/30/2013  17:46:00     -147.432      104.129      -23.263       46.318       54.898       35.638     2145.389     3013.747     1270.085        1.977        0.321      180.497       29.008        0.026      337.378        9.310      868.653
11/30/2013  17:47:00     -146.935      -15.850       -7.575       50.088       66.067       32.831     2508.826     4364.863     1077.853        1.492        0.398      147.787       30.178        0.042      337.325        9.221      868.663
11/30/2013  17:48:00     -162.106       18.508      -24.943       42.445       64.394       32.157     1801.612     4146.598     1034.063        1.711        0.349      163.160       27.303        0.028      337.275        9.139      868.676
11/30/2013  17:49:00     -207.181       -7.096      -24.360       56.250       67.177       32.890     3164.016     4512.796     1081.750        2.616        0.438      207.303       28.246        0.019      337.266        9.122      868.683
11/30/2013  17:50:00     -121.609        2.100      -23.965       67.600       59.855       23.699     4569.767     3582.597      561.629        1.204        0.436      121.627       26.517        0.048      337.136        8.905      868.701
11/30/2013  17:51:00     -163.308      -15.016      -15.472       48.198       40.305       29.825     2323.031     1624.492      889.507        1.598        0.242      163.997       29.791        0.033      337.151        8.931      868.717
11/30/2013  17:52:00     -135.898      -31.862      -12.863       34.024       32.783       28.786     1157.645     1074.699      828.621        1.135        0.153      139.583       23.658        0.029      337.086        8.822      868.731
11/30/2013  17:53:00     -108.808        7.898       -9.335       34.832       46.115       22.901     1213.237     2126.629      524.471        0.793        0.193      109.094       18.155        0.028      337.200        9.014      868.753
11/30/2013  17:54:00     -108.943      -18.678      -12.719       35.974       37.844       20.056     1294.132     1432.181      402.246        0.775        0.156      110.533       13.953        0.016      337.160        8.945      868.745
11/30/2013  17:55:00     -110.583      -16.366      -12.068       48.032       34.982       16.807     2307.056     1223.716      282.472        0.823        0.191      111.788        8.620        0.006      337.248        9.094      868.744
11/30/2013  17:56:00      -87.794       -2.124      -12.513       31.839       40.351       14.934     1013.703     1628.190      223.018        0.537        0.143       87.820       14.380        0.027      337.120        8.880      868.752
11/30/2013  17:57:00      -74.907      -13.803      -12.609       25.096       29.127       14.330      629.816      848.390      205.342        0.382        0.084       76.168       10.738        0.020      337.085        8.820      868.747
11/30/2013  17:58:00      -72.539      -19.516      -11.059       32.662       15.637       14.264     1066.795      244.512      203.460        0.364        0.076       75.118       13.061        0.030      337.171        8.964      868.753
11/30/2013  17:59:00      -65.333      -30.019       -8.147       20.760       16.298       13.138      430.988      265.613      172.619        0.305        0.043       71.900        9.107        0.016      337.185        8.989      868.760
11/30/2013  18:00:00      -96.774      -52.659       -8.916       14.346       19.122       11.792      205.795      365.651      139.061        0.646        0.036      110.174        8.599        0.006      337.192        9.000      868.776
11/30/2013  18:01:00      -43.394      -18.772        2.641       23.834       18.721       13.202      568.078      350.469      174.300        0.167        0.055       47.280       10.624        0.050      337.132        8.899      868.795
11/30/2013  18:02:00      -43.788      -31.660       -1.704       15.064       12.153       11.649      226.921      147.696      135.704        0.172        0.026       54.035        7.885        0.021      337.199        9.012      868.829
11/30/2013  18:03:00      -54.514       -4.069       -1.871       18.037       21.397       15.477      325.325      457.830      239.549        0.201        0.051       54.666        9.985        0.033      337.197        9.009      868.842
11/30/2013  18:04:00      -33.347      -42.265       -0.275       20.909       22.852       16.194      437.178      522.206      262.257        0.206        0.061       53.836       12.730        0.056      337.229        9.062      868.867
11/30/2013  18:05:00      -19.039      -17.227        5.259       20.018       11.963       14.493      400.704      143.117      210.040        0.072        0.038       25.676       10.508        0.168      337.148        8.928      868.872
11/30/2013  18:06:00      -60.933      -28.551       -8.246       10.066       12.618        6.300      101.315      159.205       39.684        0.245        0.015       67.290        4.068        0.004      337.172        8.967      868.898
11/30/2013  18:07:00      -17.003      -16.567       -1.398       21.416       11.713        9.496      458.631      137.198       90.168        0.063        0.034       23.739        4.360        0.034      337.224        9.056      868.909
11/30/2013  18:08:00       -3.402      -14.365        0.242        8.180        8.010        8.925       66.906       64.161       79.658        0.021        0.011       14.763        2.744        0.035      337.200        9.015      868.922
11/30/2013  18:09:00       -2.797      -12.081       -3.620        9.493        6.977        6.862       90.126       48.680       47.086        0.018        0.009       12.400        2.718        0.048      337.223        9.054      868.947
11/30/2013  18:10:00        6.368       -7.673        0.025        9.485        8.864        4.352       89.966       78.572       18.940        0.014        0.009        9.971        5.066        0.258      337.279        9.147      868.967
11/30/2013  18:11:00       18.338        7.024        7.966       18.289       13.369       12.980      334.473      178.734      168.470        0.057        0.034       19.637       13.133        0.447      337.212        9.035      868.991
11/30/2013  18:12:00       -0.002       37.291       53.810       21.509       23.139       13.800      462.643      535.419      190.432        0.274        0.059       37.291       16.087        0.186      337.198        9.012      868.995
11/30/2013  18:13:00        0.090       39.402       59.376       31.188       26.992       22.313      972.717      728.583      497.869        0.364        0.110       39.402       24.505        0.387      337.206        9.024      868.993
11/30/2013  18:14:00       -7.691       46.683       62.064       16.794       23.615       20.411      282.036      557.667      416.608        0.367        0.063       47.312       15.754        0.111      337.158        8.945      868.992
11/30/2013  18:15:00       19.592       25.968       39.699       32.593       22.141       19.561     1062.284      490.210      382.627        0.228        0.097       32.530       16.454        0.256      337.102        8.848      868.982
11/30/2013  18:16:00       32.138       57.446       70.219       44.615       34.468       23.401     1990.529     1188.034      547.619        0.649        0.186       65.825       17.804        0.073      337.158        8.941      868.989
11/30/2013  18:17:00       80.524       41.780       65.084       55.004       45.823       41.189     3025.466     2099.791     1696.500        0.964        0.341       90.718       42.800        0.223      337.229        9.062      868.980
11/30/2013  18:18:00       56.914       69.828       70.320       42.946       31.724       30.304     1844.329     1006.425      918.316        0.841        0.188       90.085       26.714        0.088      337.182        8.983      868.982
11/30/2013  18:19:00       55.299       58.041       40.850       31.939       24.269       31.724     1020.114      589.002     1006.426        0.535        0.131       80.167       23.256        0.084      337.153        8.936      869.009
11/30/2013  18:20:00       81.288       52.559       23.462       18.650       16.135       15.057      347.817      260.344      226.725        0.538        0.042       96.800        8.491        0.008      337.184        8.985      869.020
11/30/2013  18:21:00       88.593       63.106       21.877       30.014       22.343       24.266      900.844      499.189      588.854        0.715        0.099      108.771       10.269        0.009      337.126        8.889      869.017
11/30/2013  18:22:00        2.746       -1.449       29.217       18.999       34.936       17.345      360.963     1220.552      300.849        0.137        0.094        3.104       16.510       28.284      337.126        8.889      869.020
11/30/2013  18:23:00       13.392      -27.260        7.382       32.244       19.485       19.495     1039.704      379.682      380.049        0.139        0.090       30.372       13.085        0.186      337.152        8.934      869.022
11/30/2013  18:24:00        0.358       14.044       12.719       16.595       21.513        9.517      275.383      462.805       90.576        0.059        0.041       14.049        8.599        0.375      337.096        8.839      869.021
11/30/2013  18:25:00      -21.627       23.382       -0.796       15.503       13.367       10.332      240.332      178.685      106.750        0.077        0.026       31.850        8.265        0.067      337.146        8.924      869.032
11/30/2013  18:26:00      -27.622       41.528      -15.905       20.003       20.345       10.522      400.123      413.922      110.709        0.183        0.046       49.875        6.578        0.017      337.140        8.914      869.038
11/30/2013  18:27:00      -32.861       71.083       -9.963       18.995       27.514       10.714      360.826      757.026      114.800        0.373        0.062       78.311        7.709        0.010      337.061        8.781      869.037
11/30/2013  18:28:00      -39.356       31.643      -11.679       34.597       22.986        9.091     1196.984      528.363       82.648        0.225        0.090       50.499       11.037        0.048      337.151        8.932      869.049
11/30/2013  18:29:00       55.666       -1.609      -10.829       33.714       18.552       14.020     1136.622      344.171      196.555        0.245        0.084       55.689       17.231        0.096      337.186        8.990      869.057
11/30/2013  18:30:00       42.011      -30.801       12.153       29.352       18.208       18.563      861.513      331.539      344.593        0.220        0.077       52.092       16.759        0.103      337.231        9.066      869.043
11/30/2013  18:31:00        6.373      -52.577        8.397       22.529       14.733       13.875      507.557      217.059      192.506        0.190        0.046       52.962        8.287        0.024      337.220        9.049      869.042
11/30/2013  18:32:00      -82.630       25.564       -9.962       34.480       30.466       15.715     1188.893      928.173      246.959        0.497        0.118       86.494       17.270        0.040      336.480        7.809      869.062
11/30/2013  18:33:00     -100.426       23.022      -14.094       52.556       21.887       20.536     2762.168      479.053      421.730        0.724        0.183      103.031       24.021        0.054      336.400        7.675      869.065
11/30/2013  18:34:00     -126.623        3.423      -21.527       15.456       20.724        9.243      238.884      429.465       85.429        0.863        0.038      126.669        8.207        0.004      336.686        8.154      869.050
11/30/2013  18:35:00     -105.309      -23.530      -17.704       12.951       10.206       10.156      167.736      104.163      103.147        0.617        0.019      107.905        8.482        0.006      336.734        8.236      869.050
11/30/2013  18:36:00      -91.128      -23.347      -10.375       42.810       39.266       17.303     1832.734     1541.788      299.380        0.631        0.184       94.071       10.133        0.012      336.453        7.766      869.049
11/30/2013  18:37:00     -118.639       12.803      -16.206       56.003       36.168       26.331     3136.285     1308.145      693.334        0.982        0.257      119.328       24.070        0.041      336.177        7.303      869.054
11/30/2013  18:38:00      -85.700       -4.948      -11.177       21.987       23.304       16.314      483.422      543.085      266.147        0.439        0.065       85.843       11.827        0.019      336.273        7.464      869.056
11/30/2013  18:39:00      -73.318       71.850      -18.496       28.915       65.337       17.711      836.073     4268.863      313.667        0.815        0.271      102.654       24.913        0.059      336.910        8.530      869.047
11/30/2013  18:40:00      -39.485       30.273      -12.663       32.287       49.590       14.771     1042.477     2459.152      218.168        0.318        0.186       49.755       19.970        0.161      337.148        8.927      869.037
11/30/2013  18:41:00      -69.946      -20.682        2.809       38.087       24.452       16.751     1450.628      597.922      280.591        0.383        0.116       72.940       13.680        0.035      336.544        7.917      869.022
11/30/2013  18:42:00      -71.409       15.571      -10.601       25.923       27.221       16.916      672.024      740.997      286.167        0.358        0.085       73.087        7.754        0.011      336.353        7.597      869.018
11/30/2013  18:43:00      -90.002       13.097      -11.576       16.372       15.553        9.369      268.036      241.888       87.786        0.450        0.030       90.949        3.897        0.002      336.725        8.219      869.001
11/30/2013  18:44:00      -86.662       16.449       -8.945       22.574       18.474       15.619      509.605      341.288      243.956        0.448        0.055       88.210       15.152        0.030      336.970        8.630      868.976
11/30/2013  18:45:00      -75.990       47.061      -11.099       22.674       31.711       16.800      514.132     1005.612      282.245        0.496        0.090       89.383       17.729        0.039      336.988        8.658      868.960
11/30/2013  18:46:00      -62.499       -3.325      -10.905       19.422       14.100        8.699      377.220      198.821       75.678        0.234        0.033       62.587        7.907        0.016      336.619        8.042      868.942
11/30/2013  18:47:00      -55.760      -14.095      -14.561       17.225       15.752       10.410      296.685      248.133      108.363        0.209        0.033       57.514        6.719        0.014      336.455        7.768      868.922
11/30/2013  18:48:00      -34.111       46.221      -10.763       21.161       29.833       15.062      447.798      890.019      226.867        0.249        0.078       57.445        8.898        0.024      336.959        8.612      868.918
11/30/2013  18:49:00        2.708       28.513        4.273       30.228       17.898       10.785      913.745      320.331      116.310        0.109        0.068       28.641        8.583        0.090      336.989        8.661      868.900
11/30/2013  18:50:00       46.863       34.434       13.287       23.306       18.792       22.865      543.182      353.121      522.793        0.249        0.071       58.154       14.953        0.066      336.773        8.300      868.901
11/30/2013  18:51:00       30.553       16.529       23.888       20.763       17.145       17.000      431.083      293.954      288.986        0.140        0.051       34.738       16.064        0.214      336.507        7.855      868.907
11/30/2013  18:52:00       28.893       -8.123       13.191       18.626       23.036       27.125      346.937      530.678      735.774        0.134        0.081       30.013       17.957        0.358      336.482        7.814      868.911
11/30/2013  18:53:00       26.377        1.151       27.133       31.707       26.897       26.261     1005.362      723.457      689.646        0.193        0.121       26.402       26.906        1.039      336.454        7.765      868.916
11/30/2013  18:54:00        0.984       30.748       47.712       17.118       24.286       16.517      293.032      589.826      272.814        0.219        0.058       30.764       17.291        0.316      336.458        7.773      868.944
11/30/2013  18:55:00      -13.413       29.201       44.253       12.922       17.178       12.943      166.986      295.093      167.512        0.181        0.031       32.135        9.062        0.080      336.463        7.781      868.966
11/30/2013  18:56:00      -16.277       -5.970       10.911       15.451       10.561       11.340      238.739      111.541      128.589        0.045        0.024       17.337        7.582        0.191      336.404        7.682      868.973
11/30/2013  18:57:00      -46.863       -7.760       -5.298       15.483       10.064        7.283      239.720      101.287       53.044        0.134        0.020       47.501        8.483        0.032      336.269        7.455      868.984
11/30/2013  18:58:00      -56.378      -21.902       -6.789        8.930        7.758        6.983       79.749       60.182       48.761        0.195        0.009       60.482        3.951        0.004      336.360        7.609      868.989
11/30/2013  18:59:00     -105.740      -46.935       -1.610       30.108       30.082       19.440      906.479      904.951      377.925        0.779        0.109      115.689       15.875        0.019      336.233        7.396      868.989
11/30/2013  19:00:00      -73.736      -25.003        9.495       53.967       39.739       25.181     2912.470     1579.215      634.099        0.564        0.256       77.860       27.669        0.126      336.005        7.017      869.004
11/30/2013  19:01:00      -83.945      -30.633        2.793       52.768       31.786       22.910     2784.444     1010.338      524.864        0.616        0.216       89.360       26.064        0.085      335.980        6.974      869.015
11/30/2013  19:02:00     -133.473      -37.533       -1.661       54.982       46.226       28.182     3023.026     2136.815      794.212        1.259        0.298      138.650       25.545        0.034      336.015        7.031      869.022
11/30/2013  19:03:00      -97.889      -38.587        3.222       41.432       35.233       22.721     1716.600     1241.367      516.257        0.728        0.174      105.219       22.506        0.046      336.116        7.201      869.046
11/30/2013  19:04:00      -91.423      -33.206        1.411       30.434       32.140       18.604      926.215     1033.001      346.122        0.588        0.115       97.267       16.411        0.028      336.144        7.249      869.056
11/30/2013  19:05:00      -40.315      -22.522       -6.354       20.190       22.484       11.133      407.634      505.541      123.935        0.160        0.052       46.179       11.885        0.066      336.216        7.368      869.064
11/30/2013  19:06:00      -18.568      -20.386       -0.654       17.479       16.362       10.345      305.516      267.725      107.023        0.072        0.034       27.575        9.761        0.125      336.230        7.392      869.074
11/30/2013  19:07:00       12.020      -31.085       -4.162       18.812       17.035        7.700      353.905      290.188       59.295        0.092        0.035       33.328        8.387        0.063      336.195        7.334      869.082
11/30/2013  19:08:00      -28.945      -27.041       -2.110       33.089       12.297       11.838     1094.877      151.205      140.140        0.148        0.069       39.611       14.489        0.134      336.175        7.300      869.083
11/30/2013  19:09:00     -104.673      -37.410       -3.278       36.061       21.251       11.488     1300.368      451.585      131.984        0.712        0.094      111.157        9.706        0.008      336.030        7.058      869.084
11/30/2013  19:10:00      -78.819      -39.956        6.209       45.880       29.135       21.632     2104.984      848.856      467.947        0.563        0.171       88.368       24.603        0.078      336.039        7.073      869.080
11/30/2013  19:11:00      -32.006      -35.069        3.241       23.374       18.974       13.924      546.354      360.013      193.871        0.168        0.055       47.478       11.946        0.063      335.963        6.945      869.064
11/30/2013  19:12:00      -45.509      -33.918        2.491       30.227       22.553       18.557      913.647      508.619      344.367        0.250        0.088       56.759       16.985        0.090      335.991        6.994      869.045
11/30/2013  19:13:00      -62.042      -59.529        8.493       46.566       30.877       22.338     2168.363      953.387      498.986        0.554        0.181       85.982       24.439        0.081      336.048        7.087      869.040
11/30/2013  19:14:00     -141.446      -62.719       -9.295       29.703       18.834       14.080      882.242      354.714      198.252        1.273        0.072      154.728       13.709        0.008      336.004        7.015      869.027
11/30/2013  19:15:00     -163.701      -47.576       -7.362       30.200       25.332       19.721      912.064      641.715      388.905        1.553        0.097      170.474       18.020        0.011      335.930        6.891      869.005
11/30/2013  19:16:00     -129.513      -63.314       -6.130       37.918       34.642       18.647     1437.772     1200.079      347.723        1.190        0.149      144.161       16.850        0.014      335.893        6.829      868.982
11/30/2013  19:17:00     -128.810      -55.077       -6.632       66.566       35.898       26.173     4431.069     1288.672      685.018        1.304        0.320      140.091       20.108        0.021      335.888        6.820      868.949
11/30/2013  19:18:00     -150.988      -48.264      -14.337       32.297       36.710       22.768     1043.094     1347.651      518.374        1.412        0.145      158.514       12.580        0.006      335.806        6.685      868.925
11/30/2013  19:19:00     -157.574      -50.500       -3.369       44.992       39.813       22.520     2024.296     1585.040      507.152        1.575        0.206      165.469       20.419        0.015      335.700        6.508      868.917
11/30/2013  19:20:00     -125.735      -26.293      -12.502       29.873       36.244       21.136      892.426     1313.637      446.748        0.965        0.133      128.455       17.097        0.018      335.625        6.382      868.906
11/30/2013  19:21:00     -106.267      -36.545      -13.561       46.406       38.595       24.557     2153.504     1489.539      603.027        0.853        0.212      112.375       17.147        0.023      335.594        6.331      868.897
11/30/2013  19:22:00     -156.557      -11.462      -22.841       27.802       30.179       18.182      772.944      910.800      330.589        1.359        0.101      156.976       13.726        0.008      335.582        6.313      868.903
11/30/2013  19:23:00     -141.206      -48.832       -8.722       38.331       40.565       26.219     1469.248     1645.557      687.421        1.310        0.190      149.412       23.747        0.025      335.627        6.387      868.908
11/30/2013  19:24:00     -125.613      -37.232       -0.341       51.873       39.514       26.019     2690.823     1561.357      677.010        1.105        0.246      131.015       24.158        0.034      335.563        6.279      868.905
11/30/2013  19:25:00     -152.886      -34.076      -14.326       38.015       30.999       23.247     1445.154      960.926      540.419        1.384        0.147      156.638       19.780        0.016      335.620        6.376      868.909
11/30/2013  19:26:00     -147.292      -28.879      -12.171       37.234       33.898       19.778     1386.395     1149.107      391.152        1.280        0.146      150.096       15.441        0.011      335.616        6.368      868.900
11/30/2013  19:27:00     -150.184       -6.346      -16.178       37.432       37.304       22.968     1401.147     1391.574      527.516        1.309        0.166      150.318       20.189        0.018      335.566        6.286      868.899
11/30/2013  19:28:00     -117.913        0.677       -5.674       65.298       56.439       28.660     4263.878     3185.374      821.423        1.110        0.414      117.915       24.048        0.042      335.478        6.137      868.920
11/30/2013  19:29:00     -173.892      -25.458      -22.837       39.348       24.144       24.147     1548.278      582.930      583.075        1.706        0.136      175.745       20.743        0.014      335.557        6.270      868.938
11/30/2013  19:30:00     -145.818      -45.732       -0.415       60.680       36.716       20.250     3682.107     1348.059      410.042        1.440        0.272      152.821       28.347        0.034      335.500        6.174      868.970
11/30/2013  19:31:00     -100.749      -75.284        3.316       49.809       57.194       32.299     2480.889     3271.168     1043.215        1.131        0.340      125.770       25.542        0.041      335.532        6.227      869.010
11/30/2013  19:32:00     -131.416     -110.419        0.678       61.229       50.612       31.435     3749.042     2561.587      988.178        1.838        0.365      171.646       34.076        0.039      335.544        6.248      869.042
11/30/2013  19:33:00     -120.599      -78.646        2.807       56.052       41.772       28.558     3141.867     1744.877      815.580        1.322        0.285      143.976       26.616        0.034      335.486        6.152      869.063
11/30/2013  19:34:00     -167.826      -81.378       -4.782       36.195       37.836       26.224     1310.072     1431.557      687.695        1.912        0.171      186.515       24.136        0.017      335.498        6.171      869.091
11/30/2013  19:35:00     -142.620      -67.170        1.977       55.892       30.353       26.707     3123.942      921.285      713.278        1.481        0.238      157.646       28.345        0.032      335.462        6.112      869.100
11/30/2013  19:36:00     -118.338      -69.853       -2.297       42.471       35.268       27.566     1803.801     1243.843      759.870        1.135        0.190      137.417       22.654        0.027      335.473        6.130      869.100
11/30/2013  19:37:00     -141.069      -76.171       -0.202       36.388       37.010       23.740     1324.055     1369.730      563.611        1.448        0.163      160.320       21.595        0.018      335.506        6.185      869.093
11/30/2013  19:38:00     -113.329      -62.831        3.715       49.113       30.454       20.348     2412.083      927.440      414.055        1.028        0.188      129.581       20.818        0.026      335.493        6.162      869.074
11/30/2013  19:39:00     -129.900      -29.064       -7.395       36.051       38.472       19.290     1299.678     1480.088      372.106        1.046        0.158      133.112       14.144        0.011      335.487        6.155      869.081
11/30/2013  19:40:00     -121.404      -57.700       -2.406       22.760       19.438       13.609      518.034      377.826      185.193        0.958        0.054      134.418       11.490        0.007      335.489        6.157      869.070
11/30/2013  19:41:00     -108.067      -51.594        2.868       31.448       21.537       16.794      988.985      463.832      282.044        0.804        0.087      119.752       15.828        0.017      335.510        6.192      869.067
11/30/2013  19:42:00     -103.424      -37.994       -8.437       25.532       22.270       16.984      651.905      495.940      288.461        0.682        0.072      110.182       10.700        0.009      335.448        6.088      869.083
11/30/2013  19:43:00     -127.529      -30.438       -9.875       29.282       30.806       21.399      857.454      949.033      457.916        0.978        0.113      131.111       14.096        0.012      335.338        5.905      869.089
11/30/2013  19:44:00     -111.460      -24.105       -4.921       29.954       25.187       18.073      897.266      634.367      326.617        0.744        0.093      114.036       17.568        0.024      335.309        5.855      869.107
11/30/2013  19:45:00      -46.681      -23.054        3.176       43.287       19.459       12.990     1873.743      378.652      168.748        0.257        0.121       52.063       10.179        0.038      335.318        5.870      869.127
11/30/2013  19:46:00      -21.738      -66.717        1.268       24.209       19.259       11.572      586.088      370.908      133.923        0.301        0.055       70.170       12.477        0.032      335.584        6.316      869.143
11/30/2013  19:47:00       -2.929      -18.311        3.026       15.929       14.704       10.737      253.725      216.213      115.285        0.047        0.029       18.544        5.288        0.081      335.483        6.146      869.168
11/30/2013  19:48:00      -14.168       -6.288        2.522       10.991       14.255       13.097      120.799      203.194      171.538        0.037        0.025       15.501        7.226        0.217      335.466        6.119      869.169
11/30/2013  19:49:00       16.246       20.154        7.690       14.401       15.537       11.390      207.396      241.398      129.726        0.065        0.029       25.886        4.590        0.031      335.353        5.928      869.184
11/30/2013  19:50:00       14.920       52.523       -7.032        7.434       12.382        4.307       55.269      153.306       18.546        0.163        0.011       54.602        2.124        0.002      335.390        5.993      869.194
11/30/2013  19:51:00       -7.591       12.316       -2.635       14.843       10.481        4.849      220.301      109.846       23.518        0.028        0.018       14.468        4.193        0.084      335.547        6.251      869.184
11/30/2013  19:52:00      -62.014        5.591       -5.444       11.013        9.306        5.033      121.292       86.596       25.331        0.207        0.012       62.266        2.344        0.001      335.490        6.159      869.198
11/30/2013  19:53:00      -31.706      -21.373       -4.240       15.944       12.786        9.607      254.206      163.488       92.294        0.099        0.025       38.237        8.337        0.048      335.165        5.618      869.206
11/30/2013  19:54:00      -23.086       -1.608       -6.265        9.556        5.215        4.732       91.317       27.197       22.393        0.036        0.007       23.142        4.903        0.045      335.032        5.397      869.216
11/30/2013  19:55:00      -26.172        3.507       -1.999        8.417        6.941        7.014       70.854       48.171       49.200        0.043        0.008       26.406        5.928        0.050      335.095        5.503      869.238
11/30/2013  19:56:00      -30.069       -1.184       -4.693        4.539        5.374        4.641       20.605       28.884       21.542        0.050        0.004       30.092        2.670        0.008      335.308        5.853      869.253
11/30/2013  19:57:00      -48.548       33.960      -12.474       10.806       12.342        8.888      116.769      152.334       79.000        0.201        0.017       59.247        7.612        0.017      335.233        5.730      869.272
11/30/2013  19:58:00      -41.397       20.328       -6.382       19.589       18.363       10.294      383.730      337.203      105.976        0.150        0.041       46.119        9.733        0.045      335.365        5.948      869.294
11/30/2013  19:59:00      -70.376        2.444       -9.235       10.483       19.666        9.158      109.889      386.766       83.861        0.281        0.029       70.419        6.625        0.009      335.183        5.646      869.302
11/30/2013  20:00:00      -75.163      -10.606      -10.186       16.032        8.293        6.572      257.035       68.773       43.191        0.312        0.018       75.907        4.913        0.004      334.992        5.331      869.323
11/30/2013  20:01:00      -69.453      -11.526       -7.201       12.292        8.283        6.984      151.083       68.600       48.779        0.264        0.013       70.402        5.821        0.007      335.081        5.479      869.334
11/30/2013  20:02:00      -89.663        4.019      -13.495       14.408       12.012        9.797      207.591      144.285       95.989        0.434        0.022       89.753        6.363        0.005      335.134        5.566      869.337
11/30/2013  20:03:00     -100.230       -8.678      -12.594       17.417       14.670       10.384      303.356      215.197      107.837        0.545        0.031      100.605        9.229        0.008      335.183        5.646      869.344
11/30/2013  20:04:00     -105.902      -31.982       -5.656       12.457        9.633        9.225      155.175       92.790       85.102        0.630        0.017      110.626        7.172        0.004      335.305        5.850      869.353
11/30/2013  20:05:00     -101.511      -23.789       -4.288       22.260       12.701       11.087      495.511      161.316      122.920        0.583        0.039      104.261       11.248        0.012      335.226        5.719      869.347
11/30/2013  20:06:00     -111.922       -3.201       -8.398       25.945       20.926       14.989      673.128      437.908      224.673        0.697        0.067      111.967       11.876        0.011      334.957        5.272      869.333
11/30/2013  20:07:00      -94.828       -3.186       -4.165       36.374       17.358       17.220     1323.072      301.317      296.526        0.547        0.096       94.881       17.986        0.036      334.860        5.112      869.304
11/30/2013  20:08:00      -69.946       -4.790       -3.508       30.431       27.701       17.605      926.043      767.324      309.944        0.347        0.100       70.110       16.710        0.057      334.837        5.075      869.283
11/30/2013  20:09:00      -52.144        2.964       -9.480       23.875       27.084       17.035      569.996      733.548      290.175        0.221        0.080       52.228       10.450        0.040      334.908        5.191      869.243
11/30/2013  20:10:00      -26.592       -8.018       -9.551       11.969        9.899        7.247      143.265       97.993       52.519        0.058        0.015       27.775        5.875        0.045      334.960        5.277      869.212
11/30/2013  20:11:00      -30.749       -8.841      -12.259        8.507       10.451        9.132       72.370      109.218       83.398        0.072        0.013       31.995        8.031        0.063      335.218        5.706      869.197
11/30/2013  20:12:00      -18.753       19.435       -1.483       12.875       18.167       10.196      165.777      330.035      103.959        0.067        0.030       27.007        6.566        0.059      335.152        5.597      869.187
11/30/2013  20:13:00      -35.171       -4.279       -7.669        7.701        7.283        6.664       59.307       53.045       44.411        0.074        0.008       35.430        2.782        0.006      335.036        5.404      869.174
11/30/2013  20:14:00      -57.201      -21.610      -13.325        8.604        7.645        5.199       74.036       58.441       27.033        0.204        0.008       61.147        1.599        0.001      334.942        5.248      869.171
11/30/2013  20:15:00      -63.093      -25.272      -11.064        7.817        7.867        8.492       61.099       61.895       72.121        0.247        0.010       67.966        3.409        0.003      334.830        5.063      869.175
11/30/2013  20:16:00      -81.236      -43.948      -17.024       24.649       19.856       12.117      607.561      394.250      146.829        0.498        0.057       92.362        8.741        0.009      334.640        4.746      869.167
11/30/2013  20:17:00     -129.374      -42.396      -17.273       27.145       23.117       14.540      736.825      534.398      211.425        1.016        0.074      136.143       13.287        0.010      334.529        4.561      869.168
11/30/2013  20:18:00     -137.843      -51.017      -16.215       30.024       29.394       18.654      901.434      864.027      347.971        1.199        0.106      146.981        9.367        0.004      334.473        4.469      869.178
11/30/2013  20:19:00     -103.872      -23.426       -7.155       35.749       27.764       21.342     1277.994      770.863      455.486        0.695        0.125      106.481       21.841        0.042      334.391        4.333      869.192
11/30/2013  20:20:00      -97.542      -31.813       -6.698       24.306       25.592       19.916      590.794      654.974      396.662        0.611        0.082      102.599       13.884        0.018      334.323        4.220      869.210
11/30/2013  20:21:00      -65.025        2.738       -2.228       37.185       30.334       16.458     1382.726      920.163      270.877        0.341        0.129       65.083       18.538        0.081      334.236        4.075      869.240
11/30/2013  20:22:00      -50.707        8.817      -13.366       35.536       30.542       17.818     1262.840      932.797      317.492        0.267        0.126       51.468       16.840        0.107      334.273        4.137      869.264
11/30/2013  20:23:00      -51.639       11.142      -17.453       35.969       24.393       15.568     1293.741      595.032      242.359        0.261        0.107       52.827       15.486        0.086      334.318        4.213      869.284
11/30/2013  20:24:00      -68.473      -19.221       -2.342       27.026       20.624       16.492      730.419      425.336      271.982        0.325        0.071       71.120       13.776        0.038      334.285        4.157      869.310
11/30/2013  20:25:00      -93.236      -19.358      -17.699       20.058       16.229       12.816      402.330      263.379      164.253        0.511        0.041       95.224        8.147        0.007      334.319        4.214      869.313
11/30/2013  20:26:00     -114.003      -24.954      -12.651       27.222       23.095       15.347      741.044      533.378      235.529        0.764        0.075      116.702       14.624        0.016      334.291        4.168      869.328
11/30/2013  20:27:00     -112.807      -18.717      -11.111       30.854       27.654       16.052      951.958      764.721      257.656        0.759        0.099      114.349       14.246        0.016      334.227        4.060      869.334
11/30/2013  20:28:00      -77.847      -23.201      -11.387       33.119       20.930       13.421     1096.888      438.078      180.130        0.422        0.086       81.230       11.724        0.021      334.186        3.993      869.330
11/30/2013  20:29:00      -91.486      -28.284      -16.569       26.092       24.281       13.155      680.802      589.577      173.049        0.544        0.072       95.759        9.481        0.010      334.141        3.919      869.334
11/30/2013  20:30:00     -101.901      -43.730      -18.811       24.807       24.691       12.294      615.399      609.630      151.131        0.701        0.069      110.888        6.477        0.003      334.118        3.880      869.317
11/30/2013  20:31:00      -92.632      -49.573      -14.195       30.865       16.518       16.034      952.676      272.843      257.098        0.636        0.074      105.062       13.958        0.018      334.162        3.952      869.314
11/30/2013  20:32:00     -134.758      -46.988      -20.032       27.410       23.155       13.724      751.309      536.175      188.353        1.112        0.074      142.715       14.499        0.010      334.180        3.981      869.316
11/30/2013  20:33:00     -159.062      -38.245      -27.377       19.396       13.008       11.082      376.206      169.213      122.820        1.409        0.033      163.595        7.877        0.002      334.233        4.070      869.327
11/30/2013  20:34:00     -150.277      -34.317      -12.848       30.236       22.899       15.684      914.196      524.382      245.985        1.280        0.084      154.145       12.279        0.006      334.161        3.952      869.365
11/30/2013  20:35:00     -147.413       -5.515       -9.715       38.200       33.456       19.649     1459.255     1119.322      386.071        1.241        0.148      147.516       17.969        0.015      334.108        3.864      869.405
11/30/2013  20:36:00      -87.108        4.411        0.341       50.684       40.661       27.330     2568.876     1653.307      746.926        0.629        0.248       87.219       26.910        0.095      334.081        3.819      869.455
11/30/2013  20:37:00     -112.602       14.154       -8.452       51.424       52.149       33.578     2644.477     2719.568     1127.502        0.972        0.325      113.488       32.335        0.081      334.177        3.978      869.480
11/30/2013  20:38:00     -171.603       27.915      -19.395       44.471       40.697       24.648     1977.710     1656.271      607.502        1.742        0.212      173.858       17.330        0.010      334.283        4.153      869.508
11/30/2013  20:39:00     -159.928        7.566      -16.774       40.900       41.611       23.897     1672.799     1731.499      571.077        1.494        0.199      160.107       16.724        0.011      334.224        4.054      869.518
11/30/2013  20:40:00     -145.922      -12.806      -21.469       46.022       36.913       25.075     2118.015     1362.586      628.741        1.301        0.205      146.483       20.438        0.019      334.236        4.075      869.523
11/30/2013  20:41:00     -156.067        0.898      -20.479       39.842       36.206       23.817     1587.378     1310.903      567.233        1.412        0.173      156.069       20.598        0.017      334.217        4.043      869.532
11/30/2013  20:42:00     -129.990      -10.375      -12.176       52.237       44.267       31.850     2728.689     1959.541     1014.426        1.143        0.285      130.404       27.141        0.043      334.128        3.895      869.521
11/30/2013  20:43:00     -173.469       -2.159      -19.687       46.042       46.537       28.051     2119.875     2165.682      786.854        1.778        0.254      173.482       24.614        0.020      334.112        3.867      869.527
11/30/2013  20:44:00     -117.819      -26.963        1.931       53.173       53.071       28.199     2827.369     2816.533      795.162        1.052        0.322      120.865       27.872        0.053      334.058        3.781      869.508
11/30/2013  20:45:00     -153.255       -6.124      -10.158       49.760       36.896       30.854     2476.067     1361.321      951.968        1.421        0.239      153.377       27.126        0.031      334.013        3.706      869.510
11/30/2013  20:46:00     -102.417       -3.331       -6.886       60.562       37.654       23.767     3667.742     1417.858      564.874        0.810        0.283      102.472       25.588        0.062      333.984        3.657      869.505
11/30/2013  20:47:00      -47.607       12.075       -5.319       40.848       36.334       25.409     1668.544     1320.189      645.603        0.304        0.182       49.115       16.725        0.116      334.061        3.784      869.520
11/30/2013  20:48:00      -48.085       -2.503       -8.740       29.348       24.996       16.686      861.331      624.791      278.436        0.208        0.088       48.150       10.691        0.049      334.166        3.958      869.524
11/30/2013  20:49:00      -38.745       -7.667        0.384       25.653       28.773       17.626      658.090      827.907      310.659        0.168        0.090       39.496        7.062        0.032      334.127        3.895      869.541
11/30/2013  20:50:00     -102.505      -12.045      -13.617       35.890       26.787       20.323     1288.079      717.540      413.015        0.663        0.121      103.210       15.662        0.023      334.142        3.920      869.535
11/30/2013  20:51:00      -86.690       -1.056       -9.712       45.200       28.190       22.455     2043.078      794.701      504.213        0.548        0.167       86.697       21.562        0.062      334.114        3.872      869.533
11/30/2013  20:52:00      -92.504      -10.823       -6.971       33.926       37.359       25.779     1150.952     1395.680      664.543        0.597        0.161       93.135       19.839        0.045      334.101        3.850      869.523
11/30/2013  20:53:00     -123.209       -1.249      -14.542       49.356       37.199       29.155     2436.009     1383.739      850.006        1.003        0.233      123.215       29.691        0.058      334.102        3.853      869.519
11/30/2013  20:54:00     -102.621      -42.057      -15.247       41.336       31.311       19.920     1708.638      980.357      396.791        0.781        0.154      110.905        7.610        0.005      334.194        4.006      869.519
11/30/2013  20:55:00     -119.806      -37.834      -15.482       29.323       29.468       17.529      859.845      868.363      307.277        0.903        0.102      125.638       12.793        0.010      334.180        3.983      869.509
11/30/2013  20:56:00     -119.649      -36.992      -13.737       41.333       42.892       27.121     1708.430     1839.727      735.568        1.008        0.214      125.237       19.701        0.025      334.205        4.024      869.503
11/30/2013  20:57:00     -102.673      -43.953       -3.298       29.889       37.759       22.538      893.336     1425.751      507.978        0.766        0.141      111.685       14.748        0.017      334.183        3.987      869.502
11/30/2013  20:58:00      -17.904      -39.168       -1.795       43.503       28.215       22.574     1892.551      796.067      509.571        0.253        0.160       43.066       16.885        0.154      334.198        4.013      869.510
11/30/2013  20:59:00      -76.787      -41.978        0.590       50.554       34.787       20.669     2555.675     1210.163      427.190        0.593        0.210       87.512       12.068        0.019      334.160        3.950      869.540
11/30/2013  21:00:00      -68.690      -57.796        5.439       38.590       29.986       14.424     1489.223      899.188      208.064        0.534        0.130       89.770       14.613        0.026      334.307        4.196      869.572
11/30/2013  21:01:00      -23.164      -41.577        4.494       20.032       15.322       12.488      401.268      234.760      155.945        0.154        0.040       47.594        9.504        0.040      334.461        4.449      869.605
11/30/2013  21:02:00      -32.235      -41.070       -5.089       17.845       15.487       10.464      318.457      239.846      109.490        0.171        0.033       52.209       10.532        0.041      334.510        4.531      869.641
11/30/2013  21:03:00      -92.128      -76.959       -5.937       42.732       34.113       21.596     1826.037     1163.704      466.370        0.895        0.173      120.043       19.413        0.026      334.301        4.184      869.647
11/30/2013  21:04:00     -146.975     -123.266      -11.936       41.903       37.654       28.566     1755.861     1417.839      816.042        2.046        0.199      191.823       25.219        0.017      334.302        4.184      869.642
11/30/2013  21:05:00     -118.639      -83.543        2.012       49.892       42.026       30.947     2489.163     1766.185      957.732        1.313        0.261      145.102       30.489        0.044      334.311        4.202      869.638
11/30/2013  21:06:00     -106.174      -72.972        3.837       44.679       50.657       29.567     1996.252     2566.166      874.194        1.102        0.272      128.832       24.657        0.037      334.293        4.170      869.632
11/30/2013  21:07:00     -132.471     -103.382       -4.896       52.387       45.256       25.000     2744.405     2048.139      624.995        1.684        0.271      168.037       25.717        0.023      334.227        4.059      869.632
11/30/2013  21:08:00     -104.475      -88.401        5.196       56.213       41.698       24.596     3159.912     1738.716      604.980        1.213        0.275      136.857       25.025        0.033      334.218        4.046      869.643
11/30/2013  21:09:00      -94.163      -71.017        3.717       47.384       37.178       23.663     2245.229     1382.229      559.961        0.905        0.209      117.941       21.321        0.033      334.202        4.017      869.662
11/30/2013  21:10:00      -77.437      -51.837        6.415       58.883       28.424       24.279     3467.248      807.919      589.457        0.679        0.243       93.186       27.419        0.087      334.115        3.874      869.675
11/30/2013  21:11:00      -22.059      -42.103       15.626       38.592       34.969       20.218     1489.334     1222.842      408.770        0.281        0.156       47.531       19.393        0.166      334.084        3.822      869.694
11/30/2013  21:12:00      -57.195      -56.041       -0.919       23.558       33.869       20.310      554.956     1147.098      412.484        0.426        0.106       80.074       16.486        0.042      334.124        3.890      869.709
11/30/2013  21:13:00      -43.745      -32.783        4.504       32.963       19.511       17.505     1086.562      380.693      306.409        0.239        0.089       54.666       14.358        0.069      334.216        4.043      869.707
11/30/2013  21:14:00      -62.054      -27.567        6.851       21.133       19.977       14.676      446.599      399.083      215.380        0.286        0.053       67.902       11.272        0.028      334.199        4.014      869.692
11/30/2013  21:15:00      -72.301      -31.217       -4.943       18.541       17.635       13.659      343.768      310.986      186.573        0.353        0.042       78.753        7.122        0.008      334.209        4.031      869.684
11/30/2013  21:16:00      -64.475      -24.242       -5.460       12.043       10.854       10.258      145.026      117.812      105.228        0.257        0.018       68.881        7.024        0.010      334.183        3.989      869.692
11/30/2013  21:17:00      -28.884       -7.096        3.722       20.401       10.429        8.584      416.197      108.766       73.682        0.075        0.030       29.743        6.740        0.051      334.158        3.946      869.700
11/30/2013  21:18:00      -12.577      -17.193        1.714       19.226       10.046        6.887      369.623      100.914       47.434        0.049        0.026       21.302        7.974        0.140      334.266        4.127      869.708
11/30/2013  21:19:00      -19.308      -15.071        0.401       11.153       10.196        8.311      124.388      103.962       69.071        0.045        0.015       24.493        7.149        0.085      334.243        4.089      869.723
11/30/2013  21:20:00      -15.800      -16.041       -0.142        6.650        9.004        8.681       44.217       81.074       75.353        0.035        0.010       22.515        3.692        0.027      334.248        4.096      869.731
11/30/2013  21:21:00      -52.944      -31.077       -7.702       22.480        8.406        8.154      505.335       70.667       66.481        0.224        0.032       61.390        9.197        0.022      334.270        4.133      869.728
11/30/2013  21:22:00      -64.243      -36.576       -3.808       26.964       12.919        9.214      727.038      166.913       84.904        0.323        0.049       73.926        9.922        0.018      334.200        4.017      869.714
11/30/2013  21:23:00      -72.739      -26.943       -5.679       17.066       12.121        8.198      291.243      146.910       67.200        0.328        0.025       77.568        4.401        0.003      334.125        3.891      869.713
11/30/2013  21:24:00     -103.042      -13.970      -12.655       10.355       13.546        7.764      107.227      183.502       60.283        0.566        0.018      103.985        4.804        0.002      334.084        3.823      869.701
11/30/2013  21:25:00     -103.009       -7.453      -12.833       14.371       11.118        9.215      206.536      123.605       84.913        0.562        0.021      103.278        5.625        0.003      334.120        3.882      869.690
11/30/2013  21:26:00      -95.765      -14.916      -11.453       25.715       17.450       17.077      661.276      304.495      291.625        0.539        0.063       96.920       15.665        0.026      334.060        3.783      869.681
11/30/2013  21:27:00     -104.973      -11.095      -12.068       17.919       14.023       11.337      321.102      196.652      128.521        0.597        0.032      105.557        8.546        0.007      333.974        3.640      869.683
11/30/2013  21:28:00      -85.922      -35.381       -5.333       15.138       17.531       12.969      229.147      307.343      168.200        0.468        0.035       92.922        7.752        0.007      333.890        3.502      869.699
11/30/2013  21:29:00      -70.544      -22.891       -1.999       29.854       27.973       11.624      891.239      782.508      135.107        0.366        0.090       74.165        9.858        0.018      333.893        3.507      869.720
11/30/2013  21:30:00      -81.982      -22.452       -5.494       25.227       21.220       12.633      636.420      450.289      159.593        0.425        0.062       85.001        8.650        0.010      333.843        3.424      869.726
11/30/2013  21:31:00      -76.558      -14.827       -7.203       21.691       25.879       15.556      470.483      669.743      241.976        0.376        0.069       77.981        8.402        0.012      333.860        3.452      869.724
11/30/2013  21:32:00      -84.039      -23.641       -9.195       33.877       22.657       13.396     1147.678      513.336      179.448        0.477        0.092       87.301        9.109        0.011      333.819        3.385      869.709
11/30/2013  21:33:00      -55.664       -6.413        6.233       48.618       23.923       26.898     2363.722      572.328      723.528        0.342        0.183       56.032       28.568        0.260      333.768        3.299      869.712
11/30/2013  21:34:00      -88.155      -29.299       -9.108       25.776       25.277       16.501      664.419      638.936      272.285        0.514        0.079       92.896       11.137        0.014      333.757        3.282      869.709
11/30/2013  21:35:00      -68.587      -36.850       -3.849       31.641       23.299       18.251     1001.142      542.830      333.117        0.398        0.094       77.859       19.138        0.060      333.747        3.264      869.691
11/30/2013  21:36:00      -94.281      -34.689       -9.091       27.868       18.645       14.502      776.612      347.627      210.309        0.575        0.067      100.461        5.061        0.003      333.675        3.144      869.687
11/30/2013  21:37:00     -117.264      -26.421      -17.513       20.096       18.424       12.105      403.851      339.458      146.526        0.782        0.044      120.204        9.780        0.007      333.665        3.128      869.685
11/30/2013  21:38:00      -97.918      -31.703      -10.297       24.534       24.911       17.849      601.934      620.566      318.593        0.612        0.077      102.922       10.218        0.010      333.669        3.136      869.684
11/30/2013  21:39:00      -97.232      -15.550       -6.279       28.615       25.891       18.049      818.791      670.321      325.757        0.577        0.091       98.468        8.687        0.008      333.614        3.044      869.682
11/30/2013  21:40:00      -81.346      -19.936       -8.397       20.458       26.604       20.004      418.525      707.776      400.141        0.431        0.076       83.753       13.909        0.028      333.662        3.124      869.678
11/30/2013  21:41:00      -88.065      -24.692      -10.939       17.519       19.304       12.216      306.905      372.633      149.224        0.466        0.041       91.461        7.922        0.008      333.630        3.069      869.678
11/30/2013  21:42:00     -103.482      -11.270      -15.856       28.197       26.851       14.650      795.080      720.993      214.630        0.641        0.087      104.094        6.860        0.004      333.675        3.145      869.688
11/30/2013  21:43:00     -104.493       -0.987      -13.045       43.054       29.721       21.448     1853.623      883.333      460.014        0.714        0.160      104.498       18.892        0.033      333.638        3.083      869.682
11/30/2013  21:44:00     -113.709       -8.500       -4.627       44.812       36.632       25.200     2008.120     1341.918      635.051        0.850        0.199      114.026       26.346        0.053      333.663        3.125      869.672
11/30/2013  21:45:00     -104.319      -34.339       -2.633       36.338       41.376       23.738     1320.461     1712.009      563.509        0.783        0.180      109.826       21.352        0.038      333.656        3.114      869.666
11/30/2013  21:46:00      -87.430       -0.074        3.899       49.556       39.675       26.338     2455.763     1574.077      693.678        0.619        0.236       87.430       26.916        0.095      333.590        3.003      869.671
11/30/2013  21:47:00     -109.717        2.779      -10.008       42.627       38.973       20.014     1817.021     1518.915      400.579        0.794        0.187      109.752       17.503        0.025      333.605        3.028      869.669
11/30/2013  21:48:00     -102.554       -1.412       -3.208       46.043       38.696       24.461     2119.921     1497.356      598.355        0.737        0.211      102.564       20.915        0.042      333.556        2.946      869.659
11/30/2013  21:49:00     -119.034        6.066       -6.583       44.555       33.323       21.121     1985.123     1110.424      446.111        0.889        0.177      119.189       22.513        0.036      333.559        2.953      869.644
11/30/2013  21:50:00     -112.115      -34.565       -9.002       23.276       28.818       17.046      541.772      830.454      290.565        0.775        0.083      117.322        9.904        0.007      333.583        2.992      869.647
11/30/2013  21:51:00     -106.788      -41.135      -13.362       15.839       22.859       13.347      250.862      522.552      178.133        0.711        0.048      114.437        5.771        0.003      333.686        3.162      869.642
11/30/2013  21:52:00      -85.260      -52.374      -10.118       21.719       21.280       15.066      471.731      452.857      226.992        0.563        0.058      100.062       10.257        0.011      333.652        3.107      869.646
11/30/2013  21:53:00      -64.746      -19.214      -10.415       31.814       22.604       22.011     1012.099      510.929      484.471        0.334        0.100       67.537       20.913        0.096      333.644        3.093      869.654
11/30/2013  21:54:00      -71.232      -32.901      -10.390       22.838       22.176       17.267      521.584      491.756      298.145        0.379        0.066       78.463        8.879        0.013      333.637        3.081      869.679
11/30/2013  21:55:00      -80.152      -39.263       -9.390       17.589       13.031        8.981      309.388      169.814       80.657        0.431        0.028       89.252        4.033        0.002      333.630        3.070      869.690
11/30/2013  21:56:00      -62.817      -39.824       -5.568       31.050       15.717       14.073      964.094      247.017      198.063        0.349        0.070       74.377       14.023        0.036      333.602        3.024      869.691
11/30/2013  21:57:00     -100.685      -50.397      -14.010       18.805       27.995       15.463      353.628      783.737      239.105        0.712        0.069      112.593        9.862        0.008      333.624        3.059      869.702
11/30/2013  21:58:00     -134.643      -50.407      -10.581       19.721       15.550       12.036      388.911      241.806      144.856        1.078        0.039      143.769        9.356        0.004      333.591        3.007      869.710
11/30/2013  21:59:00     -112.217      -48.105       -6.304       19.481       14.762       11.824      379.508      217.928      139.810        0.784        0.037      122.093        8.332        0.005      333.619        3.051      869.716
11/30/2013  22:00:00     -116.507      -46.894      -16.191       11.708        8.805        7.805      137.082       77.526       60.911        0.816        0.014      125.590        6.221        0.002      333.664        3.126      869.714
11/30/2013  22:01:00     -111.261      -58.375      -12.645       19.741       14.739       13.083      389.706      217.248      171.164        0.836        0.039      125.645        6.362        0.003      333.636        3.081      869.719
11/30/2013  22:02:00     -114.935      -78.739       -0.907       31.182       20.965       21.885      972.319      439.540      478.960        1.065        0.095      139.319       20.000        0.021      333.579        2.986      869.731
11/30/2013  22:03:00      -96.567      -61.228        0.784       44.644       28.760       24.101     1993.123      827.164      580.855        0.824        0.170      114.341       16.337        0.020      333.557        2.952      869.732
11/30/2013  22:04:00      -77.717      -65.601       -5.481       41.482       24.713       17.880     1720.730      610.745      319.712        0.651        0.133      101.702       12.055        0.014      333.593        3.009      869.740
11/30/2013  22:05:00     -123.997      -60.459       -8.441       29.486       25.831       19.131      869.433      667.228      365.987        1.050        0.095      137.951        7.773        0.003      333.526        2.897      869.752
11/30/2013  22:06:00     -120.030      -74.977       -6.141       30.092       30.683       20.933      905.510      941.427      438.197        1.118        0.114      141.523       16.652        0.014      333.483        2.827      869.766
11/30/2013  22:07:00     -141.163      -63.421       -9.060       24.200       23.878       15.408      585.646      570.156      237.421        1.271        0.070      154.755       12.403        0.006      333.526        2.897      869.771
11/30/2013  22:08:00     -140.438      -45.674       -3.560       34.927       28.573       18.413     1219.867      816.443      339.030        1.210        0.119      147.678       14.610        0.010      333.516        2.881      869.763
11/30/2013  22:09:00     -129.843      -55.621       -3.599       33.266       25.985       15.956     1106.651      675.223      254.607        1.100        0.102      141.255       15.953        0.013      333.549        2.937      869.764
11/30/2013  22:10:00     -124.136      -52.334        1.427       33.714       25.637       19.153     1136.629      657.242      366.838        1.016        0.108      134.716       17.430        0.017      333.520        2.887      869.761
11/30/2013  22:11:00     -125.895      -58.529        0.424       31.131       27.129       23.154      969.122      735.987      536.128        1.076        0.112      138.835       17.522        0.016      333.533        2.910      869.752
11/30/2013  22:12:00     -112.820      -54.641        0.396       42.548       25.687       22.245     1810.298      659.837      494.835        0.934        0.148      125.355       23.076        0.034      333.583        2.993      869.744
11/30/2013  22:13:00     -125.615      -53.771       -7.410       25.601       23.516       13.752      655.396      553.011      189.129        1.006        0.070      136.640       12.442        0.008      333.631        3.071      869.730
11/30/2013  22:14:00     -109.781      -32.637       -4.869       25.203       22.869       14.131      635.172      522.983      199.698        0.725        0.068      114.529       11.261        0.010      333.618        3.049      869.729
11/30/2013  22:15:00     -121.833      -49.046       -4.203       24.298       18.586       15.998      590.398      345.436      255.933        0.923        0.060      131.335       14.969        0.013      333.585        2.995      869.729
11/30/2013  22:16:00     -137.814      -60.096      -11.747       14.239       14.990        9.783      202.762      224.698       95.712        1.163        0.026      150.347        4.647        0.001      333.605        3.029      869.733
11/30/2013  22:17:00     -126.645      -39.545      -17.929       16.585       13.815       10.051      275.066      190.850      101.021        0.925        0.028      132.676        8.930        0.005      333.494        2.844      869.746
11/30/2013  22:18:00     -151.936      -62.488      -20.689       16.502       12.006        8.290      272.330      144.141       68.718        1.395        0.024      164.284        4.930        0.001      333.457        2.783      869.761
11/30/2013  22:19:00     -133.205      -80.833      -16.703       35.089       20.304       19.418     1231.266      412.272      377.041        1.329        0.101      155.812       11.969        0.006      333.427        2.732      869.776
11/30/2013  22:20:00     -112.199      -74.493      -15.832       39.387       27.379       19.792     1551.351      749.595      391.721        1.054        0.135      134.677       14.958        0.012      333.292        2.512      869.772
11/30/2013  22:21:00     -127.256      -51.474      -14.100       25.135       24.885       18.867      631.791      619.268      355.977        1.032        0.080      137.273       10.164        0.005      333.195        2.351      869.763
11/30/2013  22:22:00     -140.175      -27.508      -16.331       32.132       30.090       22.921     1032.475      905.438      525.350        1.157        0.123      142.848       15.460        0.012      333.126        2.237      869.757
11/30/2013  22:23:00     -135.894      -28.496      -14.771       35.097       36.023       23.913     1231.766     1297.672      571.833        1.130        0.155      138.850       17.566        0.016      333.100        2.193      869.759
11/30/2013  22:24:00      -55.768      -31.374       -6.271       50.922       32.774       27.709     2593.092     1074.153      767.781        0.428        0.222       63.987       18.396        0.083      333.179        2.323      869.769
11/30/2013  22:25:00      -85.411      -49.868      -10.349       50.621       32.723       23.920     2562.501     1070.798      572.167        0.705        0.210       98.903       16.237        0.027      333.143        2.263      869.769
11/30/2013  22:26:00      -92.714      -31.518       -7.568       25.083       34.086       16.369      629.156     1161.877      267.933        0.585        0.103       97.925       13.771        0.020      333.097        2.187      869.770
11/30/2013  22:27:00     -110.078      -27.115      -14.510       22.959       22.262       14.528      527.095      495.593      211.071        0.715        0.062      113.368        5.442        0.002      333.044        2.101      869.770
11/30/2013  22:28:00      -94.646       -9.139      -13.761       20.520       18.878       15.796      421.064      356.393      249.524        0.513        0.051       95.086       12.022        0.016      333.091        2.179      869.787
11/30/2013  22:29:00      -87.722       -4.343       -8.649       26.373       15.682       18.263      695.519      245.918      333.531        0.453        0.064       87.829       14.395        0.027      333.094        2.184      869.798
11/30/2013  22:30:00      -79.655      -30.186      -13.943       24.391       24.997       22.138      594.916      624.830      490.084        0.458        0.085       85.183       15.405        0.033      333.224        2.399      869.800
11/30/2013  22:31:00      -65.997      -28.030      -12.427       32.593       19.369       15.315     1062.300      375.141      234.555        0.348        0.084       71.703       14.160        0.039      333.212        2.379      869.805
11/30/2013  22:32:00      -88.537      -44.439      -23.368       16.241       24.079       14.494      263.769      579.797      210.090        0.571        0.053       99.064        4.872        0.002      333.207        2.370      869.807
11/30/2013  22:33:00     -119.358       -6.454      -18.146       20.155       15.773       13.042      406.232      248.801      170.088        0.772        0.041      119.532        8.890        0.006      333.258        2.455      869.816
11/30/2013  22:34:00     -103.967      -22.103      -20.657       14.012       24.530       14.596      196.330      601.703      213.052        0.637        0.051      106.290       11.616        0.012      333.279        2.490      869.818
11/30/2013  22:35:00      -94.308      -29.478      -18.059       15.126       21.459       17.022      228.787      460.483      289.739        0.553        0.049       98.808       11.985        0.015      333.261        2.459      869.818
11/30/2013  22:36:00      -99.060      -37.987      -21.755       11.911       12.695       12.256      141.881      161.161      150.217        0.609        0.023      106.093        4.778        0.002      333.227        2.403      869.816
11/30/2013  22:37:00     -110.248      -43.937      -11.483       13.736       17.987       10.294      188.686      323.518      105.956        0.742        0.031      118.681        5.874        0.002      333.175        2.317      869.828
11/30/2013  22:38:00      -79.709      -40.631       -4.871       27.489       24.814       15.060      755.619      615.719      226.793        0.481        0.080       89.467       13.515        0.023      333.155        2.283      869.845
11/30/2013  22:39:00     -115.692      -43.329      -12.950       13.084       10.389       10.720      171.194      107.936      114.927        0.791        0.020      123.540        5.460        0.002      333.181        2.327      869.854
11/30/2013  22:40:00     -108.705      -69.059      -11.098       12.751       18.450       11.823      162.583      340.404      139.793        0.868        0.032      128.786        6.947        0.003      333.246        2.435      869.856
11/30/2013  22:41:00      -93.483      -56.043        0.328       32.886       18.635       19.429     1081.478      347.258      377.500        0.684        0.090      108.994       19.058        0.031      333.240        2.424      869.857
11/30/2013  22:42:00      -78.057      -56.624       -1.522       30.497       17.483       17.584      930.065      305.673      309.191        0.542        0.077       96.432       16.612        0.030      333.283        2.497      869.866
11/30/2013  22:43:00      -47.132      -40.190        1.422       37.440       31.035       20.931     1401.743      963.168      438.112        0.332        0.140       61.941       17.949        0.084      333.246        2.434      869.865
11/30/2013  22:44:00      -77.559      -53.889        3.434       42.584       28.925       21.443     1813.383      836.636      459.812        0.602        0.155       94.442       21.903        0.054      333.179        2.325      869.856
11/30/2013  22:45:00      -89.519      -53.881        3.571       41.496       18.711       17.098     1721.892      350.112      292.332        0.665        0.118      104.483       18.184        0.030      333.172        2.312      869.862
11/30/2013  22:46:00     -122.197      -59.934       -4.575       24.716       20.473       15.140      610.875      419.133      229.223        0.990        0.063      136.103       13.559        0.010      333.207        2.370      869.871
11/30/2013  22:47:00     -126.797      -69.454       -5.708       24.089       22.500       13.853      580.290      506.264      191.910        1.111        0.064      144.573        7.832        0.003      333.167        2.303      869.871
11/30/2013  22:48:00     -140.500      -41.218       -4.883       21.136       20.376       12.858      446.736      415.194      165.338        1.124        0.051      146.421        7.720        0.003      333.215        2.383      869.865
11/30/2013  22:49:00     -114.969      -42.177       -8.282       22.508       22.260       14.443      506.618      495.519      208.591        0.814        0.061      122.461        9.727        0.006      333.179        2.324      869.870
11/30/2013  22:50:00     -107.598      -25.068        0.275       33.469       23.164       17.520     1120.186      536.577      306.948        0.708        0.098      110.479       19.774        0.032      333.176        2.319      869.883
11/30/2013  22:51:00     -104.292      -28.103        1.636       33.903       30.749       20.074     1149.380      945.530      402.957        0.708        0.125      108.012       21.630        0.040      333.184        2.332      869.906
11/30/2013  22:52:00     -124.338      -32.152       -8.532       32.795       21.227       13.058     1075.500      450.565      170.508        0.913        0.085      128.428       15.050        0.014      333.293        2.515      869.925
11/30/2013  22:53:00     -131.453      -47.874       -8.387       10.604       12.573        8.842      112.437      158.076       78.180        1.000        0.017      139.899        4.680        0.001      333.345        2.599      869.935
11/30/2013  22:54:00     -132.410      -48.531       -7.975       14.307       11.104        9.063      204.685      123.303       82.147        1.018        0.021      141.024        3.612        0.001      333.311        2.541      869.958
11/30/2013  22:55:00     -126.131      -56.901       -7.076       19.842       17.713       13.364      393.722      313.752      178.591        1.004        0.044      138.372       12.644        0.008      333.305        2.530      869.982
11/30/2013  22:56:00     -130.874      -55.391       -8.640       18.859       12.979       10.660      355.645      168.462      113.630        1.045        0.032      142.113       10.246        0.005      333.264        2.465      869.984
11/30/2013  22:57:00     -136.216      -38.173      -11.352       17.252       11.410       11.245      297.628      130.197      126.442        1.035        0.028      141.464        7.772        0.003      333.256        2.451      869.980
11/30/2013  22:58:00     -140.513      -53.809      -16.057       14.933       14.994       10.508      223.009      224.835      110.416        1.173        0.028      150.463        5.526        0.001      333.226        2.401      869.980
11/30/2013  22:59:00     -122.037      -44.254       -3.846       29.477       20.999       17.619      868.896      440.964      310.419        0.924        0.081      129.813       16.376        0.016      333.183        2.330      869.989
11/30/2013  23:00:00     -138.600      -54.610       -1.473       31.734       18.167       14.959     1007.042      330.040      223.775        1.188        0.078      148.970       16.085        0.012      333.145        2.266      869.996
11/30/2013  23:01:00     -138.391      -57.014       -5.386       43.929       21.852       23.039     1929.725      477.501      530.788        1.268        0.147      149.676       23.136        0.024      333.111        2.211      870.007
11/30/2013  23:02:00     -137.002      -48.093      -12.146       21.038       23.676       14.471      442.604      560.534      209.420        1.122        0.061      145.198       10.707        0.005      333.076        2.155      870.008
11/30/2013  23:03:00     -136.586      -53.099      -11.496       25.488       18.269       16.738      649.663      333.755      280.173        1.144        0.063      146.545       14.269        0.009      333.115        2.217      870.001
11/30/2013  23:04:00     -136.645      -47.898      -16.460       20.640       22.810       13.283      425.992      520.285      176.447        1.118        0.056      144.796        9.468        0.004      333.112        2.215      870.005
11/30/2013  23:05:00     -135.703      -34.901      -13.718       20.085       18.391       13.163      403.391      338.212      173.263        1.037        0.046      140.120        9.444        0.005      333.107        2.205      870.019
11/30/2013  23:06:00     -106.202      -32.866      -15.248       15.452       19.415       15.492      238.752      376.947      239.996        0.672        0.043      111.171        7.550        0.005      333.024        2.068      870.026
11/30/2013  23:07:00      -92.110      -25.340       -8.558       25.035       19.788       15.015      626.770      391.558      225.465        0.522        0.062       95.532       14.108        0.022      332.949        1.944      870.027
11/30/2013  23:08:00      -98.965      -35.557       -7.978       34.631       21.715       13.058     1199.297      471.541      170.523        0.648        0.092      105.159       11.674        0.012      332.928        1.909      870.019
11/30/2013  23:09:00     -119.332      -31.201      -11.598       29.837       23.398       18.108      890.221      547.463      327.889        0.856        0.088      123.344       14.228        0.013      332.902        1.868      870.028
11/30/2013  23:10:00      -91.068      -60.614      -12.778       44.989       18.698       17.547     2023.989      349.597      307.888        0.741        0.134      109.395       15.134        0.019      332.893        1.853      870.029
11/30/2013  23:11:00     -120.174      -43.785       -8.938       30.427       30.478       20.856      925.791      928.903      434.967        0.936        0.114      127.902       18.323        0.021      332.824        1.740      870.033
11/30/2013  23:12:00     -125.737      -57.773       -9.430       44.667       29.662       19.053     1995.165      879.810      363.035        1.124        0.162      138.375       15.240        0.012      332.823        1.736      870.030
11/30/2013  23:13:00     -123.213      -39.877      -14.915       41.455       45.647       24.256     1718.509     2083.631      588.376        1.069        0.220      129.506       19.705        0.023      332.791        1.683      870.042
11/30/2013  23:14:00     -134.389      -15.964       -9.105       38.251       25.498       26.409     1463.137      650.123      697.426        1.060        0.141      135.334       23.425        0.030      332.778        1.662      870.049
11/30/2013  23:15:00     -160.724      -17.926      -19.453       29.298       24.244       19.173      858.387      587.766      367.596        1.417        0.091      161.721       10.154        0.004      332.720        1.566      870.057
11/30/2013  23:16:00     -126.229      -12.308      -17.823       37.251       22.042       25.276     1387.658      485.845      638.888        0.946        0.126      126.827       24.041        0.036      332.762        1.636      870.057
11/30/2013  23:17:00     -103.787      -19.288      -10.783       38.483       25.729       18.955     1480.974      661.961      359.274        0.688        0.125      105.564       17.594        0.028      332.741        1.603      870.042
11/30/2013  23:18:00      -94.824      -16.355      -10.816       32.179       29.261       14.657     1035.501      856.182      214.836        0.574        0.105       96.224       14.498        0.023      332.775        1.659      870.030
11/30/2013  23:19:00     -114.166      -24.559       -2.625       33.380       28.709       21.694     1114.220      824.209      470.625        0.803        0.120      116.777       18.227        0.024      332.775        1.658      870.029
11/30/2013  23:20:00      -97.761      -27.089       -7.316       32.044       24.007       21.792     1026.818      576.328      474.878        0.621        0.104      101.444       19.339        0.036      332.718        1.563      870.017
11/30/2013  23:21:00     -108.534      -18.870      -14.445       18.690       25.929       15.308      349.299      672.297      234.335        0.680        0.063      110.162        8.934        0.007      332.795        1.691      869.998
11/30/2013  23:22:00      -86.080      -12.909      -14.414       27.664       20.278       18.717      765.309      411.178      350.321        0.466        0.076       87.042       13.832        0.025      332.849        1.780      869.981
11/30/2013  23:23:00      -86.141      -29.386      -18.745       22.344       29.296       20.058      499.250      858.234      402.341        0.520        0.088       91.016       14.646        0.026      332.844        1.772      869.970
11/30/2013  23:24:00     -102.496      -28.364      -14.418       31.295       13.905       11.950      979.363      193.348      142.803        0.642        0.066      106.348       10.554        0.010      332.845        1.774      869.976
11/30/2013  23:25:00      -81.338      -43.830      -10.211       34.629       26.589       16.365     1199.201      706.998      267.804        0.541        0.109       92.395       13.309        0.021      332.829        1.748      869.978
11/30/2013  23:26:00     -101.830      -42.897      -20.954       18.636       20.502       12.075      347.287      420.315      145.794        0.678        0.046      110.497        5.274        0.002      332.826        1.741      869.977
11/30/2013  23:27:00      -97.499      -43.053      -16.117       18.468       15.775       16.141      341.058      248.836      260.527        0.623        0.043      106.581        8.737        0.007      332.842        1.768      869.963
11/30/2013  23:28:00      -92.206      -22.316       -9.899       23.898       13.896       15.498      571.110      193.098      240.191        0.505        0.050       94.868       15.693        0.027      332.843        1.770      869.956
11/30/2013  23:29:00      -83.126      -28.818       -5.209       15.528       13.765       12.760      241.116      189.464      162.819        0.418        0.030       87.980        4.543        0.003      332.777        1.660      869.951
11/30/2013  23:30:00     -122.464      -13.985      -10.446       31.864       35.164       17.231     1015.346     1236.488      296.905        0.892        0.127      123.260       15.240        0.015      332.738        1.597      869.950
11/30/2013  23:31:00      -95.039      -16.963       -8.562       30.228       25.101       19.998      913.758      630.069      399.937        0.567        0.097       96.541       10.600        0.012      332.716        1.560      869.961
11/30/2013  23:32:00     -126.019      -16.312      -12.978       33.831       26.624       19.223     1144.536      708.820      369.524        0.927        0.111      127.070       10.845        0.007      332.703        1.538      869.956
11/30/2013  23:33:00     -124.108      -28.530      -16.338       28.847       33.803       21.751      832.130     1142.666      473.087        0.947        0.122      127.345       16.328        0.016      332.732        1.585      869.948
11/30/2013  23:34:00     -124.235        0.089      -14.830       20.875       24.775       17.120      435.781      613.792      293.098        0.850        0.067      124.235        6.904        0.003      332.719        1.565      869.937
11/30/2013  23:35:00     -100.399      -22.305      -14.809       17.742       22.525       18.310      314.796      507.377      335.260        0.598        0.058      102.847       13.407        0.017      332.791        1.685      869.940
11/30/2013  23:36:00      -92.581      -55.106      -13.153       28.627       17.635       16.226      819.490      310.991      263.280        0.659        0.070      107.740        9.827        0.008      332.765        1.641      869.950
11/30/2013  23:37:00     -113.919      -41.933       -8.133       27.449       18.202       18.757      753.423      331.321      351.827        0.812        0.072      121.391       14.688        0.015      332.745        1.609      869.953
11/30/2013  23:38:00     -139.244      -37.747       -4.472       29.768       17.276       15.505      886.123      298.464      240.404        1.113        0.071      144.270       13.512        0.009      332.750        1.615      869.945
11/30/2013  23:39:00     -101.841      -54.401        1.539       45.384       23.549       19.083     2059.693      554.565      364.168        0.816        0.149      115.460       18.076        0.025      332.714        1.557      869.938
11/30/2013  23:40:00      -96.526      -35.902      -11.787       36.868       25.735       21.186     1359.223      662.278      448.847        0.661        0.124      102.987       20.621        0.040      332.676        1.495      869.943
11/30/2013  23:41:00      -73.220      -25.402       -9.876       17.662       15.604       11.907      311.947      243.499      141.767        0.340        0.035       77.501        7.100        0.008      332.687        1.513      869.948
11/30/2013  23:42:00      -91.421      -19.383      -12.712       21.788       12.588       12.351      474.709      158.447      152.542        0.484        0.039       93.453       12.147        0.017      332.664        1.473      869.939
11/30/2013  23:43:00     -101.464      -28.116      -12.736       21.897       23.885       14.810      479.488      570.509      219.326        0.626        0.063      105.287       13.632        0.017      332.663        1.472      869.934
11/30/2013  23:44:00      -94.324      -25.973      -10.895       17.257       28.540       20.210      297.796      814.532      408.456        0.561        0.076       97.835       17.021        0.030      332.707        1.544      869.941
11/30/2013  23:45:00     -121.447      -15.598      -17.870       22.454       15.099       13.008      504.193      227.972      169.218        0.811        0.045      122.445        6.857        0.003      332.689        1.513      869.950
11/30/2013  23:46:00     -123.646      -19.375      -19.144       23.358       20.169       14.616      545.580      406.791      213.622        0.860        0.058      125.155       10.817        0.007      332.654        1.456      869.956
11/30/2013  23:47:00     -132.776      -13.720      -19.713       20.620       14.558       11.490      425.179      211.944      132.025        0.949        0.038      133.483        7.007        0.003      332.616        1.393      869.952
11/30/2013  23:48:00     -118.318      -15.369      -17.183       13.460       15.666       12.239      181.171      245.425      149.787        0.755        0.029      119.312        9.214        0.006      332.613        1.388      869.942
11/30/2013  23:49:00     -116.205      -11.854      -15.236       21.963       14.468       14.004      482.392      209.325      196.100        0.738        0.044      116.808       11.498        0.010      332.598        1.365      869.933
11/30/2013  23:50:00     -127.858      -25.385      -14.634       23.400       19.199       12.813      547.547      368.593      164.160        0.914        0.054      130.353       11.060        0.007      332.571        1.319      869.938
11/30/2013  23:51:00     -119.739      -15.975      -18.327       17.327       14.543       11.074      300.242      211.513      122.643        0.778        0.032      120.800        4.842        0.002      332.503        1.208      869.932
11/30/2013  23:52:00      -98.366       -3.594      -14.236       20.175       25.253       19.028      407.048      637.717      362.055        0.565        0.070       98.431       16.681        0.029      332.512        1.222      869.928
11/30/2013  23:53:00      -79.769      -20.365       -8.440       24.177       21.125       14.131      584.529      446.270      199.687        0.404        0.062       82.327       10.815        0.017      332.547        1.280      869.928
11/30/2013  23:54:00      -79.276      -15.227      -14.298       18.931       19.399       13.046      358.366      376.304      170.198        0.381        0.045       80.725       12.115        0.023      332.523        1.240      869.928
11/30/2013  23:55:00      -96.452      -16.777      -15.950       11.905       15.279       13.793      141.727      233.454      190.260        0.520        0.028       97.900        5.405        0.003      332.499        1.201      869.938
11/30/2013  23:56:00     -108.351      -13.917      -13.065       13.707       16.922       13.413      187.892      286.360      179.897        0.638        0.033      109.241        4.180        0.001      332.469        1.151      869.951
11/30/2013  23:57:00      -97.111       -5.282      -13.709       11.280       11.913       10.840      127.234      141.929      117.502        0.502        0.019       97.254        4.883        0.003      332.457        1.131      869.954
11/30/2013  23:58:00      -92.987      -14.086      -16.453       16.773       17.268       12.278      281.341      298.200      150.747        0.492        0.037       94.048        6.633        0.005      332.499        1.200      869.963
11/30/2013  23:59:00      -81.653       -1.733      -13.470       11.811       10.182       11.351      139.509      103.671      128.838        0.361        0.019       81.671        4.633        0.003      332.479        1.168      869.977
